<?xml version="1.0" encoding="UTF-8" standalone="no" ?>
<gpx xmlns="http://www.topografix.com/GPX/1/1" xmlns:xsi="http://www.w3.org/2001/XMLSchema-instance" xsi:schemaLocation="http://www.topografix.com/GPX/1/1 http://www.topografix.com/GPX/1/1/gpx.xsd" version="1.1" creator="VisuGPX - https://www.visugpx.com">
  <metadata>
    <name>Jour 1 13km - autour de Cluny</name>
    <desc><![CDATA[Collonges, Lournand, Cluny, randonnée de 13km sans difficultés]]></desc>
  </metadata>
  <trk>
    <name><![CDATA[21-OCT-17 06:07:16 PM]]></name>
    <trkseg>
      <trkpt lat="46.45356" lon="4.63372">
        <ele>391.87</ele>
        <time>2017-10-21T11:45:37Z</time>
      </trkpt>
      <trkpt lat="46.45356" lon="4.63369">
        <ele>393.32</ele>
        <time>2017-10-21T11:45:53Z</time>
      </trkpt>
      <trkpt lat="46.45356" lon="4.6337">
        <ele>394.76</ele>
        <time>2017-10-21T11:46:12Z</time>
      </trkpt>
      <trkpt lat="46.45358" lon="4.63369">
        <ele>394.76</ele>
        <time>2017-10-21T11:46:33Z</time>
      </trkpt>
      <trkpt lat="46.45358" lon="4.63371">
        <ele>395.24</ele>
        <time>2017-10-21T11:46:55Z</time>
      </trkpt>
      <trkpt lat="46.45357" lon="4.63367">
        <ele>394.76</ele>
        <time>2017-10-21T11:47:13Z</time>
      </trkpt>
      <trkpt lat="46.45356" lon="4.63368">
        <ele>395.24</ele>
        <time>2017-10-21T11:47:33Z</time>
      </trkpt>
      <trkpt lat="46.45358" lon="4.63368">
        <ele>395.24</ele>
        <time>2017-10-21T11:47:50Z</time>
      </trkpt>
      <trkpt lat="46.45357" lon="4.63368">
        <ele>395.24</ele>
        <time>2017-10-21T11:48:11Z</time>
      </trkpt>
      <trkpt lat="46.45357" lon="4.63368">
        <ele>395.72</ele>
        <time>2017-10-21T11:48:22Z</time>
      </trkpt>
      <trkpt lat="46.45357" lon="4.63368">
        <ele>395.72</ele>
        <time>2017-10-21T11:48:34Z</time>
      </trkpt>
      <trkpt lat="46.45357" lon="4.63368">
        <ele>395.72</ele>
        <time>2017-10-21T11:48:50Z</time>
      </trkpt>
      <trkpt lat="46.45357" lon="4.63367">
        <ele>395.72</ele>
        <time>2017-10-21T11:49:03Z</time>
      </trkpt>
      <trkpt lat="46.45357" lon="4.63367">
        <ele>395.72</ele>
        <time>2017-10-21T11:49:19Z</time>
      </trkpt>
      <trkpt lat="46.45357" lon="4.63367">
        <ele>395.72</ele>
        <time>2017-10-21T11:49:33Z</time>
      </trkpt>
      <trkpt lat="46.45357" lon="4.63368">
        <ele>395.72</ele>
        <time>2017-10-21T11:49:46Z</time>
      </trkpt>
      <trkpt lat="46.45357" lon="4.63368">
        <ele>395.72</ele>
        <time>2017-10-21T11:50:03Z</time>
      </trkpt>
      <trkpt lat="46.45357" lon="4.63368">
        <ele>395.72</ele>
        <time>2017-10-21T11:50:14Z</time>
      </trkpt>
      <trkpt lat="46.45357" lon="4.63368">
        <ele>395.72</ele>
        <time>2017-10-21T11:50:25Z</time>
      </trkpt>
      <trkpt lat="46.45356" lon="4.63367">
        <ele>395.72</ele>
        <time>2017-10-21T11:50:38Z</time>
      </trkpt>
      <trkpt lat="46.45356" lon="4.63367">
        <ele>395.72</ele>
        <time>2017-10-21T11:50:52Z</time>
      </trkpt>
      <trkpt lat="46.45356" lon="4.63367">
        <ele>396.2</ele>
        <time>2017-10-21T11:51:01Z</time>
      </trkpt>
      <trkpt lat="46.45356" lon="4.63367">
        <ele>395.72</ele>
        <time>2017-10-21T11:51:10Z</time>
      </trkpt>
      <trkpt lat="46.45356" lon="4.63367">
        <ele>395.72</ele>
        <time>2017-10-21T11:51:23Z</time>
      </trkpt>
      <trkpt lat="46.45356" lon="4.63367">
        <ele>395.72</ele>
        <time>2017-10-21T11:51:32Z</time>
      </trkpt>
      <trkpt lat="46.45356" lon="4.63368">
        <ele>396.68</ele>
        <time>2017-10-21T11:51:37Z</time>
      </trkpt>
      <trkpt lat="46.45357" lon="4.63365">
        <ele>397.16</ele>
        <time>2017-10-21T11:51:46Z</time>
      </trkpt>
      <trkpt lat="46.45357" lon="4.63365">
        <ele>396.68</ele>
        <time>2017-10-21T11:51:55Z</time>
      </trkpt>
      <trkpt lat="46.45358" lon="4.63365">
        <ele>396.68</ele>
        <time>2017-10-21T11:52:04Z</time>
      </trkpt>
      <trkpt lat="46.45358" lon="4.63366">
        <ele>396.68</ele>
        <time>2017-10-21T11:52:16Z</time>
      </trkpt>
      <trkpt lat="46.45358" lon="4.63366">
        <ele>396.68</ele>
        <time>2017-10-21T11:52:27Z</time>
      </trkpt>
      <trkpt lat="46.45358" lon="4.63366">
        <ele>396.68</ele>
        <time>2017-10-21T11:52:36Z</time>
      </trkpt>
      <trkpt lat="46.45358" lon="4.63366">
        <ele>396.68</ele>
        <time>2017-10-21T11:52:49Z</time>
      </trkpt>
      <trkpt lat="46.45358" lon="4.63366">
        <ele>396.68</ele>
        <time>2017-10-21T11:52:59Z</time>
      </trkpt>
      <trkpt lat="46.45358" lon="4.63366">
        <ele>396.68</ele>
        <time>2017-10-21T11:53:08Z</time>
      </trkpt>
      <trkpt lat="46.45358" lon="4.63365">
        <ele>396.68</ele>
        <time>2017-10-21T11:53:18Z</time>
      </trkpt>
      <trkpt lat="46.45358" lon="4.63365">
        <ele>396.68</ele>
        <time>2017-10-21T11:53:26Z</time>
      </trkpt>
      <trkpt lat="46.45357" lon="4.63365">
        <ele>396.68</ele>
        <time>2017-10-21T11:53:35Z</time>
      </trkpt>
      <trkpt lat="46.45357" lon="4.63365">
        <ele>396.68</ele>
        <time>2017-10-21T11:53:41Z</time>
      </trkpt>
      <trkpt lat="46.45358" lon="4.63362">
        <ele>396.68</ele>
        <time>2017-10-21T11:53:50Z</time>
      </trkpt>
      <trkpt lat="46.45359" lon="4.63361">
        <ele>396.68</ele>
        <time>2017-10-21T11:53:51Z</time>
      </trkpt>
      <trkpt lat="46.45367" lon="4.63354">
        <ele>396.68</ele>
        <time>2017-10-21T11:54:01Z</time>
      </trkpt>
      <trkpt lat="46.45374" lon="4.63349">
        <ele>396.68</ele>
        <time>2017-10-21T11:54:08Z</time>
      </trkpt>
      <trkpt lat="46.45374" lon="4.63348">
        <ele>396.68</ele>
        <time>2017-10-21T11:54:09Z</time>
      </trkpt>
      <trkpt lat="46.45383" lon="4.63345">
        <ele>396.2</ele>
        <time>2017-10-21T11:54:18Z</time>
      </trkpt>
      <trkpt lat="46.45389" lon="4.63343">
        <ele>396.2</ele>
        <time>2017-10-21T11:54:25Z</time>
      </trkpt>
      <trkpt lat="46.45395" lon="4.63342">
        <ele>396.2</ele>
        <time>2017-10-21T11:54:32Z</time>
      </trkpt>
      <trkpt lat="46.45396" lon="4.63341">
        <ele>396.2</ele>
        <time>2017-10-21T11:54:33Z</time>
      </trkpt>
      <trkpt lat="46.45398" lon="4.63339">
        <ele>396.2</ele>
        <time>2017-10-21T11:54:35Z</time>
      </trkpt>
      <trkpt lat="46.45405" lon="4.63337">
        <ele>396.2</ele>
        <time>2017-10-21T11:54:42Z</time>
      </trkpt>
      <trkpt lat="46.45414" lon="4.63336">
        <ele>396.2</ele>
        <time>2017-10-21T11:54:50Z</time>
      </trkpt>
      <trkpt lat="46.45421" lon="4.63334">
        <ele>395.72</ele>
        <time>2017-10-21T11:54:57Z</time>
      </trkpt>
      <trkpt lat="46.45424" lon="4.63335">
        <ele>395.72</ele>
        <time>2017-10-21T11:55:00Z</time>
      </trkpt>
      <trkpt lat="46.45431" lon="4.63336">
        <ele>395.72</ele>
        <time>2017-10-21T11:55:06Z</time>
      </trkpt>
      <trkpt lat="46.45437" lon="4.63337">
        <ele>395.24</ele>
        <time>2017-10-21T11:55:12Z</time>
      </trkpt>
      <trkpt lat="46.45445" lon="4.63339">
        <ele>394.76</ele>
        <time>2017-10-21T11:55:19Z</time>
      </trkpt>
      <trkpt lat="46.4545" lon="4.63338">
        <ele>394.76</ele>
        <time>2017-10-21T11:55:23Z</time>
      </trkpt>
      <trkpt lat="46.45457" lon="4.6334">
        <ele>394.76</ele>
        <time>2017-10-21T11:55:30Z</time>
      </trkpt>
      <trkpt lat="46.4546" lon="4.63341">
        <ele>394.76</ele>
        <time>2017-10-21T11:55:32Z</time>
      </trkpt>
      <trkpt lat="46.45463" lon="4.63345">
        <ele>395.24</ele>
        <time>2017-10-21T11:55:40Z</time>
      </trkpt>
      <trkpt lat="46.45463" lon="4.63345">
        <ele>395.24</ele>
        <time>2017-10-21T11:55:42Z</time>
      </trkpt>
      <trkpt lat="46.45464" lon="4.63349">
        <ele>395.24</ele>
        <time>2017-10-21T11:55:45Z</time>
      </trkpt>
      <trkpt lat="46.45468" lon="4.63359">
        <ele>395.24</ele>
        <time>2017-10-21T11:55:52Z</time>
      </trkpt>
      <trkpt lat="46.45471" lon="4.63358">
        <ele>395.72</ele>
        <time>2017-10-21T11:55:57Z</time>
      </trkpt>
      <trkpt lat="46.45471" lon="4.63357">
        <ele>395.72</ele>
        <time>2017-10-21T11:56:02Z</time>
      </trkpt>
      <trkpt lat="46.45472" lon="4.63357">
        <ele>395.72</ele>
        <time>2017-10-21T11:56:05Z</time>
      </trkpt>
      <trkpt lat="46.45478" lon="4.63358">
        <ele>396.2</ele>
        <time>2017-10-21T11:56:12Z</time>
      </trkpt>
      <trkpt lat="46.4548" lon="4.63359">
        <ele>396.2</ele>
        <time>2017-10-21T11:56:13Z</time>
      </trkpt>
      <trkpt lat="46.45484" lon="4.63359">
        <ele>396.68</ele>
        <time>2017-10-21T11:56:17Z</time>
      </trkpt>
      <trkpt lat="46.45488" lon="4.6336">
        <ele>397.16</ele>
        <time>2017-10-21T11:56:20Z</time>
      </trkpt>
      <trkpt lat="46.45492" lon="4.63363">
        <ele>397.64</ele>
        <time>2017-10-21T11:56:24Z</time>
      </trkpt>
      <trkpt lat="46.455" lon="4.63365">
        <ele>398.12</ele>
        <time>2017-10-21T11:56:31Z</time>
      </trkpt>
      <trkpt lat="46.45502" lon="4.63366">
        <ele>398.12</ele>
        <time>2017-10-21T11:56:32Z</time>
      </trkpt>
      <trkpt lat="46.4551" lon="4.63367">
        <ele>398.6</ele>
        <time>2017-10-21T11:56:38Z</time>
      </trkpt>
      <trkpt lat="46.45514" lon="4.63366">
        <ele>399.08</ele>
        <time>2017-10-21T11:56:41Z</time>
      </trkpt>
      <trkpt lat="46.45524" lon="4.63366">
        <ele>399.08</ele>
        <time>2017-10-21T11:56:49Z</time>
      </trkpt>
      <trkpt lat="46.45528" lon="4.63365">
        <ele>399.57</ele>
        <time>2017-10-21T11:56:53Z</time>
      </trkpt>
      <trkpt lat="46.45532" lon="4.63366">
        <ele>400.05</ele>
        <time>2017-10-21T11:56:56Z</time>
      </trkpt>
      <trkpt lat="46.45542" lon="4.63364">
        <ele>400.05</ele>
        <time>2017-10-21T11:57:03Z</time>
      </trkpt>
      <trkpt lat="46.45552" lon="4.63363">
        <ele>401.01</ele>
        <time>2017-10-21T11:57:10Z</time>
      </trkpt>
      <trkpt lat="46.45555" lon="4.63363">
        <ele>401.01</ele>
        <time>2017-10-21T11:57:13Z</time>
      </trkpt>
      <trkpt lat="46.45564" lon="4.6336">
        <ele>401.97</ele>
        <time>2017-10-21T11:57:20Z</time>
      </trkpt>
      <trkpt lat="46.45571" lon="4.63356">
        <ele>402.45</ele>
        <time>2017-10-21T11:57:27Z</time>
      </trkpt>
      <trkpt lat="46.45574" lon="4.63353">
        <ele>402.93</ele>
        <time>2017-10-21T11:57:30Z</time>
      </trkpt>
      <trkpt lat="46.45576" lon="4.63351">
        <ele>402.93</ele>
        <time>2017-10-21T11:57:32Z</time>
      </trkpt>
      <trkpt lat="46.45578" lon="4.6335">
        <ele>403.41</ele>
        <time>2017-10-21T11:57:38Z</time>
      </trkpt>
      <trkpt lat="46.45585" lon="4.63348">
        <ele>403.41</ele>
        <time>2017-10-21T11:57:46Z</time>
      </trkpt>
      <trkpt lat="46.45593" lon="4.63348">
        <ele>402.45</ele>
        <time>2017-10-21T11:57:51Z</time>
      </trkpt>
      <trkpt lat="46.45601" lon="4.63346">
        <ele>401.97</ele>
        <time>2017-10-21T11:57:59Z</time>
      </trkpt>
      <trkpt lat="46.45602" lon="4.63347">
        <ele>401.97</ele>
        <time>2017-10-21T11:58:00Z</time>
      </trkpt>
      <trkpt lat="46.45609" lon="4.63347">
        <ele>401.97</ele>
        <time>2017-10-21T11:58:06Z</time>
      </trkpt>
      <trkpt lat="46.45616" lon="4.63351">
        <ele>401.49</ele>
        <time>2017-10-21T11:58:11Z</time>
      </trkpt>
      <trkpt lat="46.4562" lon="4.63353">
        <ele>401.49</ele>
        <time>2017-10-21T11:58:14Z</time>
      </trkpt>
      <trkpt lat="46.45628" lon="4.6336">
        <ele>401.97</ele>
        <time>2017-10-21T11:58:21Z</time>
      </trkpt>
      <trkpt lat="46.45631" lon="4.6336">
        <ele>401.97</ele>
        <time>2017-10-21T11:58:23Z</time>
      </trkpt>
      <trkpt lat="46.45639" lon="4.63362">
        <ele>402.45</ele>
        <time>2017-10-21T11:58:30Z</time>
      </trkpt>
      <trkpt lat="46.4564" lon="4.63362">
        <ele>402.93</ele>
        <time>2017-10-21T11:58:32Z</time>
      </trkpt>
      <trkpt lat="46.45646" lon="4.63365">
        <ele>403.41</ele>
        <time>2017-10-21T11:58:40Z</time>
      </trkpt>
      <trkpt lat="46.45652" lon="4.63364">
        <ele>403.41</ele>
        <time>2017-10-21T11:58:46Z</time>
      </trkpt>
      <trkpt lat="46.45661" lon="4.63366">
        <ele>403.41</ele>
        <time>2017-10-21T11:58:53Z</time>
      </trkpt>
      <trkpt lat="46.45669" lon="4.63365">
        <ele>402.93</ele>
        <time>2017-10-21T11:58:59Z</time>
      </trkpt>
      <trkpt lat="46.45671" lon="4.63366">
        <ele>402.93</ele>
        <time>2017-10-21T11:59:01Z</time>
      </trkpt>
      <trkpt lat="46.45678" lon="4.63365">
        <ele>402.45</ele>
        <time>2017-10-21T11:59:08Z</time>
      </trkpt>
      <trkpt lat="46.45682" lon="4.63365">
        <ele>402.45</ele>
        <time>2017-10-21T11:59:12Z</time>
      </trkpt>
      <trkpt lat="46.45688" lon="4.63366">
        <ele>401.97</ele>
        <time>2017-10-21T11:59:16Z</time>
      </trkpt>
      <trkpt lat="46.45698" lon="4.6337">
        <ele>401.97</ele>
        <time>2017-10-21T11:59:23Z</time>
      </trkpt>
      <trkpt lat="46.45704" lon="4.63369">
        <ele>401.97</ele>
        <time>2017-10-21T11:59:27Z</time>
      </trkpt>
      <trkpt lat="46.45711" lon="4.6337">
        <ele>401.49</ele>
        <time>2017-10-21T11:59:34Z</time>
      </trkpt>
      <trkpt lat="46.45715" lon="4.6337">
        <ele>401.49</ele>
        <time>2017-10-21T11:59:40Z</time>
      </trkpt>
      <trkpt lat="46.45726" lon="4.63369">
        <ele>401.01</ele>
        <time>2017-10-21T11:59:48Z</time>
      </trkpt>
      <trkpt lat="46.45733" lon="4.63369">
        <ele>400.53</ele>
        <time>2017-10-21T11:59:54Z</time>
      </trkpt>
      <trkpt lat="46.4574" lon="4.63365">
        <ele>400.05</ele>
        <time>2017-10-21T12:00:00Z</time>
      </trkpt>
      <trkpt lat="46.45746" lon="4.63366">
        <ele>399.57</ele>
        <time>2017-10-21T12:00:06Z</time>
      </trkpt>
      <trkpt lat="46.45751" lon="4.63365">
        <ele>399.57</ele>
        <time>2017-10-21T12:00:09Z</time>
      </trkpt>
      <trkpt lat="46.45757" lon="4.63367">
        <ele>399.08</ele>
        <time>2017-10-21T12:00:13Z</time>
      </trkpt>
      <trkpt lat="46.45767" lon="4.63369">
        <ele>398.6</ele>
        <time>2017-10-21T12:00:21Z</time>
      </trkpt>
      <trkpt lat="46.45773" lon="4.63368">
        <ele>398.6</ele>
        <time>2017-10-21T12:00:25Z</time>
      </trkpt>
      <trkpt lat="46.4578" lon="4.63367">
        <ele>398.6</ele>
        <time>2017-10-21T12:00:31Z</time>
      </trkpt>
      <trkpt lat="46.45783" lon="4.63366">
        <ele>398.12</ele>
        <time>2017-10-21T12:00:34Z</time>
      </trkpt>
      <trkpt lat="46.45785" lon="4.63366">
        <ele>398.12</ele>
        <time>2017-10-21T12:00:36Z</time>
      </trkpt>
      <trkpt lat="46.45796" lon="4.63364">
        <ele>397.64</ele>
        <time>2017-10-21T12:00:40Z</time>
      </trkpt>
      <trkpt lat="46.45805" lon="4.63366">
        <ele>397.16</ele>
        <time>2017-10-21T12:00:48Z</time>
      </trkpt>
      <trkpt lat="46.45813" lon="4.63367">
        <ele>396.68</ele>
        <time>2017-10-21T12:00:55Z</time>
      </trkpt>
      <trkpt lat="46.45816" lon="4.63367">
        <ele>396.68</ele>
        <time>2017-10-21T12:00:58Z</time>
      </trkpt>
      <trkpt lat="46.45827" lon="4.63368">
        <ele>395.72</ele>
        <time>2017-10-21T12:01:06Z</time>
      </trkpt>
      <trkpt lat="46.45829" lon="4.63369">
        <ele>396.2</ele>
        <time>2017-10-21T12:01:08Z</time>
      </trkpt>
      <trkpt lat="46.45837" lon="4.6337">
        <ele>395.24</ele>
        <time>2017-10-21T12:01:15Z</time>
      </trkpt>
      <trkpt lat="46.45839" lon="4.6337">
        <ele>395.24</ele>
        <time>2017-10-21T12:01:17Z</time>
      </trkpt>
      <trkpt lat="46.4585" lon="4.63375">
        <ele>394.76</ele>
        <time>2017-10-21T12:01:27Z</time>
      </trkpt>
      <trkpt lat="46.45859" lon="4.63378">
        <ele>394.76</ele>
        <time>2017-10-21T12:01:35Z</time>
      </trkpt>
      <trkpt lat="46.45871" lon="4.63382">
        <ele>394.76</ele>
        <time>2017-10-21T12:01:45Z</time>
      </trkpt>
      <trkpt lat="46.4588" lon="4.63384">
        <ele>393.8</ele>
        <time>2017-10-21T12:01:53Z</time>
      </trkpt>
      <trkpt lat="46.45889" lon="4.63386">
        <ele>393.32</ele>
        <time>2017-10-21T12:02:01Z</time>
      </trkpt>
      <trkpt lat="46.45897" lon="4.63386">
        <ele>393.32</ele>
        <time>2017-10-21T12:02:08Z</time>
      </trkpt>
      <trkpt lat="46.45906" lon="4.63387">
        <ele>391.87</ele>
        <time>2017-10-21T12:02:17Z</time>
      </trkpt>
      <trkpt lat="46.45915" lon="4.63389">
        <ele>390.91</ele>
        <time>2017-10-21T12:02:25Z</time>
      </trkpt>
      <trkpt lat="46.45923" lon="4.6339">
        <ele>390.43</ele>
        <time>2017-10-21T12:02:33Z</time>
      </trkpt>
      <trkpt lat="46.45933" lon="4.63391">
        <ele>389.95</ele>
        <time>2017-10-21T12:02:42Z</time>
      </trkpt>
      <trkpt lat="46.45934" lon="4.63392">
        <ele>389.47</ele>
        <time>2017-10-21T12:02:44Z</time>
      </trkpt>
      <trkpt lat="46.45938" lon="4.6339">
        <ele>388.99</ele>
        <time>2017-10-21T12:02:48Z</time>
      </trkpt>
      <trkpt lat="46.45947" lon="4.63388">
        <ele>388.99</ele>
        <time>2017-10-21T12:02:57Z</time>
      </trkpt>
      <trkpt lat="46.45954" lon="4.63384">
        <ele>388.51</ele>
        <time>2017-10-21T12:03:04Z</time>
      </trkpt>
      <trkpt lat="46.45955" lon="4.63384">
        <ele>388.51</ele>
        <time>2017-10-21T12:03:05Z</time>
      </trkpt>
      <trkpt lat="46.45962" lon="4.63381">
        <ele>388.51</ele>
        <time>2017-10-21T12:03:12Z</time>
      </trkpt>
      <trkpt lat="46.45965" lon="4.6338">
        <ele>388.03</ele>
        <time>2017-10-21T12:03:23Z</time>
      </trkpt>
      <trkpt lat="46.45971" lon="4.63377">
        <ele>387.55</ele>
        <time>2017-10-21T12:03:30Z</time>
      </trkpt>
      <trkpt lat="46.45975" lon="4.63375">
        <ele>387.55</ele>
        <time>2017-10-21T12:03:35Z</time>
      </trkpt>
      <trkpt lat="46.45981" lon="4.6337">
        <ele>386.59</ele>
        <time>2017-10-21T12:03:43Z</time>
      </trkpt>
      <trkpt lat="46.45982" lon="4.6337">
        <ele>387.07</ele>
        <time>2017-10-21T12:03:55Z</time>
      </trkpt>
      <trkpt lat="46.45988" lon="4.63368">
        <ele>386.59</ele>
        <time>2017-10-21T12:04:02Z</time>
      </trkpt>
      <trkpt lat="46.45995" lon="4.63363">
        <ele>385.63</ele>
        <time>2017-10-21T12:04:09Z</time>
      </trkpt>
      <trkpt lat="46.45997" lon="4.63362">
        <ele>385.63</ele>
        <time>2017-10-21T12:04:11Z</time>
      </trkpt>
      <trkpt lat="46.46002" lon="4.6336">
        <ele>385.15</ele>
        <time>2017-10-21T12:04:16Z</time>
      </trkpt>
      <trkpt lat="46.46008" lon="4.63356">
        <ele>384.18</ele>
        <time>2017-10-21T12:04:22Z</time>
      </trkpt>
      <trkpt lat="46.46016" lon="4.63351">
        <ele>383.7</ele>
        <time>2017-10-21T12:04:30Z</time>
      </trkpt>
      <trkpt lat="46.46017" lon="4.63351">
        <ele>383.7</ele>
        <time>2017-10-21T12:04:31Z</time>
      </trkpt>
      <trkpt lat="46.46025" lon="4.63349">
        <ele>382.74</ele>
        <time>2017-10-21T12:04:38Z</time>
      </trkpt>
      <trkpt lat="46.46033" lon="4.63344">
        <ele>382.26</ele>
        <time>2017-10-21T12:04:45Z</time>
      </trkpt>
      <trkpt lat="46.4604" lon="4.6334">
        <ele>381.78</ele>
        <time>2017-10-21T12:04:52Z</time>
      </trkpt>
      <trkpt lat="46.46044" lon="4.63337">
        <ele>381.3</ele>
        <time>2017-10-21T12:04:55Z</time>
      </trkpt>
      <trkpt lat="46.46054" lon="4.63331">
        <ele>380.34</ele>
        <time>2017-10-21T12:05:02Z</time>
      </trkpt>
      <trkpt lat="46.46055" lon="4.6333">
        <ele>380.34</ele>
        <time>2017-10-21T12:05:03Z</time>
      </trkpt>
      <trkpt lat="46.46057" lon="4.63328">
        <ele>379.86</ele>
        <time>2017-10-21T12:05:05Z</time>
      </trkpt>
      <trkpt lat="46.4606" lon="4.63325">
        <ele>379.38</ele>
        <time>2017-10-21T12:05:08Z</time>
      </trkpt>
      <trkpt lat="46.46067" lon="4.63314">
        <ele>378.9</ele>
        <time>2017-10-21T12:05:15Z</time>
      </trkpt>
      <trkpt lat="46.46074" lon="4.63309">
        <ele>378.42</ele>
        <time>2017-10-21T12:05:22Z</time>
      </trkpt>
      <trkpt lat="46.46081" lon="4.633">
        <ele>377.94</ele>
        <time>2017-10-21T12:05:31Z</time>
      </trkpt>
      <trkpt lat="46.46089" lon="4.63286">
        <ele>377.45</ele>
        <time>2017-10-21T12:05:41Z</time>
      </trkpt>
      <trkpt lat="46.46095" lon="4.63274">
        <ele>377.45</ele>
        <time>2017-10-21T12:05:49Z</time>
      </trkpt>
      <trkpt lat="46.46102" lon="4.63263">
        <ele>377.94</ele>
        <time>2017-10-21T12:05:57Z</time>
      </trkpt>
      <trkpt lat="46.46109" lon="4.63253">
        <ele>377.94</ele>
        <time>2017-10-21T12:06:05Z</time>
      </trkpt>
      <trkpt lat="46.46117" lon="4.63246">
        <ele>378.42</ele>
        <time>2017-10-21T12:06:12Z</time>
      </trkpt>
      <trkpt lat="46.46122" lon="4.63242">
        <ele>378.42</ele>
        <time>2017-10-21T12:06:16Z</time>
      </trkpt>
      <trkpt lat="46.46129" lon="4.63239">
        <ele>378.9</ele>
        <time>2017-10-21T12:06:22Z</time>
      </trkpt>
      <trkpt lat="46.46136" lon="4.63237">
        <ele>379.38</ele>
        <time>2017-10-21T12:06:29Z</time>
      </trkpt>
      <trkpt lat="46.46143" lon="4.63236">
        <ele>379.86</ele>
        <time>2017-10-21T12:06:34Z</time>
      </trkpt>
      <trkpt lat="46.46153" lon="4.63234">
        <ele>380.34</ele>
        <time>2017-10-21T12:06:42Z</time>
      </trkpt>
      <trkpt lat="46.46163" lon="4.63233">
        <ele>380.82</ele>
        <time>2017-10-21T12:06:51Z</time>
      </trkpt>
      <trkpt lat="46.46169" lon="4.63232">
        <ele>381.3</ele>
        <time>2017-10-21T12:06:56Z</time>
      </trkpt>
      <trkpt lat="46.46175" lon="4.63233">
        <ele>381.3</ele>
        <time>2017-10-21T12:07:02Z</time>
      </trkpt>
      <trkpt lat="46.46184" lon="4.63234">
        <ele>381.78</ele>
        <time>2017-10-21T12:07:11Z</time>
      </trkpt>
      <trkpt lat="46.46193" lon="4.63235">
        <ele>382.26</ele>
        <time>2017-10-21T12:07:19Z</time>
      </trkpt>
      <trkpt lat="46.46195" lon="4.63236">
        <ele>382.26</ele>
        <time>2017-10-21T12:07:21Z</time>
      </trkpt>
      <trkpt lat="46.462" lon="4.63235">
        <ele>382.26</ele>
        <time>2017-10-21T12:07:26Z</time>
      </trkpt>
      <trkpt lat="46.46202" lon="4.63236">
        <ele>382.26</ele>
        <time>2017-10-21T12:07:28Z</time>
      </trkpt>
      <trkpt lat="46.4621" lon="4.63239">
        <ele>382.74</ele>
        <time>2017-10-21T12:07:36Z</time>
      </trkpt>
      <trkpt lat="46.46217" lon="4.63243">
        <ele>383.22</ele>
        <time>2017-10-21T12:07:44Z</time>
      </trkpt>
      <trkpt lat="46.4622" lon="4.63244">
        <ele>383.22</ele>
        <time>2017-10-21T12:07:47Z</time>
      </trkpt>
      <trkpt lat="46.4623" lon="4.63245">
        <ele>382.74</ele>
        <time>2017-10-21T12:07:56Z</time>
      </trkpt>
      <trkpt lat="46.46239" lon="4.63251">
        <ele>382.26</ele>
        <time>2017-10-21T12:08:04Z</time>
      </trkpt>
      <trkpt lat="46.46246" lon="4.63258">
        <ele>381.3</ele>
        <time>2017-10-21T12:08:12Z</time>
      </trkpt>
      <trkpt lat="46.46248" lon="4.6326">
        <ele>380.82</ele>
        <time>2017-10-21T12:08:15Z</time>
      </trkpt>
      <trkpt lat="46.46253" lon="4.63264">
        <ele>380.34</ele>
        <time>2017-10-21T12:08:21Z</time>
      </trkpt>
      <trkpt lat="46.46258" lon="4.63272">
        <ele>379.38</ele>
        <time>2017-10-21T12:08:29Z</time>
      </trkpt>
      <trkpt lat="46.46265" lon="4.63281">
        <ele>377.94</ele>
        <time>2017-10-21T12:08:39Z</time>
      </trkpt>
      <trkpt lat="46.46271" lon="4.6329">
        <ele>377.45</ele>
        <time>2017-10-21T12:08:47Z</time>
      </trkpt>
      <trkpt lat="46.46276" lon="4.63296">
        <ele>376.97</ele>
        <time>2017-10-21T12:08:54Z</time>
      </trkpt>
      <trkpt lat="46.46282" lon="4.63304">
        <ele>376.97</ele>
        <time>2017-10-21T12:09:01Z</time>
      </trkpt>
      <trkpt lat="46.46286" lon="4.63308">
        <ele>376.49</ele>
        <time>2017-10-21T12:09:09Z</time>
      </trkpt>
      <trkpt lat="46.46283" lon="4.63308">
        <ele>375.53</ele>
        <time>2017-10-21T12:09:16Z</time>
      </trkpt>
      <trkpt lat="46.46283" lon="4.63309">
        <ele>375.05</ele>
        <time>2017-10-21T12:09:22Z</time>
      </trkpt>
      <trkpt lat="46.46284" lon="4.63309">
        <ele>374.57</ele>
        <time>2017-10-21T12:09:27Z</time>
      </trkpt>
      <trkpt lat="46.46281" lon="4.63308">
        <ele>375.05</ele>
        <time>2017-10-21T12:09:33Z</time>
      </trkpt>
      <trkpt lat="46.4628" lon="4.63309">
        <ele>374.57</ele>
        <time>2017-10-21T12:09:41Z</time>
      </trkpt>
      <trkpt lat="46.4628" lon="4.63309">
        <ele>374.57</ele>
        <time>2017-10-21T12:09:47Z</time>
      </trkpt>
      <trkpt lat="46.4628" lon="4.63309">
        <ele>375.05</ele>
        <time>2017-10-21T12:09:55Z</time>
      </trkpt>
      <trkpt lat="46.46281" lon="4.6331">
        <ele>375.05</ele>
        <time>2017-10-21T12:10:05Z</time>
      </trkpt>
      <trkpt lat="46.46279" lon="4.63305">
        <ele>375.05</ele>
        <time>2017-10-21T12:10:12Z</time>
      </trkpt>
      <trkpt lat="46.46274" lon="4.63303">
        <ele>375.05</ele>
        <time>2017-10-21T12:10:20Z</time>
      </trkpt>
      <trkpt lat="46.46271" lon="4.63309">
        <ele>374.57</ele>
        <time>2017-10-21T12:10:29Z</time>
      </trkpt>
      <trkpt lat="46.46271" lon="4.6331">
        <ele>374.09</ele>
        <time>2017-10-21T12:10:45Z</time>
      </trkpt>
      <trkpt lat="46.4627" lon="4.63308">
        <ele>374.57</ele>
        <time>2017-10-21T12:10:54Z</time>
      </trkpt>
      <trkpt lat="46.4627" lon="4.63307">
        <ele>374.09</ele>
        <time>2017-10-21T12:11:04Z</time>
      </trkpt>
      <trkpt lat="46.46269" lon="4.63306">
        <ele>374.09</ele>
        <time>2017-10-21T12:11:10Z</time>
      </trkpt>
      <trkpt lat="46.4627" lon="4.63306">
        <ele>374.09</ele>
        <time>2017-10-21T12:11:18Z</time>
      </trkpt>
      <trkpt lat="46.46269" lon="4.63305">
        <ele>374.57</ele>
        <time>2017-10-21T12:11:28Z</time>
      </trkpt>
      <trkpt lat="46.46272" lon="4.63303">
        <ele>374.57</ele>
        <time>2017-10-21T12:11:35Z</time>
      </trkpt>
      <trkpt lat="46.46276" lon="4.63307">
        <ele>375.05</ele>
        <time>2017-10-21T12:11:42Z</time>
      </trkpt>
      <trkpt lat="46.46278" lon="4.63306">
        <ele>374.57</ele>
        <time>2017-10-21T12:11:48Z</time>
      </trkpt>
      <trkpt lat="46.46278" lon="4.6331">
        <ele>374.57</ele>
        <time>2017-10-21T12:11:54Z</time>
      </trkpt>
      <trkpt lat="46.4628" lon="4.6331">
        <ele>374.57</ele>
        <time>2017-10-21T12:12:04Z</time>
      </trkpt>
      <trkpt lat="46.4628" lon="4.6331">
        <ele>374.57</ele>
        <time>2017-10-21T12:12:05Z</time>
      </trkpt>
      <trkpt lat="46.46284" lon="4.6331">
        <ele>375.05</ele>
        <time>2017-10-21T12:12:11Z</time>
      </trkpt>
      <trkpt lat="46.46286" lon="4.63311">
        <ele>375.05</ele>
        <time>2017-10-21T12:12:17Z</time>
      </trkpt>
      <trkpt lat="46.46288" lon="4.63312">
        <ele>375.53</ele>
        <time>2017-10-21T12:12:23Z</time>
      </trkpt>
      <trkpt lat="46.46293" lon="4.63314">
        <ele>376.01</ele>
        <time>2017-10-21T12:12:31Z</time>
      </trkpt>
      <trkpt lat="46.46296" lon="4.63316">
        <ele>376.01</ele>
        <time>2017-10-21T12:12:39Z</time>
      </trkpt>
      <trkpt lat="46.46298" lon="4.63317">
        <ele>376.01</ele>
        <time>2017-10-21T12:12:48Z</time>
      </trkpt>
      <trkpt lat="46.463" lon="4.6332">
        <ele>376.49</ele>
        <time>2017-10-21T12:12:56Z</time>
      </trkpt>
      <trkpt lat="46.46301" lon="4.63322">
        <ele>376.49</ele>
        <time>2017-10-21T12:13:04Z</time>
      </trkpt>
      <trkpt lat="46.46301" lon="4.63323">
        <ele>376.49</ele>
        <time>2017-10-21T12:13:11Z</time>
      </trkpt>
      <trkpt lat="46.46302" lon="4.63326">
        <ele>376.97</ele>
        <time>2017-10-21T12:13:14Z</time>
      </trkpt>
      <trkpt lat="46.46308" lon="4.63334">
        <ele>376.97</ele>
        <time>2017-10-21T12:13:23Z</time>
      </trkpt>
      <trkpt lat="46.46313" lon="4.63339">
        <ele>376.97</ele>
        <time>2017-10-21T12:13:30Z</time>
      </trkpt>
      <trkpt lat="46.4632" lon="4.63345">
        <ele>377.94</ele>
        <time>2017-10-21T12:13:37Z</time>
      </trkpt>
      <trkpt lat="46.46327" lon="4.63354">
        <ele>378.9</ele>
        <time>2017-10-21T12:13:45Z</time>
      </trkpt>
      <trkpt lat="46.4633" lon="4.63359">
        <ele>379.38</ele>
        <time>2017-10-21T12:13:51Z</time>
      </trkpt>
      <trkpt lat="46.4633" lon="4.6336">
        <ele>379.86</ele>
        <time>2017-10-21T12:13:52Z</time>
      </trkpt>
      <trkpt lat="46.46333" lon="4.63368">
        <ele>380.82</ele>
        <time>2017-10-21T12:13:59Z</time>
      </trkpt>
      <trkpt lat="46.46334" lon="4.63373">
        <ele>381.3</ele>
        <time>2017-10-21T12:14:03Z</time>
      </trkpt>
      <trkpt lat="46.46335" lon="4.63378">
        <ele>381.78</ele>
        <time>2017-10-21T12:14:06Z</time>
      </trkpt>
      <trkpt lat="46.46338" lon="4.6339">
        <ele>383.22</ele>
        <time>2017-10-21T12:14:14Z</time>
      </trkpt>
      <trkpt lat="46.46338" lon="4.63394">
        <ele>383.22</ele>
        <time>2017-10-21T12:14:17Z</time>
      </trkpt>
      <trkpt lat="46.46337" lon="4.63404">
        <ele>383.7</ele>
        <time>2017-10-21T12:14:23Z</time>
      </trkpt>
      <trkpt lat="46.46334" lon="4.63427">
        <ele>382.74</ele>
        <time>2017-10-21T12:14:36Z</time>
      </trkpt>
      <trkpt lat="46.46333" lon="4.6343">
        <ele>383.22</ele>
        <time>2017-10-21T12:14:38Z</time>
      </trkpt>
      <trkpt lat="46.4633" lon="4.63441">
        <ele>383.22</ele>
        <time>2017-10-21T12:14:46Z</time>
      </trkpt>
      <trkpt lat="46.4633" lon="4.63441">
        <ele>382.74</ele>
        <time>2017-10-21T12:14:54Z</time>
      </trkpt>
      <trkpt lat="46.46331" lon="4.63444">
        <ele>382.74</ele>
        <time>2017-10-21T12:14:57Z</time>
      </trkpt>
      <trkpt lat="46.4633" lon="4.63451">
        <ele>382.74</ele>
        <time>2017-10-21T12:15:01Z</time>
      </trkpt>
      <trkpt lat="46.4633" lon="4.63461">
        <ele>382.74</ele>
        <time>2017-10-21T12:15:06Z</time>
      </trkpt>
      <trkpt lat="46.4633" lon="4.63467">
        <ele>382.74</ele>
        <time>2017-10-21T12:15:10Z</time>
      </trkpt>
      <trkpt lat="46.46328" lon="4.63479">
        <ele>382.26</ele>
        <time>2017-10-21T12:15:17Z</time>
      </trkpt>
      <trkpt lat="46.46329" lon="4.63489">
        <ele>381.78</ele>
        <time>2017-10-21T12:15:24Z</time>
      </trkpt>
      <trkpt lat="46.46329" lon="4.63498">
        <ele>381.3</ele>
        <time>2017-10-21T12:15:30Z</time>
      </trkpt>
      <trkpt lat="46.4633" lon="4.63505">
        <ele>380.82</ele>
        <time>2017-10-21T12:15:34Z</time>
      </trkpt>
      <trkpt lat="46.46331" lon="4.63514">
        <ele>380.82</ele>
        <time>2017-10-21T12:15:38Z</time>
      </trkpt>
      <trkpt lat="46.46334" lon="4.63518">
        <ele>380.34</ele>
        <time>2017-10-21T12:15:44Z</time>
      </trkpt>
      <trkpt lat="46.46335" lon="4.63519">
        <ele>380.34</ele>
        <time>2017-10-21T12:15:50Z</time>
      </trkpt>
      <trkpt lat="46.46336" lon="4.63523">
        <ele>380.34</ele>
        <time>2017-10-21T12:15:54Z</time>
      </trkpt>
      <trkpt lat="46.46335" lon="4.63536">
        <ele>379.38</ele>
        <time>2017-10-21T12:16:02Z</time>
      </trkpt>
      <trkpt lat="46.46336" lon="4.63539">
        <ele>379.38</ele>
        <time>2017-10-21T12:16:04Z</time>
      </trkpt>
      <trkpt lat="46.46338" lon="4.63545">
        <ele>378.9</ele>
        <time>2017-10-21T12:16:09Z</time>
      </trkpt>
      <trkpt lat="46.4634" lon="4.63546">
        <ele>378.9</ele>
        <time>2017-10-21T12:16:11Z</time>
      </trkpt>
      <trkpt lat="46.46344" lon="4.63553">
        <ele>378.42</ele>
        <time>2017-10-21T12:16:16Z</time>
      </trkpt>
      <trkpt lat="46.4635" lon="4.63563">
        <ele>376.49</ele>
        <time>2017-10-21T12:16:26Z</time>
      </trkpt>
      <trkpt lat="46.46354" lon="4.6357">
        <ele>376.01</ele>
        <time>2017-10-21T12:16:31Z</time>
      </trkpt>
      <trkpt lat="46.46361" lon="4.63583">
        <ele>374.57</ele>
        <time>2017-10-21T12:16:40Z</time>
      </trkpt>
      <trkpt lat="46.46367" lon="4.63593">
        <ele>373.61</ele>
        <time>2017-10-21T12:16:48Z</time>
      </trkpt>
      <trkpt lat="46.46367" lon="4.63595">
        <ele>373.13</ele>
        <time>2017-10-21T12:16:49Z</time>
      </trkpt>
      <trkpt lat="46.46373" lon="4.63606">
        <ele>372.17</ele>
        <time>2017-10-21T12:16:57Z</time>
      </trkpt>
      <trkpt lat="46.46376" lon="4.63619">
        <ele>371.21</ele>
        <time>2017-10-21T12:17:04Z</time>
      </trkpt>
      <trkpt lat="46.46381" lon="4.63635">
        <ele>370.24</ele>
        <time>2017-10-21T12:17:14Z</time>
      </trkpt>
      <trkpt lat="46.46385" lon="4.63649">
        <ele>369.28</ele>
        <time>2017-10-21T12:17:22Z</time>
      </trkpt>
      <trkpt lat="46.46389" lon="4.63663">
        <ele>368.8</ele>
        <time>2017-10-21T12:17:31Z</time>
      </trkpt>
      <trkpt lat="46.46394" lon="4.63676">
        <ele>368.32</ele>
        <time>2017-10-21T12:17:39Z</time>
      </trkpt>
      <trkpt lat="46.46398" lon="4.6369">
        <ele>368.32</ele>
        <time>2017-10-21T12:17:47Z</time>
      </trkpt>
      <trkpt lat="46.46399" lon="4.63701">
        <ele>368.32</ele>
        <time>2017-10-21T12:17:54Z</time>
      </trkpt>
      <trkpt lat="46.46399" lon="4.63716">
        <ele>368.32</ele>
        <time>2017-10-21T12:18:03Z</time>
      </trkpt>
      <trkpt lat="46.46395" lon="4.63726">
        <ele>367.84</ele>
        <time>2017-10-21T12:18:10Z</time>
      </trkpt>
      <trkpt lat="46.4639" lon="4.63735">
        <ele>367.36</ele>
        <time>2017-10-21T12:18:17Z</time>
      </trkpt>
      <trkpt lat="46.46388" lon="4.6374">
        <ele>367.36</ele>
        <time>2017-10-21T12:18:21Z</time>
      </trkpt>
      <trkpt lat="46.46382" lon="4.63748">
        <ele>366.88</ele>
        <time>2017-10-21T12:18:28Z</time>
      </trkpt>
      <trkpt lat="46.4638" lon="4.63757">
        <ele>366.4</ele>
        <time>2017-10-21T12:18:34Z</time>
      </trkpt>
      <trkpt lat="46.46377" lon="4.63759">
        <ele>366.4</ele>
        <time>2017-10-21T12:18:37Z</time>
      </trkpt>
      <trkpt lat="46.46372" lon="4.6377">
        <ele>365.44</ele>
        <time>2017-10-21T12:18:44Z</time>
      </trkpt>
      <trkpt lat="46.46369" lon="4.63775">
        <ele>364.96</ele>
        <time>2017-10-21T12:18:48Z</time>
      </trkpt>
      <trkpt lat="46.46362" lon="4.63787">
        <ele>364.48</ele>
        <time>2017-10-21T12:18:58Z</time>
      </trkpt>
      <trkpt lat="46.46357" lon="4.63796">
        <ele>363.52</ele>
        <time>2017-10-21T12:19:05Z</time>
      </trkpt>
      <trkpt lat="46.46351" lon="4.63805">
        <ele>363.52</ele>
        <time>2017-10-21T12:19:13Z</time>
      </trkpt>
      <trkpt lat="46.46343" lon="4.63815">
        <ele>363.52</ele>
        <time>2017-10-21T12:19:22Z</time>
      </trkpt>
      <trkpt lat="46.46336" lon="4.63825">
        <ele>363.04</ele>
        <time>2017-10-21T12:19:31Z</time>
      </trkpt>
      <trkpt lat="46.46329" lon="4.63833">
        <ele>362.07</ele>
        <time>2017-10-21T12:19:38Z</time>
      </trkpt>
      <trkpt lat="46.46323" lon="4.63838">
        <ele>361.59</ele>
        <time>2017-10-21T12:19:46Z</time>
      </trkpt>
      <trkpt lat="46.46321" lon="4.63839">
        <ele>361.11</ele>
        <time>2017-10-21T12:19:48Z</time>
      </trkpt>
      <trkpt lat="46.46313" lon="4.63844">
        <ele>360.63</ele>
        <time>2017-10-21T12:19:56Z</time>
      </trkpt>
      <trkpt lat="46.46302" lon="4.63848">
        <ele>359.67</ele>
        <time>2017-10-21T12:20:05Z</time>
      </trkpt>
      <trkpt lat="46.463" lon="4.63849">
        <ele>359.67</ele>
        <time>2017-10-21T12:20:07Z</time>
      </trkpt>
      <trkpt lat="46.46291" lon="4.6385">
        <ele>358.71</ele>
        <time>2017-10-21T12:20:15Z</time>
      </trkpt>
      <trkpt lat="46.46283" lon="4.63852">
        <ele>358.23</ele>
        <time>2017-10-21T12:20:22Z</time>
      </trkpt>
      <trkpt lat="46.46282" lon="4.63852">
        <ele>358.23</ele>
        <time>2017-10-21T12:20:23Z</time>
      </trkpt>
      <trkpt lat="46.46279" lon="4.63852">
        <ele>358.23</ele>
        <time>2017-10-21T12:20:25Z</time>
      </trkpt>
      <trkpt lat="46.46276" lon="4.63854">
        <ele>357.75</ele>
        <time>2017-10-21T12:20:28Z</time>
      </trkpt>
      <trkpt lat="46.46269" lon="4.63856">
        <ele>357.27</ele>
        <time>2017-10-21T12:20:35Z</time>
      </trkpt>
      <trkpt lat="46.4626" lon="4.63859">
        <ele>356.31</ele>
        <time>2017-10-21T12:20:44Z</time>
      </trkpt>
      <trkpt lat="46.46252" lon="4.6386">
        <ele>355.83</ele>
        <time>2017-10-21T12:20:50Z</time>
      </trkpt>
      <trkpt lat="46.46248" lon="4.63861">
        <ele>355.83</ele>
        <time>2017-10-21T12:20:53Z</time>
      </trkpt>
      <trkpt lat="46.46243" lon="4.63862">
        <ele>355.34</ele>
        <time>2017-10-21T12:20:57Z</time>
      </trkpt>
      <trkpt lat="46.46236" lon="4.63864">
        <ele>354.86</ele>
        <time>2017-10-21T12:21:04Z</time>
      </trkpt>
      <trkpt lat="46.46233" lon="4.63865">
        <ele>354.86</ele>
        <time>2017-10-21T12:21:07Z</time>
      </trkpt>
      <trkpt lat="46.46228" lon="4.63869">
        <ele>354.38</ele>
        <time>2017-10-21T12:21:12Z</time>
      </trkpt>
      <trkpt lat="46.46217" lon="4.63876">
        <ele>353.42</ele>
        <time>2017-10-21T12:21:21Z</time>
      </trkpt>
      <trkpt lat="46.46209" lon="4.6388">
        <ele>352.94</ele>
        <time>2017-10-21T12:21:28Z</time>
      </trkpt>
      <trkpt lat="46.46201" lon="4.63887">
        <ele>352.46</ele>
        <time>2017-10-21T12:21:35Z</time>
      </trkpt>
      <trkpt lat="46.4619" lon="4.63899">
        <ele>351.98</ele>
        <time>2017-10-21T12:21:47Z</time>
      </trkpt>
      <trkpt lat="46.46188" lon="4.63903">
        <ele>351.5</ele>
        <time>2017-10-21T12:21:52Z</time>
      </trkpt>
      <trkpt lat="46.46185" lon="4.63905">
        <ele>351.5</ele>
        <time>2017-10-21T12:21:55Z</time>
      </trkpt>
      <trkpt lat="46.46182" lon="4.63911">
        <ele>351.02</ele>
        <time>2017-10-21T12:21:59Z</time>
      </trkpt>
      <trkpt lat="46.46174" lon="4.63923">
        <ele>350.06</ele>
        <time>2017-10-21T12:22:09Z</time>
      </trkpt>
      <trkpt lat="46.46167" lon="4.63936">
        <ele>349.1</ele>
        <time>2017-10-21T12:22:18Z</time>
      </trkpt>
      <trkpt lat="46.46166" lon="4.63939">
        <ele>349.1</ele>
        <time>2017-10-21T12:22:20Z</time>
      </trkpt>
      <trkpt lat="46.46159" lon="4.63951">
        <ele>348.13</ele>
        <time>2017-10-21T12:22:30Z</time>
      </trkpt>
      <trkpt lat="46.46152" lon="4.63963">
        <ele>347.65</ele>
        <time>2017-10-21T12:22:39Z</time>
      </trkpt>
      <trkpt lat="46.46144" lon="4.63979">
        <ele>346.21</ele>
        <time>2017-10-21T12:22:51Z</time>
      </trkpt>
      <trkpt lat="46.46137" lon="4.63992">
        <ele>345.73</ele>
        <time>2017-10-21T12:23:00Z</time>
      </trkpt>
      <trkpt lat="46.4613" lon="4.64007">
        <ele>344.77</ele>
        <time>2017-10-21T12:23:11Z</time>
      </trkpt>
      <trkpt lat="46.46124" lon="4.64019">
        <ele>344.29</ele>
        <time>2017-10-21T12:23:20Z</time>
      </trkpt>
      <trkpt lat="46.4612" lon="4.64034">
        <ele>343.81</ele>
        <time>2017-10-21T12:23:29Z</time>
      </trkpt>
      <trkpt lat="46.46118" lon="4.6405">
        <ele>342.85</ele>
        <time>2017-10-21T12:23:38Z</time>
      </trkpt>
      <trkpt lat="46.46119" lon="4.64062">
        <ele>342.37</ele>
        <time>2017-10-21T12:23:46Z</time>
      </trkpt>
      <trkpt lat="46.4612" lon="4.64075">
        <ele>341.41</ele>
        <time>2017-10-21T12:23:55Z</time>
      </trkpt>
      <trkpt lat="46.46122" lon="4.64094">
        <ele>340.44</ele>
        <time>2017-10-21T12:24:06Z</time>
      </trkpt>
      <trkpt lat="46.46124" lon="4.64107">
        <ele>339.96</ele>
        <time>2017-10-21T12:24:15Z</time>
      </trkpt>
      <trkpt lat="46.46124" lon="4.64109">
        <ele>339.96</ele>
        <time>2017-10-21T12:24:22Z</time>
      </trkpt>
      <trkpt lat="46.46125" lon="4.64125">
        <ele>339</ele>
        <time>2017-10-21T12:24:32Z</time>
      </trkpt>
      <trkpt lat="46.46126" lon="4.64131">
        <ele>339</ele>
        <time>2017-10-21T12:24:36Z</time>
      </trkpt>
      <trkpt lat="46.46126" lon="4.64142">
        <ele>338.52</ele>
        <time>2017-10-21T12:24:42Z</time>
      </trkpt>
      <trkpt lat="46.46126" lon="4.64164">
        <ele>337.56</ele>
        <time>2017-10-21T12:24:55Z</time>
      </trkpt>
      <trkpt lat="46.46124" lon="4.6418">
        <ele>337.08</ele>
        <time>2017-10-21T12:25:04Z</time>
      </trkpt>
      <trkpt lat="46.46121" lon="4.64196">
        <ele>336.6</ele>
        <time>2017-10-21T12:25:14Z</time>
      </trkpt>
      <trkpt lat="46.46116" lon="4.6421">
        <ele>336.12</ele>
        <time>2017-10-21T12:25:23Z</time>
      </trkpt>
      <trkpt lat="46.46115" lon="4.64212">
        <ele>336.12</ele>
        <time>2017-10-21T12:25:24Z</time>
      </trkpt>
      <trkpt lat="46.46109" lon="4.64217">
        <ele>335.64</ele>
        <time>2017-10-21T12:25:30Z</time>
      </trkpt>
      <trkpt lat="46.461" lon="4.6422">
        <ele>334.68</ele>
        <time>2017-10-21T12:25:38Z</time>
      </trkpt>
      <trkpt lat="46.46091" lon="4.64224">
        <ele>333.71</ele>
        <time>2017-10-21T12:25:46Z</time>
      </trkpt>
      <trkpt lat="46.46082" lon="4.64227">
        <ele>333.23</ele>
        <time>2017-10-21T12:25:54Z</time>
      </trkpt>
      <trkpt lat="46.46075" lon="4.6423">
        <ele>332.75</ele>
        <time>2017-10-21T12:26:00Z</time>
      </trkpt>
      <trkpt lat="46.46068" lon="4.64232">
        <ele>331.31</ele>
        <time>2017-10-21T12:26:06Z</time>
      </trkpt>
      <trkpt lat="46.46066" lon="4.64233">
        <ele>331.79</ele>
        <time>2017-10-21T12:26:08Z</time>
      </trkpt>
      <trkpt lat="46.46058" lon="4.64237">
        <ele>331.31</ele>
        <time>2017-10-21T12:26:15Z</time>
      </trkpt>
      <trkpt lat="46.46052" lon="4.64241">
        <ele>330.83</ele>
        <time>2017-10-21T12:26:21Z</time>
      </trkpt>
      <trkpt lat="46.46047" lon="4.64241">
        <ele>330.83</ele>
        <time>2017-10-21T12:26:25Z</time>
      </trkpt>
      <trkpt lat="46.4604" lon="4.64243">
        <ele>330.35</ele>
        <time>2017-10-21T12:26:31Z</time>
      </trkpt>
      <trkpt lat="46.46034" lon="4.64246">
        <ele>329.87</ele>
        <time>2017-10-21T12:26:37Z</time>
      </trkpt>
      <trkpt lat="46.46021" lon="4.64253">
        <ele>328.91</ele>
        <time>2017-10-21T12:26:48Z</time>
      </trkpt>
      <trkpt lat="46.46013" lon="4.64257">
        <ele>328.43</ele>
        <time>2017-10-21T12:26:55Z</time>
      </trkpt>
      <trkpt lat="46.46006" lon="4.64261">
        <ele>327.47</ele>
        <time>2017-10-21T12:27:02Z</time>
      </trkpt>
      <trkpt lat="46.45998" lon="4.64269">
        <ele>326.5</ele>
        <time>2017-10-21T12:27:10Z</time>
      </trkpt>
      <trkpt lat="46.45995" lon="4.64272">
        <ele>326.5</ele>
        <time>2017-10-21T12:27:13Z</time>
      </trkpt>
      <trkpt lat="46.4599" lon="4.64281">
        <ele>325.54</ele>
        <time>2017-10-21T12:27:20Z</time>
      </trkpt>
      <trkpt lat="46.45988" lon="4.64283">
        <ele>325.54</ele>
        <time>2017-10-21T12:27:22Z</time>
      </trkpt>
      <trkpt lat="46.45983" lon="4.64288">
        <ele>325.54</ele>
        <time>2017-10-21T12:27:27Z</time>
      </trkpt>
      <trkpt lat="46.45976" lon="4.64296">
        <ele>325.54</ele>
        <time>2017-10-21T12:27:35Z</time>
      </trkpt>
      <trkpt lat="46.45973" lon="4.64299">
        <ele>324.58</ele>
        <time>2017-10-21T12:27:41Z</time>
      </trkpt>
      <trkpt lat="46.45969" lon="4.64306">
        <ele>324.58</ele>
        <time>2017-10-21T12:27:47Z</time>
      </trkpt>
      <trkpt lat="46.45965" lon="4.64314">
        <ele>324.1</ele>
        <time>2017-10-21T12:27:53Z</time>
      </trkpt>
      <trkpt lat="46.45963" lon="4.64319">
        <ele>323.14</ele>
        <time>2017-10-21T12:27:57Z</time>
      </trkpt>
      <trkpt lat="46.45959" lon="4.64328">
        <ele>323.14</ele>
        <time>2017-10-21T12:28:03Z</time>
      </trkpt>
      <trkpt lat="46.45957" lon="4.64338">
        <ele>322.66</ele>
        <time>2017-10-21T12:28:10Z</time>
      </trkpt>
      <trkpt lat="46.45951" lon="4.6435">
        <ele>321.7</ele>
        <time>2017-10-21T12:28:19Z</time>
      </trkpt>
      <trkpt lat="46.4595" lon="4.64358">
        <ele>320.74</ele>
        <time>2017-10-21T12:28:25Z</time>
      </trkpt>
      <trkpt lat="46.45947" lon="4.64365">
        <ele>320.74</ele>
        <time>2017-10-21T12:28:30Z</time>
      </trkpt>
      <trkpt lat="46.45946" lon="4.64372">
        <ele>320.26</ele>
        <time>2017-10-21T12:28:34Z</time>
      </trkpt>
      <trkpt lat="46.45943" lon="4.64378">
        <ele>320.26</ele>
        <time>2017-10-21T12:28:38Z</time>
      </trkpt>
      <trkpt lat="46.45933" lon="4.64392">
        <ele>319.78</ele>
        <time>2017-10-21T12:28:47Z</time>
      </trkpt>
      <trkpt lat="46.45928" lon="4.64403">
        <ele>319.78</ele>
        <time>2017-10-21T12:28:54Z</time>
      </trkpt>
      <trkpt lat="46.45922" lon="4.64414">
        <ele>318.81</ele>
        <time>2017-10-21T12:29:01Z</time>
      </trkpt>
      <trkpt lat="46.4592" lon="4.64425">
        <ele>317.37</ele>
        <time>2017-10-21T12:29:08Z</time>
      </trkpt>
      <trkpt lat="46.45918" lon="4.64436">
        <ele>316.89</ele>
        <time>2017-10-21T12:29:14Z</time>
      </trkpt>
      <trkpt lat="46.45918" lon="4.64437">
        <ele>316.89</ele>
        <time>2017-10-21T12:29:15Z</time>
      </trkpt>
      <trkpt lat="46.45916" lon="4.64441">
        <ele>316.89</ele>
        <time>2017-10-21T12:29:19Z</time>
      </trkpt>
      <trkpt lat="46.45914" lon="4.64445">
        <ele>316.41</ele>
        <time>2017-10-21T12:29:22Z</time>
      </trkpt>
      <trkpt lat="46.45909" lon="4.64459">
        <ele>315.45</ele>
        <time>2017-10-21T12:29:31Z</time>
      </trkpt>
      <trkpt lat="46.45905" lon="4.6447">
        <ele>314.49</ele>
        <time>2017-10-21T12:29:38Z</time>
      </trkpt>
      <trkpt lat="46.45899" lon="4.6448">
        <ele>314.49</ele>
        <time>2017-10-21T12:29:46Z</time>
      </trkpt>
      <trkpt lat="46.45892" lon="4.64493">
        <ele>313.53</ele>
        <time>2017-10-21T12:29:56Z</time>
      </trkpt>
      <trkpt lat="46.45891" lon="4.64494">
        <ele>313.53</ele>
        <time>2017-10-21T12:29:57Z</time>
      </trkpt>
      <trkpt lat="46.45886" lon="4.64509">
        <ele>312.09</ele>
        <time>2017-10-21T12:30:07Z</time>
      </trkpt>
      <trkpt lat="46.4588" lon="4.64521">
        <ele>311.12</ele>
        <time>2017-10-21T12:30:15Z</time>
      </trkpt>
      <trkpt lat="46.45878" lon="4.64524">
        <ele>310.16</ele>
        <time>2017-10-21T12:30:18Z</time>
      </trkpt>
      <trkpt lat="46.45871" lon="4.64535">
        <ele>308.72</ele>
        <time>2017-10-21T12:30:26Z</time>
      </trkpt>
      <trkpt lat="46.45868" lon="4.64538">
        <ele>309.68</ele>
        <time>2017-10-21T12:30:30Z</time>
      </trkpt>
      <trkpt lat="46.45862" lon="4.64545">
        <ele>309.2</ele>
        <time>2017-10-21T12:30:36Z</time>
      </trkpt>
      <trkpt lat="46.45858" lon="4.6455">
        <ele>308.24</ele>
        <time>2017-10-21T12:30:41Z</time>
      </trkpt>
      <trkpt lat="46.45852" lon="4.64557">
        <ele>307.76</ele>
        <time>2017-10-21T12:30:48Z</time>
      </trkpt>
      <trkpt lat="46.45844" lon="4.6456">
        <ele>307.76</ele>
        <time>2017-10-21T12:30:55Z</time>
      </trkpt>
      <trkpt lat="46.45836" lon="4.64563">
        <ele>307.76</ele>
        <time>2017-10-21T12:31:02Z</time>
      </trkpt>
      <trkpt lat="46.45828" lon="4.64565">
        <ele>306.8</ele>
        <time>2017-10-21T12:31:09Z</time>
      </trkpt>
      <trkpt lat="46.45826" lon="4.64566">
        <ele>306.8</ele>
        <time>2017-10-21T12:31:11Z</time>
      </trkpt>
      <trkpt lat="46.45823" lon="4.64568">
        <ele>306.32</ele>
        <time>2017-10-21T12:31:14Z</time>
      </trkpt>
      <trkpt lat="46.45821" lon="4.64568">
        <ele>305.84</ele>
        <time>2017-10-21T12:31:16Z</time>
      </trkpt>
      <trkpt lat="46.45815" lon="4.6457">
        <ele>305.84</ele>
        <time>2017-10-21T12:31:20Z</time>
      </trkpt>
      <trkpt lat="46.4581" lon="4.64572">
        <ele>305.36</ele>
        <time>2017-10-21T12:31:24Z</time>
      </trkpt>
      <trkpt lat="46.45805" lon="4.64575">
        <ele>305.36</ele>
        <time>2017-10-21T12:31:29Z</time>
      </trkpt>
      <trkpt lat="46.45797" lon="4.64575">
        <ele>304.39</ele>
        <time>2017-10-21T12:31:34Z</time>
      </trkpt>
      <trkpt lat="46.45792" lon="4.64578">
        <ele>303.91</ele>
        <time>2017-10-21T12:31:39Z</time>
      </trkpt>
      <trkpt lat="46.45791" lon="4.6458">
        <ele>303.43</ele>
        <time>2017-10-21T12:31:41Z</time>
      </trkpt>
      <trkpt lat="46.45781" lon="4.64582">
        <ele>303.43</ele>
        <time>2017-10-21T12:31:48Z</time>
      </trkpt>
      <trkpt lat="46.45774" lon="4.64585">
        <ele>302.47</ele>
        <time>2017-10-21T12:31:55Z</time>
      </trkpt>
      <trkpt lat="46.45773" lon="4.64587">
        <ele>302.47</ele>
        <time>2017-10-21T12:31:57Z</time>
      </trkpt>
      <trkpt lat="46.45766" lon="4.64588">
        <ele>302.47</ele>
        <time>2017-10-21T12:32:03Z</time>
      </trkpt>
      <trkpt lat="46.4576" lon="4.6459">
        <ele>302.47</ele>
        <time>2017-10-21T12:32:09Z</time>
      </trkpt>
      <trkpt lat="46.4575" lon="4.64592">
        <ele>301.51</ele>
        <time>2017-10-21T12:32:17Z</time>
      </trkpt>
      <trkpt lat="46.45749" lon="4.64592">
        <ele>301.51</ele>
        <time>2017-10-21T12:32:18Z</time>
      </trkpt>
      <trkpt lat="46.45745" lon="4.64595">
        <ele>301.51</ele>
        <time>2017-10-21T12:32:23Z</time>
      </trkpt>
      <trkpt lat="46.45739" lon="4.64599">
        <ele>300.55</ele>
        <time>2017-10-21T12:32:29Z</time>
      </trkpt>
      <trkpt lat="46.45733" lon="4.64604">
        <ele>300.55</ele>
        <time>2017-10-21T12:32:34Z</time>
      </trkpt>
      <trkpt lat="46.45728" lon="4.64608">
        <ele>299.59</ele>
        <time>2017-10-21T12:32:40Z</time>
      </trkpt>
      <trkpt lat="46.4572" lon="4.64615">
        <ele>299.11</ele>
        <time>2017-10-21T12:32:47Z</time>
      </trkpt>
      <trkpt lat="46.45716" lon="4.64619">
        <ele>299.11</ele>
        <time>2017-10-21T12:32:51Z</time>
      </trkpt>
      <trkpt lat="46.45712" lon="4.64623">
        <ele>299.11</ele>
        <time>2017-10-21T12:32:55Z</time>
      </trkpt>
      <trkpt lat="46.45703" lon="4.64633">
        <ele>298.15</ele>
        <time>2017-10-21T12:33:03Z</time>
      </trkpt>
      <trkpt lat="46.457" lon="4.64652">
        <ele>298.15</ele>
        <time>2017-10-21T12:33:13Z</time>
      </trkpt>
      <trkpt lat="46.457" lon="4.64658">
        <ele>297.67</ele>
        <time>2017-10-21T12:33:17Z</time>
      </trkpt>
      <trkpt lat="46.45703" lon="4.64665">
        <ele>296.7</ele>
        <time>2017-10-21T12:33:23Z</time>
      </trkpt>
      <trkpt lat="46.45705" lon="4.64669">
        <ele>295.74</ele>
        <time>2017-10-21T12:33:26Z</time>
      </trkpt>
      <trkpt lat="46.4571" lon="4.64679">
        <ele>295.26</ele>
        <time>2017-10-21T12:33:35Z</time>
      </trkpt>
      <trkpt lat="46.45714" lon="4.64689">
        <ele>295.74</ele>
        <time>2017-10-21T12:33:41Z</time>
      </trkpt>
      <trkpt lat="46.45719" lon="4.64697">
        <ele>294.78</ele>
        <time>2017-10-21T12:33:47Z</time>
      </trkpt>
      <trkpt lat="46.45725" lon="4.64711">
        <ele>294.3</ele>
        <time>2017-10-21T12:33:57Z</time>
      </trkpt>
      <trkpt lat="46.45728" lon="4.64719">
        <ele>293.82</ele>
        <time>2017-10-21T12:34:03Z</time>
      </trkpt>
      <trkpt lat="46.4573" lon="4.64727">
        <ele>293.82</ele>
        <time>2017-10-21T12:34:08Z</time>
      </trkpt>
      <trkpt lat="46.45732" lon="4.64733">
        <ele>293.34</ele>
        <time>2017-10-21T12:34:12Z</time>
      </trkpt>
      <trkpt lat="46.45733" lon="4.64738">
        <ele>293.82</ele>
        <time>2017-10-21T12:34:15Z</time>
      </trkpt>
      <trkpt lat="46.45735" lon="4.64745">
        <ele>291.42</ele>
        <time>2017-10-21T12:34:19Z</time>
      </trkpt>
      <trkpt lat="46.45736" lon="4.6475">
        <ele>292.86</ele>
        <time>2017-10-21T12:34:26Z</time>
      </trkpt>
      <trkpt lat="46.45736" lon="4.64752">
        <ele>293.34</ele>
        <time>2017-10-21T12:34:37Z</time>
      </trkpt>
      <trkpt lat="46.45736" lon="4.64753">
        <ele>292.38</ele>
        <time>2017-10-21T12:34:46Z</time>
      </trkpt>
      <trkpt lat="46.45736" lon="4.64753">
        <ele>292.38</ele>
        <time>2017-10-21T12:34:57Z</time>
      </trkpt>
      <trkpt lat="46.45736" lon="4.64753">
        <ele>291.9</ele>
        <time>2017-10-21T12:35:07Z</time>
      </trkpt>
      <trkpt lat="46.45736" lon="4.64753">
        <ele>292.38</ele>
        <time>2017-10-21T12:35:19Z</time>
      </trkpt>
      <trkpt lat="46.45736" lon="4.64753">
        <ele>291.9</ele>
        <time>2017-10-21T12:35:28Z</time>
      </trkpt>
      <trkpt lat="46.45736" lon="4.64753">
        <ele>291.9</ele>
        <time>2017-10-21T12:35:36Z</time>
      </trkpt>
      <trkpt lat="46.45737" lon="4.64752">
        <ele>291.9</ele>
        <time>2017-10-21T12:35:48Z</time>
      </trkpt>
      <trkpt lat="46.45736" lon="4.64754">
        <ele>291.42</ele>
        <time>2017-10-21T12:35:57Z</time>
      </trkpt>
      <trkpt lat="46.45736" lon="4.64754">
        <ele>290.94</ele>
        <time>2017-10-21T12:36:08Z</time>
      </trkpt>
      <trkpt lat="46.45736" lon="4.64754">
        <ele>291.42</ele>
        <time>2017-10-21T12:36:20Z</time>
      </trkpt>
      <trkpt lat="46.45736" lon="4.64755">
        <ele>291.9</ele>
        <time>2017-10-21T12:36:28Z</time>
      </trkpt>
      <trkpt lat="46.45736" lon="4.64755">
        <ele>292.38</ele>
        <time>2017-10-21T12:36:34Z</time>
      </trkpt>
      <trkpt lat="46.45736" lon="4.64756">
        <ele>291.9</ele>
        <time>2017-10-21T12:36:35Z</time>
      </trkpt>
      <trkpt lat="46.45737" lon="4.64759">
        <ele>291.9</ele>
        <time>2017-10-21T12:36:38Z</time>
      </trkpt>
      <trkpt lat="46.45737" lon="4.64766">
        <ele>290.94</ele>
        <time>2017-10-21T12:36:44Z</time>
      </trkpt>
      <trkpt lat="46.45738" lon="4.64776">
        <ele>289.97</ele>
        <time>2017-10-21T12:36:51Z</time>
      </trkpt>
      <trkpt lat="46.45738" lon="4.64779">
        <ele>289.97</ele>
        <time>2017-10-21T12:36:53Z</time>
      </trkpt>
      <trkpt lat="46.45738" lon="4.64782">
        <ele>289.97</ele>
        <time>2017-10-21T12:36:55Z</time>
      </trkpt>
      <trkpt lat="46.45739" lon="4.64801">
        <ele>289.01</ele>
        <time>2017-10-21T12:37:06Z</time>
      </trkpt>
      <trkpt lat="46.45739" lon="4.64809">
        <ele>289.01</ele>
        <time>2017-10-21T12:37:11Z</time>
      </trkpt>
      <trkpt lat="46.45738" lon="4.64822">
        <ele>288.53</ele>
        <time>2017-10-21T12:37:20Z</time>
      </trkpt>
      <trkpt lat="46.45735" lon="4.64829">
        <ele>288.05</ele>
        <time>2017-10-21T12:37:25Z</time>
      </trkpt>
      <trkpt lat="46.45728" lon="4.64838">
        <ele>287.09</ele>
        <time>2017-10-21T12:37:33Z</time>
      </trkpt>
      <trkpt lat="46.4572" lon="4.64842">
        <ele>286.61</ele>
        <time>2017-10-21T12:37:39Z</time>
      </trkpt>
      <trkpt lat="46.4571" lon="4.64833">
        <ele>285.17</ele>
        <time>2017-10-21T12:37:50Z</time>
      </trkpt>
      <trkpt lat="46.45708" lon="4.6483">
        <ele>285.17</ele>
        <time>2017-10-21T12:37:53Z</time>
      </trkpt>
      <trkpt lat="46.45707" lon="4.64821">
        <ele>284.69</ele>
        <time>2017-10-21T12:38:01Z</time>
      </trkpt>
      <trkpt lat="46.45705" lon="4.64816">
        <ele>284.21</ele>
        <time>2017-10-21T12:38:07Z</time>
      </trkpt>
      <trkpt lat="46.45702" lon="4.64807">
        <ele>283.73</ele>
        <time>2017-10-21T12:38:13Z</time>
      </trkpt>
      <trkpt lat="46.45698" lon="4.64799">
        <ele>283.25</ele>
        <time>2017-10-21T12:38:19Z</time>
      </trkpt>
      <trkpt lat="46.45695" lon="4.64789">
        <ele>282.77</ele>
        <time>2017-10-21T12:38:25Z</time>
      </trkpt>
      <trkpt lat="46.45692" lon="4.64781">
        <ele>282.77</ele>
        <time>2017-10-21T12:38:30Z</time>
      </trkpt>
      <trkpt lat="46.45686" lon="4.64765">
        <ele>282.28</ele>
        <time>2017-10-21T12:38:39Z</time>
      </trkpt>
      <trkpt lat="46.45685" lon="4.64764">
        <ele>282.28</ele>
        <time>2017-10-21T12:38:40Z</time>
      </trkpt>
      <trkpt lat="46.45683" lon="4.64763">
        <ele>282.28</ele>
        <time>2017-10-21T12:38:42Z</time>
      </trkpt>
      <trkpt lat="46.45676" lon="4.64752">
        <ele>281.8</ele>
        <time>2017-10-21T12:38:51Z</time>
      </trkpt>
      <trkpt lat="46.45676" lon="4.64748">
        <ele>281.32</ele>
        <time>2017-10-21T12:38:53Z</time>
      </trkpt>
      <trkpt lat="46.45671" lon="4.64741">
        <ele>280.84</ele>
        <time>2017-10-21T12:38:58Z</time>
      </trkpt>
      <trkpt lat="46.45665" lon="4.64728">
        <ele>280.36</ele>
        <time>2017-10-21T12:39:06Z</time>
      </trkpt>
      <trkpt lat="46.4566" lon="4.64722">
        <ele>279.88</ele>
        <time>2017-10-21T12:39:11Z</time>
      </trkpt>
      <trkpt lat="46.45654" lon="4.64714">
        <ele>279.4</ele>
        <time>2017-10-21T12:39:18Z</time>
      </trkpt>
      <trkpt lat="46.45645" lon="4.64709">
        <ele>277.96</ele>
        <time>2017-10-21T12:39:27Z</time>
      </trkpt>
      <trkpt lat="46.45639" lon="4.64705">
        <ele>277.96</ele>
        <time>2017-10-21T12:39:32Z</time>
      </trkpt>
      <trkpt lat="46.4563" lon="4.64699">
        <ele>277</ele>
        <time>2017-10-21T12:39:41Z</time>
      </trkpt>
      <trkpt lat="46.45627" lon="4.64698">
        <ele>277</ele>
        <time>2017-10-21T12:39:44Z</time>
      </trkpt>
      <trkpt lat="46.45622" lon="4.647">
        <ele>276.04</ele>
        <time>2017-10-21T12:39:48Z</time>
      </trkpt>
      <trkpt lat="46.45614" lon="4.647">
        <ele>275.07</ele>
        <time>2017-10-21T12:39:54Z</time>
      </trkpt>
      <trkpt lat="46.45605" lon="4.64705">
        <ele>275.07</ele>
        <time>2017-10-21T12:40:02Z</time>
      </trkpt>
      <trkpt lat="46.45602" lon="4.64708">
        <ele>275.07</ele>
        <time>2017-10-21T12:40:07Z</time>
      </trkpt>
      <trkpt lat="46.45597" lon="4.64713">
        <ele>275.07</ele>
        <time>2017-10-21T12:40:12Z</time>
      </trkpt>
      <trkpt lat="46.45594" lon="4.64715">
        <ele>275.07</ele>
        <time>2017-10-21T12:40:15Z</time>
      </trkpt>
      <trkpt lat="46.45591" lon="4.64718">
        <ele>274.59</ele>
        <time>2017-10-21T12:40:18Z</time>
      </trkpt>
      <trkpt lat="46.4559" lon="4.64721">
        <ele>274.11</ele>
        <time>2017-10-21T12:40:20Z</time>
      </trkpt>
      <trkpt lat="46.45587" lon="4.64725">
        <ele>274.11</ele>
        <time>2017-10-21T12:40:24Z</time>
      </trkpt>
      <trkpt lat="46.45583" lon="4.64734">
        <ele>274.11</ele>
        <time>2017-10-21T12:40:30Z</time>
      </trkpt>
      <trkpt lat="46.45585" lon="4.64747">
        <ele>273.63</ele>
        <time>2017-10-21T12:40:37Z</time>
      </trkpt>
      <trkpt lat="46.45588" lon="4.64757">
        <ele>274.11</ele>
        <time>2017-10-21T12:40:43Z</time>
      </trkpt>
      <trkpt lat="46.45589" lon="4.64759">
        <ele>273.63</ele>
        <time>2017-10-21T12:40:45Z</time>
      </trkpt>
      <trkpt lat="46.45589" lon="4.64767">
        <ele>273.63</ele>
        <time>2017-10-21T12:40:50Z</time>
      </trkpt>
      <trkpt lat="46.45589" lon="4.64772">
        <ele>273.15</ele>
        <time>2017-10-21T12:40:53Z</time>
      </trkpt>
      <trkpt lat="46.4558" lon="4.64785">
        <ele>273.15</ele>
        <time>2017-10-21T12:41:02Z</time>
      </trkpt>
      <trkpt lat="46.45578" lon="4.64788">
        <ele>273.15</ele>
        <time>2017-10-21T12:41:04Z</time>
      </trkpt>
      <trkpt lat="46.45578" lon="4.64801">
        <ele>272.67</ele>
        <time>2017-10-21T12:41:12Z</time>
      </trkpt>
      <trkpt lat="46.45578" lon="4.64806">
        <ele>273.15</ele>
        <time>2017-10-21T12:41:16Z</time>
      </trkpt>
      <trkpt lat="46.45578" lon="4.6481">
        <ele>272.67</ele>
        <time>2017-10-21T12:41:19Z</time>
      </trkpt>
      <trkpt lat="46.4558" lon="4.64817">
        <ele>273.15</ele>
        <time>2017-10-21T12:41:25Z</time>
      </trkpt>
      <trkpt lat="46.45579" lon="4.6482">
        <ele>273.15</ele>
        <time>2017-10-21T12:41:27Z</time>
      </trkpt>
      <trkpt lat="46.45577" lon="4.64831">
        <ele>273.15</ele>
        <time>2017-10-21T12:41:34Z</time>
      </trkpt>
      <trkpt lat="46.45577" lon="4.64836">
        <ele>273.15</ele>
        <time>2017-10-21T12:41:37Z</time>
      </trkpt>
      <trkpt lat="46.45577" lon="4.6485">
        <ele>273.15</ele>
        <time>2017-10-21T12:41:46Z</time>
      </trkpt>
      <trkpt lat="46.45582" lon="4.64863">
        <ele>273.15</ele>
        <time>2017-10-21T12:41:54Z</time>
      </trkpt>
      <trkpt lat="46.45587" lon="4.6487">
        <ele>273.15</ele>
        <time>2017-10-21T12:41:59Z</time>
      </trkpt>
      <trkpt lat="46.45588" lon="4.64872">
        <ele>273.63</ele>
        <time>2017-10-21T12:42:00Z</time>
      </trkpt>
      <trkpt lat="46.45591" lon="4.64886">
        <ele>273.63</ele>
        <time>2017-10-21T12:42:07Z</time>
      </trkpt>
      <trkpt lat="46.4559" lon="4.64894">
        <ele>273.63</ele>
        <time>2017-10-21T12:42:12Z</time>
      </trkpt>
      <trkpt lat="46.45592" lon="4.64903">
        <ele>273.63</ele>
        <time>2017-10-21T12:42:16Z</time>
      </trkpt>
      <trkpt lat="46.45591" lon="4.6491">
        <ele>274.11</ele>
        <time>2017-10-21T12:42:20Z</time>
      </trkpt>
      <trkpt lat="46.4559" lon="4.64913">
        <ele>274.11</ele>
        <time>2017-10-21T12:42:22Z</time>
      </trkpt>
      <trkpt lat="46.45586" lon="4.64916">
        <ele>274.11</ele>
        <time>2017-10-21T12:42:25Z</time>
      </trkpt>
      <trkpt lat="46.45585" lon="4.64919">
        <ele>274.11</ele>
        <time>2017-10-21T12:42:27Z</time>
      </trkpt>
      <trkpt lat="46.45584" lon="4.64929">
        <ele>274.11</ele>
        <time>2017-10-21T12:42:34Z</time>
      </trkpt>
      <trkpt lat="46.45588" lon="4.64941">
        <ele>273.15</ele>
        <time>2017-10-21T12:42:44Z</time>
      </trkpt>
      <trkpt lat="46.4559" lon="4.64945">
        <ele>272.67</ele>
        <time>2017-10-21T12:42:53Z</time>
      </trkpt>
      <trkpt lat="46.4559" lon="4.64946">
        <ele>272.19</ele>
        <time>2017-10-21T12:43:00Z</time>
      </trkpt>
      <trkpt lat="46.4559" lon="4.64947">
        <ele>272.19</ele>
        <time>2017-10-21T12:43:08Z</time>
      </trkpt>
      <trkpt lat="46.4559" lon="4.64948">
        <ele>272.67</ele>
        <time>2017-10-21T12:43:16Z</time>
      </trkpt>
      <trkpt lat="46.45591" lon="4.6495">
        <ele>272.19</ele>
        <time>2017-10-21T12:43:25Z</time>
      </trkpt>
      <trkpt lat="46.45591" lon="4.64951">
        <ele>272.67</ele>
        <time>2017-10-21T12:43:39Z</time>
      </trkpt>
      <trkpt lat="46.45591" lon="4.64951">
        <ele>272.19</ele>
        <time>2017-10-21T12:43:48Z</time>
      </trkpt>
      <trkpt lat="46.45591" lon="4.64951">
        <ele>273.15</ele>
        <time>2017-10-21T12:43:55Z</time>
      </trkpt>
      <trkpt lat="46.45594" lon="4.64946">
        <ele>273.63</ele>
        <time>2017-10-21T12:44:03Z</time>
      </trkpt>
      <trkpt lat="46.45599" lon="4.64944">
        <ele>273.63</ele>
        <time>2017-10-21T12:44:09Z</time>
      </trkpt>
      <trkpt lat="46.45602" lon="4.64945">
        <ele>273.63</ele>
        <time>2017-10-21T12:44:14Z</time>
      </trkpt>
      <trkpt lat="46.45607" lon="4.64951">
        <ele>273.63</ele>
        <time>2017-10-21T12:44:22Z</time>
      </trkpt>
      <trkpt lat="46.45612" lon="4.64953">
        <ele>273.15</ele>
        <time>2017-10-21T12:44:29Z</time>
      </trkpt>
      <trkpt lat="46.45621" lon="4.64954">
        <ele>274.11</ele>
        <time>2017-10-21T12:44:38Z</time>
      </trkpt>
      <trkpt lat="46.45624" lon="4.64955">
        <ele>274.11</ele>
        <time>2017-10-21T12:44:41Z</time>
      </trkpt>
      <trkpt lat="46.45629" lon="4.64957">
        <ele>274.59</ele>
        <time>2017-10-21T12:44:47Z</time>
      </trkpt>
      <trkpt lat="46.45634" lon="4.6496">
        <ele>274.59</ele>
        <time>2017-10-21T12:44:53Z</time>
      </trkpt>
      <trkpt lat="46.45639" lon="4.64961">
        <ele>275.07</ele>
        <time>2017-10-21T12:44:58Z</time>
      </trkpt>
      <trkpt lat="46.45645" lon="4.64969">
        <ele>276.52</ele>
        <time>2017-10-21T12:45:07Z</time>
      </trkpt>
      <trkpt lat="46.45648" lon="4.64977">
        <ele>277.48</ele>
        <time>2017-10-21T12:45:17Z</time>
      </trkpt>
      <trkpt lat="46.4565" lon="4.64979">
        <ele>277</ele>
        <time>2017-10-21T12:45:20Z</time>
      </trkpt>
      <trkpt lat="46.45654" lon="4.64987">
        <ele>277.48</ele>
        <time>2017-10-21T12:45:27Z</time>
      </trkpt>
      <trkpt lat="46.45655" lon="4.64988">
        <ele>278.92</ele>
        <time>2017-10-21T12:45:31Z</time>
      </trkpt>
      <trkpt lat="46.45656" lon="4.64989">
        <ele>278.44</ele>
        <time>2017-10-21T12:45:33Z</time>
      </trkpt>
      <trkpt lat="46.45662" lon="4.64989">
        <ele>279.4</ele>
        <time>2017-10-21T12:45:39Z</time>
      </trkpt>
      <trkpt lat="46.45666" lon="4.64992">
        <ele>279.88</ele>
        <time>2017-10-21T12:45:45Z</time>
      </trkpt>
      <trkpt lat="46.45667" lon="4.64996">
        <ele>280.84</ele>
        <time>2017-10-21T12:45:48Z</time>
      </trkpt>
      <trkpt lat="46.45671" lon="4.65005">
        <ele>284.21</ele>
        <time>2017-10-21T12:45:59Z</time>
      </trkpt>
      <trkpt lat="46.45675" lon="4.65007">
        <ele>285.65</ele>
        <time>2017-10-21T12:46:05Z</time>
      </trkpt>
      <trkpt lat="46.45681" lon="4.65003">
        <ele>286.61</ele>
        <time>2017-10-21T12:46:13Z</time>
      </trkpt>
      <trkpt lat="46.45681" lon="4.65002">
        <ele>287.09</ele>
        <time>2017-10-21T12:46:14Z</time>
      </trkpt>
      <trkpt lat="46.45684" lon="4.65002">
        <ele>287.09</ele>
        <time>2017-10-21T12:46:20Z</time>
      </trkpt>
      <trkpt lat="46.45686" lon="4.65002">
        <ele>288.05</ele>
        <time>2017-10-21T12:46:25Z</time>
      </trkpt>
      <trkpt lat="46.45688" lon="4.65">
        <ele>288.53</ele>
        <time>2017-10-21T12:46:30Z</time>
      </trkpt>
      <trkpt lat="46.45689" lon="4.64999">
        <ele>289.97</ele>
        <time>2017-10-21T12:46:33Z</time>
      </trkpt>
      <trkpt lat="46.4569" lon="4.64996">
        <ele>290.46</ele>
        <time>2017-10-21T12:46:35Z</time>
      </trkpt>
      <trkpt lat="46.45691" lon="4.6499">
        <ele>290.94</ele>
        <time>2017-10-21T12:46:39Z</time>
      </trkpt>
      <trkpt lat="46.45691" lon="4.64988">
        <ele>291.9</ele>
        <time>2017-10-21T12:46:41Z</time>
      </trkpt>
      <trkpt lat="46.45696" lon="4.64979">
        <ele>292.38</ele>
        <time>2017-10-21T12:46:48Z</time>
      </trkpt>
      <trkpt lat="46.45696" lon="4.64976">
        <ele>292.38</ele>
        <time>2017-10-21T12:46:50Z</time>
      </trkpt>
      <trkpt lat="46.45704" lon="4.64968">
        <ele>293.82</ele>
        <time>2017-10-21T12:46:59Z</time>
      </trkpt>
      <trkpt lat="46.45709" lon="4.64965">
        <ele>295.26</ele>
        <time>2017-10-21T12:47:06Z</time>
      </trkpt>
      <trkpt lat="46.45717" lon="4.64963">
        <ele>296.7</ele>
        <time>2017-10-21T12:47:14Z</time>
      </trkpt>
      <trkpt lat="46.45723" lon="4.6496">
        <ele>297.18</ele>
        <time>2017-10-21T12:47:21Z</time>
      </trkpt>
      <trkpt lat="46.45727" lon="4.64957">
        <ele>298.15</ele>
        <time>2017-10-21T12:47:27Z</time>
      </trkpt>
      <trkpt lat="46.45733" lon="4.64954">
        <ele>300.07</ele>
        <time>2017-10-21T12:47:33Z</time>
      </trkpt>
      <trkpt lat="46.45738" lon="4.64952">
        <ele>300.55</ele>
        <time>2017-10-21T12:47:39Z</time>
      </trkpt>
      <trkpt lat="46.45745" lon="4.6495">
        <ele>301.51</ele>
        <time>2017-10-21T12:47:46Z</time>
      </trkpt>
      <trkpt lat="46.45746" lon="4.64951">
        <ele>301.03</ele>
        <time>2017-10-21T12:47:48Z</time>
      </trkpt>
      <trkpt lat="46.45752" lon="4.64953">
        <ele>301.51</ele>
        <time>2017-10-21T12:47:53Z</time>
      </trkpt>
      <trkpt lat="46.45757" lon="4.64959">
        <ele>303.91</ele>
        <time>2017-10-21T12:48:00Z</time>
      </trkpt>
      <trkpt lat="46.45763" lon="4.64964">
        <ele>304.88</ele>
        <time>2017-10-21T12:48:08Z</time>
      </trkpt>
      <trkpt lat="46.45769" lon="4.64969">
        <ele>307.28</ele>
        <time>2017-10-21T12:48:15Z</time>
      </trkpt>
      <trkpt lat="46.45775" lon="4.64978">
        <ele>307.28</ele>
        <time>2017-10-21T12:48:23Z</time>
      </trkpt>
      <trkpt lat="46.4578" lon="4.6499">
        <ele>308.24</ele>
        <time>2017-10-21T12:48:33Z</time>
      </trkpt>
      <trkpt lat="46.45783" lon="4.65">
        <ele>307.76</ele>
        <time>2017-10-21T12:48:41Z</time>
      </trkpt>
      <trkpt lat="46.45785" lon="4.65003">
        <ele>308.24</ele>
        <time>2017-10-21T12:48:43Z</time>
      </trkpt>
      <trkpt lat="46.45788" lon="4.65013">
        <ele>308.24</ele>
        <time>2017-10-21T12:48:49Z</time>
      </trkpt>
      <trkpt lat="46.45791" lon="4.65018">
        <ele>308.24</ele>
        <time>2017-10-21T12:48:56Z</time>
      </trkpt>
      <trkpt lat="46.45791" lon="4.65019">
        <ele>308.24</ele>
        <time>2017-10-21T12:48:59Z</time>
      </trkpt>
      <trkpt lat="46.45793" lon="4.65025">
        <ele>308.24</ele>
        <time>2017-10-21T12:49:03Z</time>
      </trkpt>
      <trkpt lat="46.45793" lon="4.65032">
        <ele>308.24</ele>
        <time>2017-10-21T12:49:10Z</time>
      </trkpt>
      <trkpt lat="46.45793" lon="4.65041">
        <ele>307.28</ele>
        <time>2017-10-21T12:49:18Z</time>
      </trkpt>
      <trkpt lat="46.45795" lon="4.65053">
        <ele>307.28</ele>
        <time>2017-10-21T12:49:26Z</time>
      </trkpt>
      <trkpt lat="46.45797" lon="4.65069">
        <ele>306.8</ele>
        <time>2017-10-21T12:49:34Z</time>
      </trkpt>
      <trkpt lat="46.458" lon="4.65079">
        <ele>306.32</ele>
        <time>2017-10-21T12:49:39Z</time>
      </trkpt>
      <trkpt lat="46.458" lon="4.6508">
        <ele>306.32</ele>
        <time>2017-10-21T12:49:41Z</time>
      </trkpt>
      <trkpt lat="46.45801" lon="4.65085">
        <ele>306.8</ele>
        <time>2017-10-21T12:49:45Z</time>
      </trkpt>
      <trkpt lat="46.45802" lon="4.65089">
        <ele>307.28</ele>
        <time>2017-10-21T12:49:49Z</time>
      </trkpt>
      <trkpt lat="46.45804" lon="4.65099">
        <ele>306.8</ele>
        <time>2017-10-21T12:49:55Z</time>
      </trkpt>
      <trkpt lat="46.45807" lon="4.65112">
        <ele>305.84</ele>
        <time>2017-10-21T12:50:04Z</time>
      </trkpt>
      <trkpt lat="46.4581" lon="4.65124">
        <ele>304.88</ele>
        <time>2017-10-21T12:50:12Z</time>
      </trkpt>
      <trkpt lat="46.45812" lon="4.6513">
        <ele>305.36</ele>
        <time>2017-10-21T12:50:16Z</time>
      </trkpt>
      <trkpt lat="46.45816" lon="4.65139">
        <ele>304.88</ele>
        <time>2017-10-21T12:50:22Z</time>
      </trkpt>
      <trkpt lat="46.45821" lon="4.65148">
        <ele>305.36</ele>
        <time>2017-10-21T12:50:29Z</time>
      </trkpt>
      <trkpt lat="46.45826" lon="4.65155">
        <ele>306.32</ele>
        <time>2017-10-21T12:50:35Z</time>
      </trkpt>
      <trkpt lat="46.45833" lon="4.65164">
        <ele>305.36</ele>
        <time>2017-10-21T12:50:41Z</time>
      </trkpt>
      <trkpt lat="46.45839" lon="4.65168">
        <ele>304.88</ele>
        <time>2017-10-21T12:50:47Z</time>
      </trkpt>
      <trkpt lat="46.45844" lon="4.65173">
        <ele>305.36</ele>
        <time>2017-10-21T12:50:53Z</time>
      </trkpt>
      <trkpt lat="46.45847" lon="4.65174">
        <ele>306.8</ele>
        <time>2017-10-21T12:50:56Z</time>
      </trkpt>
      <trkpt lat="46.45853" lon="4.65179">
        <ele>306.32</ele>
        <time>2017-10-21T12:51:03Z</time>
      </trkpt>
      <trkpt lat="46.45858" lon="4.65181">
        <ele>306.32</ele>
        <time>2017-10-21T12:51:07Z</time>
      </trkpt>
      <trkpt lat="46.45862" lon="4.65184">
        <ele>307.28</ele>
        <time>2017-10-21T12:51:11Z</time>
      </trkpt>
      <trkpt lat="46.45864" lon="4.65185">
        <ele>307.76</ele>
        <time>2017-10-21T12:51:13Z</time>
      </trkpt>
      <trkpt lat="46.45873" lon="4.65194">
        <ele>307.76</ele>
        <time>2017-10-21T12:51:21Z</time>
      </trkpt>
      <trkpt lat="46.45883" lon="4.65199">
        <ele>307.28</ele>
        <time>2017-10-21T12:51:28Z</time>
      </trkpt>
      <trkpt lat="46.45891" lon="4.65205">
        <ele>307.76</ele>
        <time>2017-10-21T12:51:36Z</time>
      </trkpt>
      <trkpt lat="46.459" lon="4.65211">
        <ele>307.76</ele>
        <time>2017-10-21T12:51:44Z</time>
      </trkpt>
      <trkpt lat="46.45911" lon="4.65217">
        <ele>308.24</ele>
        <time>2017-10-21T12:51:53Z</time>
      </trkpt>
      <trkpt lat="46.45914" lon="4.65221">
        <ele>308.24</ele>
        <time>2017-10-21T12:51:57Z</time>
      </trkpt>
      <trkpt lat="46.45924" lon="4.65225">
        <ele>309.2</ele>
        <time>2017-10-21T12:52:05Z</time>
      </trkpt>
      <trkpt lat="46.45925" lon="4.65226">
        <ele>309.2</ele>
        <time>2017-10-21T12:52:06Z</time>
      </trkpt>
      <trkpt lat="46.45936" lon="4.65235">
        <ele>309.2</ele>
        <time>2017-10-21T12:52:15Z</time>
      </trkpt>
      <trkpt lat="46.45943" lon="4.6524">
        <ele>309.68</ele>
        <time>2017-10-21T12:52:21Z</time>
      </trkpt>
      <trkpt lat="46.45944" lon="4.65241">
        <ele>309.68</ele>
        <time>2017-10-21T12:52:22Z</time>
      </trkpt>
      <trkpt lat="46.4595" lon="4.65246">
        <ele>311.12</ele>
        <time>2017-10-21T12:52:29Z</time>
      </trkpt>
      <trkpt lat="46.4595" lon="4.65246">
        <ele>311.12</ele>
        <time>2017-10-21T12:52:30Z</time>
      </trkpt>
      <trkpt lat="46.45958" lon="4.65249">
        <ele>311.6</ele>
        <time>2017-10-21T12:52:37Z</time>
      </trkpt>
      <trkpt lat="46.45964" lon="4.65253">
        <ele>311.6</ele>
        <time>2017-10-21T12:52:43Z</time>
      </trkpt>
      <trkpt lat="46.45968" lon="4.65256">
        <ele>312.57</ele>
        <time>2017-10-21T12:52:46Z</time>
      </trkpt>
      <trkpt lat="46.45977" lon="4.65262">
        <ele>313.05</ele>
        <time>2017-10-21T12:52:54Z</time>
      </trkpt>
      <trkpt lat="46.45986" lon="4.65267">
        <ele>313.05</ele>
        <time>2017-10-21T12:53:01Z</time>
      </trkpt>
      <trkpt lat="46.45993" lon="4.65271">
        <ele>314.01</ele>
        <time>2017-10-21T12:53:09Z</time>
      </trkpt>
      <trkpt lat="46.45998" lon="4.65273">
        <ele>314.97</ele>
        <time>2017-10-21T12:53:13Z</time>
      </trkpt>
      <trkpt lat="46.46006" lon="4.65277">
        <ele>315.45</ele>
        <time>2017-10-21T12:53:20Z</time>
      </trkpt>
      <trkpt lat="46.46009" lon="4.65279">
        <ele>315.45</ele>
        <time>2017-10-21T12:53:23Z</time>
      </trkpt>
      <trkpt lat="46.46018" lon="4.65286">
        <ele>315.45</ele>
        <time>2017-10-21T12:53:31Z</time>
      </trkpt>
      <trkpt lat="46.46029" lon="4.65291">
        <ele>315.93</ele>
        <time>2017-10-21T12:53:41Z</time>
      </trkpt>
      <trkpt lat="46.46032" lon="4.65293">
        <ele>316.41</ele>
        <time>2017-10-21T12:53:44Z</time>
      </trkpt>
      <trkpt lat="46.46039" lon="4.65297">
        <ele>315.93</ele>
        <time>2017-10-21T12:53:51Z</time>
      </trkpt>
      <trkpt lat="46.46043" lon="4.65302">
        <ele>317.37</ele>
        <time>2017-10-21T12:53:56Z</time>
      </trkpt>
      <trkpt lat="46.46051" lon="4.65308">
        <ele>318.81</ele>
        <time>2017-10-21T12:54:03Z</time>
      </trkpt>
      <trkpt lat="46.46057" lon="4.65314">
        <ele>319.3</ele>
        <time>2017-10-21T12:54:09Z</time>
      </trkpt>
      <trkpt lat="46.46061" lon="4.65318">
        <ele>319.3</ele>
        <time>2017-10-21T12:54:13Z</time>
      </trkpt>
      <trkpt lat="46.46071" lon="4.65327">
        <ele>319.3</ele>
        <time>2017-10-21T12:54:22Z</time>
      </trkpt>
      <trkpt lat="46.46071" lon="4.65328">
        <ele>319.3</ele>
        <time>2017-10-21T12:54:23Z</time>
      </trkpt>
      <trkpt lat="46.46075" lon="4.65331">
        <ele>319.3</ele>
        <time>2017-10-21T12:54:27Z</time>
      </trkpt>
      <trkpt lat="46.46078" lon="4.65332">
        <ele>319.3</ele>
        <time>2017-10-21T12:54:29Z</time>
      </trkpt>
      <trkpt lat="46.46087" lon="4.65337">
        <ele>320.26</ele>
        <time>2017-10-21T12:54:37Z</time>
      </trkpt>
      <trkpt lat="46.4609" lon="4.65338">
        <ele>321.22</ele>
        <time>2017-10-21T12:54:40Z</time>
      </trkpt>
      <trkpt lat="46.46099" lon="4.65339">
        <ele>320.74</ele>
        <time>2017-10-21T12:54:48Z</time>
      </trkpt>
      <trkpt lat="46.46107" lon="4.65342">
        <ele>321.22</ele>
        <time>2017-10-21T12:54:54Z</time>
      </trkpt>
      <trkpt lat="46.46109" lon="4.65342">
        <ele>321.22</ele>
        <time>2017-10-21T12:54:56Z</time>
      </trkpt>
      <trkpt lat="46.46113" lon="4.65343">
        <ele>321.7</ele>
        <time>2017-10-21T12:55:00Z</time>
      </trkpt>
      <trkpt lat="46.46121" lon="4.65345">
        <ele>322.18</ele>
        <time>2017-10-21T12:55:07Z</time>
      </trkpt>
      <trkpt lat="46.46127" lon="4.65347">
        <ele>322.66</ele>
        <time>2017-10-21T12:55:12Z</time>
      </trkpt>
      <trkpt lat="46.46136" lon="4.65348">
        <ele>323.62</ele>
        <time>2017-10-21T12:55:21Z</time>
      </trkpt>
      <trkpt lat="46.46144" lon="4.65351">
        <ele>323.62</ele>
        <time>2017-10-21T12:55:28Z</time>
      </trkpt>
      <trkpt lat="46.46144" lon="4.65351">
        <ele>324.1</ele>
        <time>2017-10-21T12:55:29Z</time>
      </trkpt>
      <trkpt lat="46.46148" lon="4.65351">
        <ele>324.1</ele>
        <time>2017-10-21T12:55:32Z</time>
      </trkpt>
      <trkpt lat="46.46155" lon="4.65354">
        <ele>324.1</ele>
        <time>2017-10-21T12:55:39Z</time>
      </trkpt>
      <trkpt lat="46.46163" lon="4.65355">
        <ele>324.58</ele>
        <time>2017-10-21T12:55:46Z</time>
      </trkpt>
      <trkpt lat="46.46165" lon="4.65356">
        <ele>325.06</ele>
        <time>2017-10-21T12:55:48Z</time>
      </trkpt>
      <trkpt lat="46.46176" lon="4.65359">
        <ele>325.54</ele>
        <time>2017-10-21T12:55:58Z</time>
      </trkpt>
      <trkpt lat="46.46184" lon="4.65362">
        <ele>325.06</ele>
        <time>2017-10-21T12:56:05Z</time>
      </trkpt>
      <trkpt lat="46.46193" lon="4.65365">
        <ele>325.54</ele>
        <time>2017-10-21T12:56:12Z</time>
      </trkpt>
      <trkpt lat="46.46199" lon="4.65368">
        <ele>326.5</ele>
        <time>2017-10-21T12:56:18Z</time>
      </trkpt>
      <trkpt lat="46.46207" lon="4.6537">
        <ele>326.99</ele>
        <time>2017-10-21T12:56:24Z</time>
      </trkpt>
      <trkpt lat="46.46211" lon="4.6537">
        <ele>326.02</ele>
        <time>2017-10-21T12:56:32Z</time>
      </trkpt>
      <trkpt lat="46.46212" lon="4.6537">
        <ele>326.02</ele>
        <time>2017-10-21T12:56:43Z</time>
      </trkpt>
      <trkpt lat="46.46212" lon="4.6537">
        <ele>326.5</ele>
        <time>2017-10-21T12:57:01Z</time>
      </trkpt>
      <trkpt lat="46.46213" lon="4.6537">
        <ele>326.02</ele>
        <time>2017-10-21T12:57:20Z</time>
      </trkpt>
      <trkpt lat="46.46213" lon="4.65371">
        <ele>325.54</ele>
        <time>2017-10-21T12:57:29Z</time>
      </trkpt>
      <trkpt lat="46.46213" lon="4.65372">
        <ele>326.02</ele>
        <time>2017-10-21T12:57:36Z</time>
      </trkpt>
      <trkpt lat="46.46213" lon="4.65372">
        <ele>326.02</ele>
        <time>2017-10-21T12:57:48Z</time>
      </trkpt>
      <trkpt lat="46.46214" lon="4.65372">
        <ele>325.54</ele>
        <time>2017-10-21T12:57:57Z</time>
      </trkpt>
      <trkpt lat="46.46213" lon="4.65373">
        <ele>325.54</ele>
        <time>2017-10-21T12:58:07Z</time>
      </trkpt>
      <trkpt lat="46.46213" lon="4.65373">
        <ele>326.5</ele>
        <time>2017-10-21T12:58:17Z</time>
      </trkpt>
      <trkpt lat="46.46213" lon="4.65373">
        <ele>325.54</ele>
        <time>2017-10-21T12:58:28Z</time>
      </trkpt>
      <trkpt lat="46.46213" lon="4.65374">
        <ele>326.5</ele>
        <time>2017-10-21T12:58:39Z</time>
      </trkpt>
      <trkpt lat="46.46213" lon="4.65374">
        <ele>325.54</ele>
        <time>2017-10-21T12:58:48Z</time>
      </trkpt>
      <trkpt lat="46.46212" lon="4.65374">
        <ele>323.14</ele>
        <time>2017-10-21T12:58:55Z</time>
      </trkpt>
      <trkpt lat="46.46212" lon="4.65374">
        <ele>323.14</ele>
        <time>2017-10-21T12:58:56Z</time>
      </trkpt>
      <trkpt lat="46.46212" lon="4.65374">
        <ele>325.06</ele>
        <time>2017-10-21T12:58:58Z</time>
      </trkpt>
      <trkpt lat="46.46212" lon="4.65373">
        <ele>324.58</ele>
        <time>2017-10-21T12:59:07Z</time>
      </trkpt>
      <trkpt lat="46.46211" lon="4.65378">
        <ele>324.1</ele>
        <time>2017-10-21T12:59:11Z</time>
      </trkpt>
      <trkpt lat="46.4621" lon="4.65381">
        <ele>324.1</ele>
        <time>2017-10-21T12:59:13Z</time>
      </trkpt>
      <trkpt lat="46.46209" lon="4.65386">
        <ele>323.62</ele>
        <time>2017-10-21T12:59:16Z</time>
      </trkpt>
      <trkpt lat="46.46209" lon="4.65397">
        <ele>324.1</ele>
        <time>2017-10-21T12:59:23Z</time>
      </trkpt>
      <trkpt lat="46.46209" lon="4.65401">
        <ele>324.1</ele>
        <time>2017-10-21T12:59:26Z</time>
      </trkpt>
      <trkpt lat="46.46209" lon="4.65407">
        <ele>323.14</ele>
        <time>2017-10-21T12:59:30Z</time>
      </trkpt>
      <trkpt lat="46.46209" lon="4.65416">
        <ele>323.62</ele>
        <time>2017-10-21T12:59:35Z</time>
      </trkpt>
      <trkpt lat="46.4621" lon="4.65428">
        <ele>322.18</ele>
        <time>2017-10-21T12:59:42Z</time>
      </trkpt>
      <trkpt lat="46.4621" lon="4.65438">
        <ele>324.1</ele>
        <time>2017-10-21T12:59:47Z</time>
      </trkpt>
      <trkpt lat="46.46211" lon="4.65451">
        <ele>322.66</ele>
        <time>2017-10-21T12:59:55Z</time>
      </trkpt>
      <trkpt lat="46.46213" lon="4.65461">
        <ele>322.66</ele>
        <time>2017-10-21T13:00:00Z</time>
      </trkpt>
      <trkpt lat="46.46215" lon="4.65473">
        <ele>321.22</ele>
        <time>2017-10-21T13:00:07Z</time>
      </trkpt>
      <trkpt lat="46.46214" lon="4.6548">
        <ele>320.74</ele>
        <time>2017-10-21T13:00:11Z</time>
      </trkpt>
      <trkpt lat="46.46213" lon="4.65492">
        <ele>320.74</ele>
        <time>2017-10-21T13:00:19Z</time>
      </trkpt>
      <trkpt lat="46.46213" lon="4.65495">
        <ele>321.22</ele>
        <time>2017-10-21T13:00:21Z</time>
      </trkpt>
      <trkpt lat="46.46213" lon="4.65499">
        <ele>320.74</ele>
        <time>2017-10-21T13:00:24Z</time>
      </trkpt>
      <trkpt lat="46.46213" lon="4.65514">
        <ele>319.3</ele>
        <time>2017-10-21T13:00:32Z</time>
      </trkpt>
      <trkpt lat="46.46215" lon="4.65518">
        <ele>319.3</ele>
        <time>2017-10-21T13:00:35Z</time>
      </trkpt>
      <trkpt lat="46.46216" lon="4.6553">
        <ele>319.3</ele>
        <time>2017-10-21T13:00:43Z</time>
      </trkpt>
      <trkpt lat="46.46217" lon="4.65541">
        <ele>318.33</ele>
        <time>2017-10-21T13:00:49Z</time>
      </trkpt>
      <trkpt lat="46.46217" lon="4.65542">
        <ele>317.85</ele>
        <time>2017-10-21T13:00:50Z</time>
      </trkpt>
      <trkpt lat="46.46218" lon="4.65547">
        <ele>319.3</ele>
        <time>2017-10-21T13:00:53Z</time>
      </trkpt>
      <trkpt lat="46.46219" lon="4.65555">
        <ele>318.81</ele>
        <time>2017-10-21T13:00:57Z</time>
      </trkpt>
      <trkpt lat="46.46221" lon="4.65563">
        <ele>318.33</ele>
        <time>2017-10-21T13:01:02Z</time>
      </trkpt>
      <trkpt lat="46.46221" lon="4.65567">
        <ele>317.85</ele>
        <time>2017-10-21T13:01:05Z</time>
      </trkpt>
      <trkpt lat="46.46222" lon="4.6557">
        <ele>317.37</ele>
        <time>2017-10-21T13:01:07Z</time>
      </trkpt>
      <trkpt lat="46.46223" lon="4.65575">
        <ele>318.33</ele>
        <time>2017-10-21T13:01:10Z</time>
      </trkpt>
      <trkpt lat="46.4623" lon="4.6558">
        <ele>318.33</ele>
        <time>2017-10-21T13:01:18Z</time>
      </trkpt>
      <trkpt lat="46.46237" lon="4.65582">
        <ele>318.33</ele>
        <time>2017-10-21T13:01:26Z</time>
      </trkpt>
      <trkpt lat="46.4624" lon="4.65582">
        <ele>317.85</ele>
        <time>2017-10-21T13:01:29Z</time>
      </trkpt>
      <trkpt lat="46.46245" lon="4.65582">
        <ele>317.37</ele>
        <time>2017-10-21T13:01:35Z</time>
      </trkpt>
      <trkpt lat="46.46253" lon="4.65583">
        <ele>316.41</ele>
        <time>2017-10-21T13:01:43Z</time>
      </trkpt>
      <trkpt lat="46.4626" lon="4.65583">
        <ele>315.45</ele>
        <time>2017-10-21T13:01:50Z</time>
      </trkpt>
      <trkpt lat="46.46265" lon="4.65583">
        <ele>314.49</ele>
        <time>2017-10-21T13:01:56Z</time>
      </trkpt>
      <trkpt lat="46.4627" lon="4.65584">
        <ele>314.49</ele>
        <time>2017-10-21T13:02:02Z</time>
      </trkpt>
      <trkpt lat="46.46274" lon="4.65588">
        <ele>313.05</ele>
        <time>2017-10-21T13:02:09Z</time>
      </trkpt>
      <trkpt lat="46.46277" lon="4.65587">
        <ele>311.6</ele>
        <time>2017-10-21T13:02:14Z</time>
      </trkpt>
      <trkpt lat="46.46284" lon="4.65588">
        <ele>311.12</ele>
        <time>2017-10-21T13:02:23Z</time>
      </trkpt>
      <trkpt lat="46.46289" lon="4.65588">
        <ele>310.16</ele>
        <time>2017-10-21T13:02:29Z</time>
      </trkpt>
      <trkpt lat="46.46294" lon="4.65587">
        <ele>308.72</ele>
        <time>2017-10-21T13:02:35Z</time>
      </trkpt>
      <trkpt lat="46.46296" lon="4.65588">
        <ele>307.28</ele>
        <time>2017-10-21T13:02:38Z</time>
      </trkpt>
      <trkpt lat="46.46298" lon="4.65587">
        <ele>307.76</ele>
        <time>2017-10-21T13:02:40Z</time>
      </trkpt>
      <trkpt lat="46.46305" lon="4.65584">
        <ele>306.32</ele>
        <time>2017-10-21T13:02:48Z</time>
      </trkpt>
      <trkpt lat="46.46313" lon="4.65582">
        <ele>303.91</ele>
        <time>2017-10-21T13:02:56Z</time>
      </trkpt>
      <trkpt lat="46.46318" lon="4.65581">
        <ele>302.95</ele>
        <time>2017-10-21T13:03:02Z</time>
      </trkpt>
      <trkpt lat="46.46322" lon="4.65582">
        <ele>301.51</ele>
        <time>2017-10-21T13:03:07Z</time>
      </trkpt>
      <trkpt lat="46.46325" lon="4.65582">
        <ele>301.03</ele>
        <time>2017-10-21T13:03:09Z</time>
      </trkpt>
      <trkpt lat="46.46329" lon="4.65582">
        <ele>300.07</ele>
        <time>2017-10-21T13:03:13Z</time>
      </trkpt>
      <trkpt lat="46.46335" lon="4.65581">
        <ele>298.63</ele>
        <time>2017-10-21T13:03:19Z</time>
      </trkpt>
      <trkpt lat="46.46342" lon="4.65581">
        <ele>297.67</ele>
        <time>2017-10-21T13:03:25Z</time>
      </trkpt>
      <trkpt lat="46.46343" lon="4.65581">
        <ele>297.67</ele>
        <time>2017-10-21T13:03:26Z</time>
      </trkpt>
      <trkpt lat="46.4635" lon="4.65577">
        <ele>296.7</ele>
        <time>2017-10-21T13:03:32Z</time>
      </trkpt>
      <trkpt lat="46.46353" lon="4.65575">
        <ele>295.74</ele>
        <time>2017-10-21T13:03:35Z</time>
      </trkpt>
      <trkpt lat="46.46361" lon="4.65573">
        <ele>294.78</ele>
        <time>2017-10-21T13:03:42Z</time>
      </trkpt>
      <trkpt lat="46.46369" lon="4.65575">
        <ele>295.26</ele>
        <time>2017-10-21T13:03:48Z</time>
      </trkpt>
      <trkpt lat="46.46374" lon="4.65573">
        <ele>294.3</ele>
        <time>2017-10-21T13:03:55Z</time>
      </trkpt>
      <trkpt lat="46.46376" lon="4.65573">
        <ele>294.3</ele>
        <time>2017-10-21T13:04:01Z</time>
      </trkpt>
      <trkpt lat="46.46376" lon="4.65573">
        <ele>294.78</ele>
        <time>2017-10-21T13:04:11Z</time>
      </trkpt>
      <trkpt lat="46.46379" lon="4.65573">
        <ele>292.86</ele>
        <time>2017-10-21T13:04:16Z</time>
      </trkpt>
      <trkpt lat="46.4638" lon="4.65572">
        <ele>293.82</ele>
        <time>2017-10-21T13:04:23Z</time>
      </trkpt>
      <trkpt lat="46.46382" lon="4.65575">
        <ele>292.86</ele>
        <time>2017-10-21T13:04:29Z</time>
      </trkpt>
      <trkpt lat="46.46383" lon="4.65578">
        <ele>291.42</ele>
        <time>2017-10-21T13:04:36Z</time>
      </trkpt>
      <trkpt lat="46.46383" lon="4.65578">
        <ele>292.38</ele>
        <time>2017-10-21T13:04:47Z</time>
      </trkpt>
      <trkpt lat="46.46384" lon="4.65578">
        <ele>292.38</ele>
        <time>2017-10-21T13:04:56Z</time>
      </trkpt>
      <trkpt lat="46.46382" lon="4.65582">
        <ele>291.9</ele>
        <time>2017-10-21T13:05:02Z</time>
      </trkpt>
      <trkpt lat="46.46383" lon="4.65583">
        <ele>291.42</ele>
        <time>2017-10-21T13:05:08Z</time>
      </trkpt>
      <trkpt lat="46.46383" lon="4.65583">
        <ele>291.9</ele>
        <time>2017-10-21T13:05:19Z</time>
      </trkpt>
      <trkpt lat="46.46383" lon="4.65584">
        <ele>292.38</ele>
        <time>2017-10-21T13:05:32Z</time>
      </trkpt>
      <trkpt lat="46.46382" lon="4.65583">
        <ele>291.9</ele>
        <time>2017-10-21T13:05:47Z</time>
      </trkpt>
      <trkpt lat="46.46381" lon="4.65583">
        <ele>291.9</ele>
        <time>2017-10-21T13:05:59Z</time>
      </trkpt>
      <trkpt lat="46.46381" lon="4.65586">
        <ele>290.46</ele>
        <time>2017-10-21T13:06:09Z</time>
      </trkpt>
      <trkpt lat="46.46381" lon="4.65585">
        <ele>291.42</ele>
        <time>2017-10-21T13:06:10Z</time>
      </trkpt>
      <trkpt lat="46.46382" lon="4.65583">
        <ele>293.34</ele>
        <time>2017-10-21T13:06:13Z</time>
      </trkpt>
      <trkpt lat="46.46385" lon="4.65575">
        <ele>293.82</ele>
        <time>2017-10-21T13:06:19Z</time>
      </trkpt>
      <trkpt lat="46.46395" lon="4.65572">
        <ele>294.3</ele>
        <time>2017-10-21T13:06:27Z</time>
      </trkpt>
      <trkpt lat="46.46402" lon="4.65572">
        <ele>294.78</ele>
        <time>2017-10-21T13:06:34Z</time>
      </trkpt>
      <trkpt lat="46.46402" lon="4.65572">
        <ele>294.78</ele>
        <time>2017-10-21T13:06:36Z</time>
      </trkpt>
      <trkpt lat="46.46404" lon="4.65573">
        <ele>294.3</ele>
        <time>2017-10-21T13:06:39Z</time>
      </trkpt>
      <trkpt lat="46.46409" lon="4.65575">
        <ele>295.26</ele>
        <time>2017-10-21T13:06:43Z</time>
      </trkpt>
      <trkpt lat="46.46413" lon="4.65576">
        <ele>295.26</ele>
        <time>2017-10-21T13:06:47Z</time>
      </trkpt>
      <trkpt lat="46.46417" lon="4.65577">
        <ele>295.26</ele>
        <time>2017-10-21T13:06:50Z</time>
      </trkpt>
      <trkpt lat="46.46425" lon="4.65584">
        <ele>296.22</ele>
        <time>2017-10-21T13:06:58Z</time>
      </trkpt>
      <trkpt lat="46.46431" lon="4.65592">
        <ele>296.7</ele>
        <time>2017-10-21T13:07:05Z</time>
      </trkpt>
      <trkpt lat="46.46436" lon="4.65598">
        <ele>297.18</ele>
        <time>2017-10-21T13:07:10Z</time>
      </trkpt>
      <trkpt lat="46.46442" lon="4.65608">
        <ele>297.67</ele>
        <time>2017-10-21T13:07:18Z</time>
      </trkpt>
      <trkpt lat="46.46445" lon="4.65612">
        <ele>297.67</ele>
        <time>2017-10-21T13:07:21Z</time>
      </trkpt>
      <trkpt lat="46.46454" lon="4.65609">
        <ele>299.11</ele>
        <time>2017-10-21T13:07:29Z</time>
      </trkpt>
      <trkpt lat="46.46456" lon="4.65607">
        <ele>299.59</ele>
        <time>2017-10-21T13:07:32Z</time>
      </trkpt>
      <trkpt lat="46.46458" lon="4.65604">
        <ele>300.07</ele>
        <time>2017-10-21T13:07:35Z</time>
      </trkpt>
      <trkpt lat="46.46466" lon="4.65603">
        <ele>301.99</ele>
        <time>2017-10-21T13:07:42Z</time>
      </trkpt>
      <trkpt lat="46.46471" lon="4.65599">
        <ele>303.43</ele>
        <time>2017-10-21T13:07:48Z</time>
      </trkpt>
      <trkpt lat="46.46478" lon="4.65599">
        <ele>302.95</ele>
        <time>2017-10-21T13:07:54Z</time>
      </trkpt>
      <trkpt lat="46.46487" lon="4.65602">
        <ele>304.39</ele>
        <time>2017-10-21T13:08:01Z</time>
      </trkpt>
      <trkpt lat="46.4649" lon="4.65608">
        <ele>307.28</ele>
        <time>2017-10-21T13:08:05Z</time>
      </trkpt>
      <trkpt lat="46.46493" lon="4.65611">
        <ele>304.88</ele>
        <time>2017-10-21T13:08:09Z</time>
      </trkpt>
      <trkpt lat="46.46495" lon="4.65612">
        <ele>305.36</ele>
        <time>2017-10-21T13:08:11Z</time>
      </trkpt>
      <trkpt lat="46.46504" lon="4.65612">
        <ele>306.32</ele>
        <time>2017-10-21T13:08:19Z</time>
      </trkpt>
      <trkpt lat="46.46505" lon="4.65612">
        <ele>306.8</ele>
        <time>2017-10-21T13:08:20Z</time>
      </trkpt>
      <trkpt lat="46.46513" lon="4.65611">
        <ele>307.76</ele>
        <time>2017-10-21T13:08:28Z</time>
      </trkpt>
      <trkpt lat="46.46516" lon="4.65611">
        <ele>308.72</ele>
        <time>2017-10-21T13:08:31Z</time>
      </trkpt>
      <trkpt lat="46.46519" lon="4.6561">
        <ele>308.72</ele>
        <time>2017-10-21T13:08:34Z</time>
      </trkpt>
      <trkpt lat="46.46523" lon="4.65611">
        <ele>309.68</ele>
        <time>2017-10-21T13:08:39Z</time>
      </trkpt>
      <trkpt lat="46.46525" lon="4.6561">
        <ele>310.16</ele>
        <time>2017-10-21T13:08:41Z</time>
      </trkpt>
      <trkpt lat="46.46533" lon="4.65611">
        <ele>310.16</ele>
        <time>2017-10-21T13:08:48Z</time>
      </trkpt>
      <trkpt lat="46.46541" lon="4.65609">
        <ele>311.6</ele>
        <time>2017-10-21T13:08:56Z</time>
      </trkpt>
      <trkpt lat="46.46545" lon="4.65609">
        <ele>312.09</ele>
        <time>2017-10-21T13:09:02Z</time>
      </trkpt>
      <trkpt lat="46.46555" lon="4.65608">
        <ele>313.53</ele>
        <time>2017-10-21T13:09:12Z</time>
      </trkpt>
      <trkpt lat="46.46562" lon="4.65608">
        <ele>314.97</ele>
        <time>2017-10-21T13:09:18Z</time>
      </trkpt>
      <trkpt lat="46.46563" lon="4.65608">
        <ele>314.97</ele>
        <time>2017-10-21T13:09:19Z</time>
      </trkpt>
      <trkpt lat="46.4657" lon="4.65607">
        <ele>315.93</ele>
        <time>2017-10-21T13:09:26Z</time>
      </trkpt>
      <trkpt lat="46.46572" lon="4.65608">
        <ele>314.97</ele>
        <time>2017-10-21T13:09:29Z</time>
      </trkpt>
      <trkpt lat="46.46573" lon="4.65608">
        <ele>315.45</ele>
        <time>2017-10-21T13:09:31Z</time>
      </trkpt>
      <trkpt lat="46.46574" lon="4.65608">
        <ele>315.45</ele>
        <time>2017-10-21T13:09:33Z</time>
      </trkpt>
      <trkpt lat="46.46578" lon="4.65609">
        <ele>315.93</ele>
        <time>2017-10-21T13:09:36Z</time>
      </trkpt>
      <trkpt lat="46.46586" lon="4.65614">
        <ele>316.41</ele>
        <time>2017-10-21T13:09:45Z</time>
      </trkpt>
      <trkpt lat="46.4659" lon="4.65615">
        <ele>318.33</ele>
        <time>2017-10-21T13:09:48Z</time>
      </trkpt>
      <trkpt lat="46.46598" lon="4.65621">
        <ele>318.33</ele>
        <time>2017-10-21T13:09:57Z</time>
      </trkpt>
      <trkpt lat="46.46607" lon="4.65623">
        <ele>319.3</ele>
        <time>2017-10-21T13:10:05Z</time>
      </trkpt>
      <trkpt lat="46.4661" lon="4.65623">
        <ele>320.26</ele>
        <time>2017-10-21T13:10:08Z</time>
      </trkpt>
      <trkpt lat="46.4662" lon="4.65625">
        <ele>321.22</ele>
        <time>2017-10-21T13:10:17Z</time>
      </trkpt>
      <trkpt lat="46.46626" lon="4.65627">
        <ele>321.7</ele>
        <time>2017-10-21T13:10:23Z</time>
      </trkpt>
      <trkpt lat="46.46632" lon="4.65632">
        <ele>321.22</ele>
        <time>2017-10-21T13:10:29Z</time>
      </trkpt>
      <trkpt lat="46.46637" lon="4.65638">
        <ele>321.7</ele>
        <time>2017-10-21T13:10:35Z</time>
      </trkpt>
      <trkpt lat="46.46644" lon="4.65645">
        <ele>323.14</ele>
        <time>2017-10-21T13:10:42Z</time>
      </trkpt>
      <trkpt lat="46.46653" lon="4.6565">
        <ele>322.66</ele>
        <time>2017-10-21T13:10:49Z</time>
      </trkpt>
      <trkpt lat="46.46661" lon="4.65654">
        <ele>322.66</ele>
        <time>2017-10-21T13:10:56Z</time>
      </trkpt>
      <trkpt lat="46.46671" lon="4.65659">
        <ele>324.1</ele>
        <time>2017-10-21T13:11:03Z</time>
      </trkpt>
      <trkpt lat="46.46677" lon="4.65663">
        <ele>324.58</ele>
        <time>2017-10-21T13:11:09Z</time>
      </trkpt>
      <trkpt lat="46.46689" lon="4.65669">
        <ele>325.06</ele>
        <time>2017-10-21T13:11:17Z</time>
      </trkpt>
      <trkpt lat="46.46698" lon="4.65671">
        <ele>325.54</ele>
        <time>2017-10-21T13:11:24Z</time>
      </trkpt>
      <trkpt lat="46.46708" lon="4.65675">
        <ele>325.06</ele>
        <time>2017-10-21T13:11:32Z</time>
      </trkpt>
      <trkpt lat="46.46717" lon="4.65677">
        <ele>325.54</ele>
        <time>2017-10-21T13:11:39Z</time>
      </trkpt>
      <trkpt lat="46.46724" lon="4.65678">
        <ele>326.02</ele>
        <time>2017-10-21T13:11:46Z</time>
      </trkpt>
      <trkpt lat="46.46731" lon="4.6568">
        <ele>325.54</ele>
        <time>2017-10-21T13:11:53Z</time>
      </trkpt>
      <trkpt lat="46.4674" lon="4.65682">
        <ele>325.06</ele>
        <time>2017-10-21T13:12:00Z</time>
      </trkpt>
      <trkpt lat="46.4674" lon="4.65681">
        <ele>325.06</ele>
        <time>2017-10-21T13:12:02Z</time>
      </trkpt>
      <trkpt lat="46.46743" lon="4.65683">
        <ele>325.54</ele>
        <time>2017-10-21T13:12:05Z</time>
      </trkpt>
      <trkpt lat="46.46752" lon="4.65686">
        <ele>325.54</ele>
        <time>2017-10-21T13:12:13Z</time>
      </trkpt>
      <trkpt lat="46.46752" lon="4.65687">
        <ele>325.54</ele>
        <time>2017-10-21T13:12:14Z</time>
      </trkpt>
      <trkpt lat="46.46758" lon="4.65688">
        <ele>325.54</ele>
        <time>2017-10-21T13:12:19Z</time>
      </trkpt>
      <trkpt lat="46.46769" lon="4.65688">
        <ele>323.62</ele>
        <time>2017-10-21T13:12:30Z</time>
      </trkpt>
      <trkpt lat="46.46769" lon="4.65688">
        <ele>323.14</ele>
        <time>2017-10-21T13:12:31Z</time>
      </trkpt>
      <trkpt lat="46.46773" lon="4.65686">
        <ele>323.62</ele>
        <time>2017-10-21T13:12:35Z</time>
      </trkpt>
      <trkpt lat="46.46784" lon="4.65685">
        <ele>323.14</ele>
        <time>2017-10-21T13:12:45Z</time>
      </trkpt>
      <trkpt lat="46.4679" lon="4.65686">
        <ele>323.62</ele>
        <time>2017-10-21T13:12:51Z</time>
      </trkpt>
      <trkpt lat="46.46791" lon="4.65686">
        <ele>323.14</ele>
        <time>2017-10-21T13:12:52Z</time>
      </trkpt>
      <trkpt lat="46.46794" lon="4.65685">
        <ele>323.14</ele>
        <time>2017-10-21T13:12:55Z</time>
      </trkpt>
      <trkpt lat="46.46799" lon="4.65685">
        <ele>322.66</ele>
        <time>2017-10-21T13:12:59Z</time>
      </trkpt>
      <trkpt lat="46.46803" lon="4.65684">
        <ele>322.18</ele>
        <time>2017-10-21T13:13:03Z</time>
      </trkpt>
      <trkpt lat="46.46816" lon="4.65683">
        <ele>321.22</ele>
        <time>2017-10-21T13:13:13Z</time>
      </trkpt>
      <trkpt lat="46.46826" lon="4.65681">
        <ele>322.66</ele>
        <time>2017-10-21T13:13:20Z</time>
      </trkpt>
      <trkpt lat="46.46832" lon="4.65681">
        <ele>321.7</ele>
        <time>2017-10-21T13:13:24Z</time>
      </trkpt>
      <trkpt lat="46.46841" lon="4.6568">
        <ele>321.22</ele>
        <time>2017-10-21T13:13:32Z</time>
      </trkpt>
      <trkpt lat="46.46851" lon="4.65678">
        <ele>322.18</ele>
        <time>2017-10-21T13:13:40Z</time>
      </trkpt>
      <trkpt lat="46.46861" lon="4.65678">
        <ele>323.14</ele>
        <time>2017-10-21T13:13:49Z</time>
      </trkpt>
      <trkpt lat="46.46867" lon="4.65676">
        <ele>322.18</ele>
        <time>2017-10-21T13:13:54Z</time>
      </trkpt>
      <trkpt lat="46.46876" lon="4.65675">
        <ele>322.18</ele>
        <time>2017-10-21T13:14:03Z</time>
      </trkpt>
      <trkpt lat="46.46884" lon="4.65674">
        <ele>321.7</ele>
        <time>2017-10-21T13:14:10Z</time>
      </trkpt>
      <trkpt lat="46.46892" lon="4.65673">
        <ele>321.7</ele>
        <time>2017-10-21T13:14:17Z</time>
      </trkpt>
      <trkpt lat="46.46901" lon="4.65668">
        <ele>321.7</ele>
        <time>2017-10-21T13:14:25Z</time>
      </trkpt>
      <trkpt lat="46.46902" lon="4.65668">
        <ele>321.7</ele>
        <time>2017-10-21T13:14:26Z</time>
      </trkpt>
      <trkpt lat="46.46908" lon="4.65666">
        <ele>321.7</ele>
        <time>2017-10-21T13:14:31Z</time>
      </trkpt>
      <trkpt lat="46.46918" lon="4.65661">
        <ele>321.7</ele>
        <time>2017-10-21T13:14:40Z</time>
      </trkpt>
      <trkpt lat="46.46923" lon="4.65659">
        <ele>321.7</ele>
        <time>2017-10-21T13:14:46Z</time>
      </trkpt>
      <trkpt lat="46.46926" lon="4.65657">
        <ele>322.18</ele>
        <time>2017-10-21T13:14:50Z</time>
      </trkpt>
      <trkpt lat="46.46936" lon="4.65655">
        <ele>322.18</ele>
        <time>2017-10-21T13:14:58Z</time>
      </trkpt>
      <trkpt lat="46.46945" lon="4.65651">
        <ele>322.18</ele>
        <time>2017-10-21T13:15:07Z</time>
      </trkpt>
      <trkpt lat="46.46953" lon="4.65648">
        <ele>322.66</ele>
        <time>2017-10-21T13:15:14Z</time>
      </trkpt>
      <trkpt lat="46.46959" lon="4.65647">
        <ele>322.66</ele>
        <time>2017-10-21T13:15:19Z</time>
      </trkpt>
      <trkpt lat="46.46967" lon="4.65644">
        <ele>322.66</ele>
        <time>2017-10-21T13:15:26Z</time>
      </trkpt>
      <trkpt lat="46.4697" lon="4.65643">
        <ele>322.66</ele>
        <time>2017-10-21T13:15:29Z</time>
      </trkpt>
      <trkpt lat="46.46977" lon="4.65638">
        <ele>322.66</ele>
        <time>2017-10-21T13:15:37Z</time>
      </trkpt>
      <trkpt lat="46.46984" lon="4.65634">
        <ele>322.66</ele>
        <time>2017-10-21T13:15:44Z</time>
      </trkpt>
      <trkpt lat="46.46991" lon="4.6563">
        <ele>322.18</ele>
        <time>2017-10-21T13:15:51Z</time>
      </trkpt>
      <trkpt lat="46.46995" lon="4.65625">
        <ele>322.18</ele>
        <time>2017-10-21T13:15:57Z</time>
      </trkpt>
      <trkpt lat="46.47" lon="4.65622">
        <ele>321.7</ele>
        <time>2017-10-21T13:16:04Z</time>
      </trkpt>
      <trkpt lat="46.47" lon="4.65616">
        <ele>321.7</ele>
        <time>2017-10-21T13:16:09Z</time>
      </trkpt>
      <trkpt lat="46.46998" lon="4.6561">
        <ele>322.66</ele>
        <time>2017-10-21T13:16:16Z</time>
      </trkpt>
      <trkpt lat="46.46996" lon="4.65603">
        <ele>323.62</ele>
        <time>2017-10-21T13:16:22Z</time>
      </trkpt>
      <trkpt lat="46.46991" lon="4.65595">
        <ele>325.06</ele>
        <time>2017-10-21T13:16:30Z</time>
      </trkpt>
      <trkpt lat="46.46987" lon="4.65585">
        <ele>326.02</ele>
        <time>2017-10-21T13:16:38Z</time>
      </trkpt>
      <trkpt lat="46.46982" lon="4.65578">
        <ele>327.47</ele>
        <time>2017-10-21T13:16:44Z</time>
      </trkpt>
      <trkpt lat="46.46975" lon="4.6557">
        <ele>328.43</ele>
        <time>2017-10-21T13:16:53Z</time>
      </trkpt>
      <trkpt lat="46.46967" lon="4.65564">
        <ele>329.87</ele>
        <time>2017-10-21T13:17:02Z</time>
      </trkpt>
      <trkpt lat="46.46959" lon="4.65559">
        <ele>330.35</ele>
        <time>2017-10-21T13:17:10Z</time>
      </trkpt>
      <trkpt lat="46.46959" lon="4.65559">
        <ele>330.35</ele>
        <time>2017-10-21T13:17:11Z</time>
      </trkpt>
      <trkpt lat="46.46951" lon="4.65554">
        <ele>331.31</ele>
        <time>2017-10-21T13:17:20Z</time>
      </trkpt>
      <trkpt lat="46.46945" lon="4.65549">
        <ele>332.27</ele>
        <time>2017-10-21T13:17:27Z</time>
      </trkpt>
      <trkpt lat="46.46938" lon="4.65543">
        <ele>333.23</ele>
        <time>2017-10-21T13:17:35Z</time>
      </trkpt>
      <trkpt lat="46.46934" lon="4.65537">
        <ele>334.2</ele>
        <time>2017-10-21T13:17:42Z</time>
      </trkpt>
      <trkpt lat="46.46933" lon="4.65536">
        <ele>333.71</ele>
        <time>2017-10-21T13:17:47Z</time>
      </trkpt>
      <trkpt lat="46.46933" lon="4.65535">
        <ele>334.2</ele>
        <time>2017-10-21T13:18:00Z</time>
      </trkpt>
      <trkpt lat="46.46931" lon="4.65533">
        <ele>334.68</ele>
        <time>2017-10-21T13:18:06Z</time>
      </trkpt>
      <trkpt lat="46.46931" lon="4.65532">
        <ele>334.68</ele>
        <time>2017-10-21T13:18:07Z</time>
      </trkpt>
      <trkpt lat="46.46929" lon="4.6553">
        <ele>335.16</ele>
        <time>2017-10-21T13:18:09Z</time>
      </trkpt>
      <trkpt lat="46.46926" lon="4.65526">
        <ele>335.64</ele>
        <time>2017-10-21T13:18:17Z</time>
      </trkpt>
      <trkpt lat="46.46926" lon="4.65526">
        <ele>335.16</ele>
        <time>2017-10-21T13:18:32Z</time>
      </trkpt>
      <trkpt lat="46.46926" lon="4.65526">
        <ele>335.16</ele>
        <time>2017-10-21T13:18:40Z</time>
      </trkpt>
      <trkpt lat="46.46928" lon="4.65528">
        <ele>335.16</ele>
        <time>2017-10-21T13:18:43Z</time>
      </trkpt>
      <trkpt lat="46.46929" lon="4.65529">
        <ele>334.68</ele>
        <time>2017-10-21T13:18:45Z</time>
      </trkpt>
      <trkpt lat="46.46931" lon="4.65531">
        <ele>333.71</ele>
        <time>2017-10-21T13:18:53Z</time>
      </trkpt>
      <trkpt lat="46.46931" lon="4.65531">
        <ele>334.2</ele>
        <time>2017-10-21T13:19:03Z</time>
      </trkpt>
      <trkpt lat="46.46931" lon="4.65531">
        <ele>333.71</ele>
        <time>2017-10-21T13:19:11Z</time>
      </trkpt>
      <trkpt lat="46.46933" lon="4.65533">
        <ele>333.71</ele>
        <time>2017-10-21T13:19:15Z</time>
      </trkpt>
      <trkpt lat="46.46935" lon="4.65539">
        <ele>333.23</ele>
        <time>2017-10-21T13:19:20Z</time>
      </trkpt>
      <trkpt lat="46.46937" lon="4.65543">
        <ele>332.75</ele>
        <time>2017-10-21T13:19:24Z</time>
      </trkpt>
      <trkpt lat="46.46944" lon="4.65551">
        <ele>331.79</ele>
        <time>2017-10-21T13:19:32Z</time>
      </trkpt>
      <trkpt lat="46.46946" lon="4.65552">
        <ele>331.31</ele>
        <time>2017-10-21T13:19:34Z</time>
      </trkpt>
      <trkpt lat="46.46952" lon="4.65556">
        <ele>330.35</ele>
        <time>2017-10-21T13:19:40Z</time>
      </trkpt>
      <trkpt lat="46.46955" lon="4.65557">
        <ele>330.35</ele>
        <time>2017-10-21T13:19:43Z</time>
      </trkpt>
      <trkpt lat="46.46964" lon="4.65564">
        <ele>328.91</ele>
        <time>2017-10-21T13:19:51Z</time>
      </trkpt>
      <trkpt lat="46.4697" lon="4.65569">
        <ele>327.95</ele>
        <time>2017-10-21T13:19:57Z</time>
      </trkpt>
      <trkpt lat="46.46978" lon="4.65574">
        <ele>326.99</ele>
        <time>2017-10-21T13:20:04Z</time>
      </trkpt>
      <trkpt lat="46.46981" lon="4.65579">
        <ele>326.99</ele>
        <time>2017-10-21T13:20:08Z</time>
      </trkpt>
      <trkpt lat="46.46984" lon="4.65584">
        <ele>325.54</ele>
        <time>2017-10-21T13:20:12Z</time>
      </trkpt>
      <trkpt lat="46.4699" lon="4.65592">
        <ele>324.58</ele>
        <time>2017-10-21T13:20:19Z</time>
      </trkpt>
      <trkpt lat="46.46991" lon="4.65595">
        <ele>324.1</ele>
        <time>2017-10-21T13:20:21Z</time>
      </trkpt>
      <trkpt lat="46.46995" lon="4.65603">
        <ele>323.14</ele>
        <time>2017-10-21T13:20:28Z</time>
      </trkpt>
      <trkpt lat="46.46996" lon="4.65606">
        <ele>322.66</ele>
        <time>2017-10-21T13:20:30Z</time>
      </trkpt>
      <trkpt lat="46.46999" lon="4.65611">
        <ele>322.18</ele>
        <time>2017-10-21T13:20:34Z</time>
      </trkpt>
      <trkpt lat="46.47001" lon="4.65615">
        <ele>321.22</ele>
        <time>2017-10-21T13:20:37Z</time>
      </trkpt>
      <trkpt lat="46.47006" lon="4.65624">
        <ele>319.78</ele>
        <time>2017-10-21T13:20:44Z</time>
      </trkpt>
      <trkpt lat="46.47008" lon="4.65626">
        <ele>318.81</ele>
        <time>2017-10-21T13:20:48Z</time>
      </trkpt>
      <trkpt lat="46.47012" lon="4.65629">
        <ele>318.33</ele>
        <time>2017-10-21T13:20:52Z</time>
      </trkpt>
      <trkpt lat="46.47018" lon="4.6563">
        <ele>317.37</ele>
        <time>2017-10-21T13:20:59Z</time>
      </trkpt>
      <trkpt lat="46.47021" lon="4.65634">
        <ele>316.41</ele>
        <time>2017-10-21T13:21:03Z</time>
      </trkpt>
      <trkpt lat="46.47032" lon="4.65633">
        <ele>314.49</ele>
        <time>2017-10-21T13:21:13Z</time>
      </trkpt>
      <trkpt lat="46.47036" lon="4.65633">
        <ele>314.01</ele>
        <time>2017-10-21T13:21:16Z</time>
      </trkpt>
      <trkpt lat="46.47041" lon="4.6563">
        <ele>313.05</ele>
        <time>2017-10-21T13:21:21Z</time>
      </trkpt>
      <trkpt lat="46.47044" lon="4.65627">
        <ele>313.05</ele>
        <time>2017-10-21T13:21:24Z</time>
      </trkpt>
      <trkpt lat="46.47047" lon="4.65622">
        <ele>312.57</ele>
        <time>2017-10-21T13:21:28Z</time>
      </trkpt>
      <trkpt lat="46.47051" lon="4.65608">
        <ele>312.09</ele>
        <time>2017-10-21T13:21:37Z</time>
      </trkpt>
      <trkpt lat="46.47058" lon="4.65591">
        <ele>311.12</ele>
        <time>2017-10-21T13:21:48Z</time>
      </trkpt>
      <trkpt lat="46.47064" lon="4.65579">
        <ele>310.64</ele>
        <time>2017-10-21T13:21:56Z</time>
      </trkpt>
      <trkpt lat="46.47067" lon="4.65569">
        <ele>310.16</ele>
        <time>2017-10-21T13:22:03Z</time>
      </trkpt>
      <trkpt lat="46.4707" lon="4.65565">
        <ele>310.64</ele>
        <time>2017-10-21T13:22:06Z</time>
      </trkpt>
      <trkpt lat="46.47078" lon="4.65553">
        <ele>309.68</ele>
        <time>2017-10-21T13:22:15Z</time>
      </trkpt>
      <trkpt lat="46.47084" lon="4.65542">
        <ele>308.72</ele>
        <time>2017-10-21T13:22:23Z</time>
      </trkpt>
      <trkpt lat="46.47086" lon="4.6554">
        <ele>308.72</ele>
        <time>2017-10-21T13:22:25Z</time>
      </trkpt>
      <trkpt lat="46.4709" lon="4.65534">
        <ele>308.72</ele>
        <time>2017-10-21T13:22:29Z</time>
      </trkpt>
      <trkpt lat="46.47096" lon="4.65526">
        <ele>308.24</ele>
        <time>2017-10-21T13:22:36Z</time>
      </trkpt>
      <trkpt lat="46.47102" lon="4.65521">
        <ele>308.24</ele>
        <time>2017-10-21T13:22:41Z</time>
      </trkpt>
      <trkpt lat="46.47109" lon="4.65507">
        <ele>307.76</ele>
        <time>2017-10-21T13:22:50Z</time>
      </trkpt>
      <trkpt lat="46.47115" lon="4.65497">
        <ele>307.76</ele>
        <time>2017-10-21T13:22:58Z</time>
      </trkpt>
      <trkpt lat="46.47119" lon="4.65487">
        <ele>307.76</ele>
        <time>2017-10-21T13:23:05Z</time>
      </trkpt>
      <trkpt lat="46.47125" lon="4.65474">
        <ele>307.28</ele>
        <time>2017-10-21T13:23:14Z</time>
      </trkpt>
      <trkpt lat="46.47126" lon="4.65472">
        <ele>307.28</ele>
        <time>2017-10-21T13:23:16Z</time>
      </trkpt>
      <trkpt lat="46.47133" lon="4.65458">
        <ele>306.8</ele>
        <time>2017-10-21T13:23:26Z</time>
      </trkpt>
      <trkpt lat="46.47141" lon="4.65441">
        <ele>306.32</ele>
        <time>2017-10-21T13:23:37Z</time>
      </trkpt>
      <trkpt lat="46.47146" lon="4.65433">
        <ele>305.84</ele>
        <time>2017-10-21T13:23:42Z</time>
      </trkpt>
      <trkpt lat="46.47152" lon="4.65423">
        <ele>306.32</ele>
        <time>2017-10-21T13:23:50Z</time>
      </trkpt>
      <trkpt lat="46.47162" lon="4.65416">
        <ele>304.88</ele>
        <time>2017-10-21T13:23:59Z</time>
      </trkpt>
      <trkpt lat="46.4717" lon="4.65407">
        <ele>304.39</ele>
        <time>2017-10-21T13:24:07Z</time>
      </trkpt>
      <trkpt lat="46.47171" lon="4.65406">
        <ele>304.39</ele>
        <time>2017-10-21T13:24:08Z</time>
      </trkpt>
      <trkpt lat="46.47177" lon="4.65397">
        <ele>303.91</ele>
        <time>2017-10-21T13:24:15Z</time>
      </trkpt>
      <trkpt lat="46.47184" lon="4.65393">
        <ele>303.91</ele>
        <time>2017-10-21T13:24:21Z</time>
      </trkpt>
      <trkpt lat="46.47193" lon="4.65384">
        <ele>304.39</ele>
        <time>2017-10-21T13:24:30Z</time>
      </trkpt>
      <trkpt lat="46.47196" lon="4.65382">
        <ele>303.91</ele>
        <time>2017-10-21T13:24:33Z</time>
      </trkpt>
      <trkpt lat="46.47201" lon="4.65379">
        <ele>303.43</ele>
        <time>2017-10-21T13:24:37Z</time>
      </trkpt>
      <trkpt lat="46.47207" lon="4.65387">
        <ele>302.47</ele>
        <time>2017-10-21T13:24:44Z</time>
      </trkpt>
      <trkpt lat="46.47211" lon="4.65395">
        <ele>302.47</ele>
        <time>2017-10-21T13:24:51Z</time>
      </trkpt>
      <trkpt lat="46.47214" lon="4.65401">
        <ele>302.47</ele>
        <time>2017-10-21T13:24:58Z</time>
      </trkpt>
      <trkpt lat="46.47215" lon="4.654">
        <ele>302.47</ele>
        <time>2017-10-21T13:25:07Z</time>
      </trkpt>
      <trkpt lat="46.47215" lon="4.654">
        <ele>302.95</ele>
        <time>2017-10-21T13:25:23Z</time>
      </trkpt>
      <trkpt lat="46.47215" lon="4.654">
        <ele>302.47</ele>
        <time>2017-10-21T13:25:36Z</time>
      </trkpt>
      <trkpt lat="46.47215" lon="4.65401">
        <ele>301.99</ele>
        <time>2017-10-21T13:25:42Z</time>
      </trkpt>
      <trkpt lat="46.47215" lon="4.65402">
        <ele>302.47</ele>
        <time>2017-10-21T13:25:57Z</time>
      </trkpt>
      <trkpt lat="46.47214" lon="4.65402">
        <ele>302.47</ele>
        <time>2017-10-21T13:26:04Z</time>
      </trkpt>
      <trkpt lat="46.47214" lon="4.65402">
        <ele>302.47</ele>
        <time>2017-10-21T13:26:10Z</time>
      </trkpt>
      <trkpt lat="46.47214" lon="4.65402">
        <ele>302.47</ele>
        <time>2017-10-21T13:26:17Z</time>
      </trkpt>
      <trkpt lat="46.47214" lon="4.65399">
        <ele>302.47</ele>
        <time>2017-10-21T13:26:24Z</time>
      </trkpt>
      <trkpt lat="46.47213" lon="4.65399">
        <ele>302.47</ele>
        <time>2017-10-21T13:26:33Z</time>
      </trkpt>
      <trkpt lat="46.47211" lon="4.65397">
        <ele>302.47</ele>
        <time>2017-10-21T13:26:39Z</time>
      </trkpt>
      <trkpt lat="46.47211" lon="4.65397">
        <ele>302.47</ele>
        <time>2017-10-21T13:26:51Z</time>
      </trkpt>
      <trkpt lat="46.4721" lon="4.65395">
        <ele>302.47</ele>
        <time>2017-10-21T13:26:57Z</time>
      </trkpt>
      <trkpt lat="46.47207" lon="4.65388">
        <ele>302.47</ele>
        <time>2017-10-21T13:27:04Z</time>
      </trkpt>
      <trkpt lat="46.47206" lon="4.65382">
        <ele>302.95</ele>
        <time>2017-10-21T13:27:12Z</time>
      </trkpt>
      <trkpt lat="46.47207" lon="4.65381">
        <ele>302.95</ele>
        <time>2017-10-21T13:27:20Z</time>
      </trkpt>
      <trkpt lat="46.47206" lon="4.65381">
        <ele>302.47</ele>
        <time>2017-10-21T13:27:36Z</time>
      </trkpt>
      <trkpt lat="46.47207" lon="4.65381">
        <ele>302.47</ele>
        <time>2017-10-21T13:27:47Z</time>
      </trkpt>
      <trkpt lat="46.47206" lon="4.65381">
        <ele>302.47</ele>
        <time>2017-10-21T13:27:58Z</time>
      </trkpt>
      <trkpt lat="46.47206" lon="4.65381">
        <ele>302.47</ele>
        <time>2017-10-21T13:28:08Z</time>
      </trkpt>
      <trkpt lat="46.47205" lon="4.65378">
        <ele>302.95</ele>
        <time>2017-10-21T13:28:18Z</time>
      </trkpt>
      <trkpt lat="46.47204" lon="4.65376">
        <ele>302.95</ele>
        <time>2017-10-21T13:28:24Z</time>
      </trkpt>
      <trkpt lat="46.47204" lon="4.65375">
        <ele>302.95</ele>
        <time>2017-10-21T13:28:38Z</time>
      </trkpt>
      <trkpt lat="46.47204" lon="4.65376">
        <ele>302.47</ele>
        <time>2017-10-21T13:28:52Z</time>
      </trkpt>
      <trkpt lat="46.47203" lon="4.65375">
        <ele>302.47</ele>
        <time>2017-10-21T13:29:05Z</time>
      </trkpt>
      <trkpt lat="46.47204" lon="4.65375">
        <ele>302.47</ele>
        <time>2017-10-21T13:29:17Z</time>
      </trkpt>
      <trkpt lat="46.47204" lon="4.65375">
        <ele>302.95</ele>
        <time>2017-10-21T13:29:27Z</time>
      </trkpt>
      <trkpt lat="46.47205" lon="4.65375">
        <ele>302.95</ele>
        <time>2017-10-21T13:29:32Z</time>
      </trkpt>
      <trkpt lat="46.47205" lon="4.65374">
        <ele>302.47</ele>
        <time>2017-10-21T13:29:36Z</time>
      </trkpt>
      <trkpt lat="46.47206" lon="4.65373">
        <ele>302.47</ele>
        <time>2017-10-21T13:29:38Z</time>
      </trkpt>
      <trkpt lat="46.47214" lon="4.65364">
        <ele>302.95</ele>
        <time>2017-10-21T13:29:48Z</time>
      </trkpt>
      <trkpt lat="46.47219" lon="4.65359">
        <ele>302.95</ele>
        <time>2017-10-21T13:29:56Z</time>
      </trkpt>
      <trkpt lat="46.4722" lon="4.65358">
        <ele>302.95</ele>
        <time>2017-10-21T13:29:57Z</time>
      </trkpt>
      <trkpt lat="46.47221" lon="4.65356">
        <ele>303.43</ele>
        <time>2017-10-21T13:29:59Z</time>
      </trkpt>
      <trkpt lat="46.47226" lon="4.65352">
        <ele>303.43</ele>
        <time>2017-10-21T13:30:06Z</time>
      </trkpt>
      <trkpt lat="46.4723" lon="4.65346">
        <ele>303.91</ele>
        <time>2017-10-21T13:30:13Z</time>
      </trkpt>
      <trkpt lat="46.47235" lon="4.65338">
        <ele>304.39</ele>
        <time>2017-10-21T13:30:20Z</time>
      </trkpt>
      <trkpt lat="46.47238" lon="4.65335">
        <ele>304.88</ele>
        <time>2017-10-21T13:30:23Z</time>
      </trkpt>
      <trkpt lat="46.47241" lon="4.65332">
        <ele>304.88</ele>
        <time>2017-10-21T13:30:26Z</time>
      </trkpt>
      <trkpt lat="46.47242" lon="4.6533">
        <ele>304.88</ele>
        <time>2017-10-21T13:30:28Z</time>
      </trkpt>
      <trkpt lat="46.47246" lon="4.65324">
        <ele>305.36</ele>
        <time>2017-10-21T13:30:34Z</time>
      </trkpt>
      <trkpt lat="46.47248" lon="4.65323">
        <ele>305.84</ele>
        <time>2017-10-21T13:30:39Z</time>
      </trkpt>
      <trkpt lat="46.47249" lon="4.65321">
        <ele>305.84</ele>
        <time>2017-10-21T13:30:41Z</time>
      </trkpt>
      <trkpt lat="46.47257" lon="4.65312">
        <ele>307.28</ele>
        <time>2017-10-21T13:30:51Z</time>
      </trkpt>
      <trkpt lat="46.47262" lon="4.65307">
        <ele>307.76</ele>
        <time>2017-10-21T13:30:56Z</time>
      </trkpt>
      <trkpt lat="46.47267" lon="4.65304">
        <ele>308.24</ele>
        <time>2017-10-21T13:31:01Z</time>
      </trkpt>
      <trkpt lat="46.4727" lon="4.65303">
        <ele>308.24</ele>
        <time>2017-10-21T13:31:04Z</time>
      </trkpt>
      <trkpt lat="46.47277" lon="4.65302">
        <ele>309.2</ele>
        <time>2017-10-21T13:31:11Z</time>
      </trkpt>
      <trkpt lat="46.47281" lon="4.65302">
        <ele>309.68</ele>
        <time>2017-10-21T13:31:15Z</time>
      </trkpt>
      <trkpt lat="46.47286" lon="4.653">
        <ele>310.16</ele>
        <time>2017-10-21T13:31:23Z</time>
      </trkpt>
      <trkpt lat="46.4729" lon="4.65294">
        <ele>311.6</ele>
        <time>2017-10-21T13:31:30Z</time>
      </trkpt>
      <trkpt lat="46.47289" lon="4.65288">
        <ele>312.09</ele>
        <time>2017-10-21T13:31:34Z</time>
      </trkpt>
      <trkpt lat="46.4729" lon="4.65282">
        <ele>313.05</ele>
        <time>2017-10-21T13:31:38Z</time>
      </trkpt>
      <trkpt lat="46.47291" lon="4.65273">
        <ele>314.01</ele>
        <time>2017-10-21T13:31:45Z</time>
      </trkpt>
      <trkpt lat="46.47291" lon="4.65268">
        <ele>314.49</ele>
        <time>2017-10-21T13:31:50Z</time>
      </trkpt>
      <trkpt lat="46.4729" lon="4.6526">
        <ele>314.97</ele>
        <time>2017-10-21T13:31:58Z</time>
      </trkpt>
      <trkpt lat="46.47291" lon="4.6526">
        <ele>314.97</ele>
        <time>2017-10-21T13:32:07Z</time>
      </trkpt>
      <trkpt lat="46.47291" lon="4.65264">
        <ele>314.49</ele>
        <time>2017-10-21T13:32:13Z</time>
      </trkpt>
      <trkpt lat="46.47294" lon="4.65266">
        <ele>314.49</ele>
        <time>2017-10-21T13:32:17Z</time>
      </trkpt>
      <trkpt lat="46.47297" lon="4.65274">
        <ele>314.97</ele>
        <time>2017-10-21T13:32:25Z</time>
      </trkpt>
      <trkpt lat="46.47296" lon="4.65277">
        <ele>314.49</ele>
        <time>2017-10-21T13:32:32Z</time>
      </trkpt>
      <trkpt lat="46.47297" lon="4.65277">
        <ele>314.97</ele>
        <time>2017-10-21T13:32:44Z</time>
      </trkpt>
      <trkpt lat="46.47296" lon="4.65277">
        <ele>314.49</ele>
        <time>2017-10-21T13:32:53Z</time>
      </trkpt>
      <trkpt lat="46.47295" lon="4.65276">
        <ele>314.97</ele>
        <time>2017-10-21T13:33:01Z</time>
      </trkpt>
      <trkpt lat="46.47295" lon="4.65274">
        <ele>314.97</ele>
        <time>2017-10-21T13:33:07Z</time>
      </trkpt>
      <trkpt lat="46.47294" lon="4.65268">
        <ele>314.97</ele>
        <time>2017-10-21T13:33:13Z</time>
      </trkpt>
      <trkpt lat="46.47294" lon="4.65265">
        <ele>314.97</ele>
        <time>2017-10-21T13:33:19Z</time>
      </trkpt>
      <trkpt lat="46.47294" lon="4.65264">
        <ele>314.97</ele>
        <time>2017-10-21T13:33:29Z</time>
      </trkpt>
      <trkpt lat="46.47293" lon="4.65263">
        <ele>314.97</ele>
        <time>2017-10-21T13:33:41Z</time>
      </trkpt>
      <trkpt lat="46.47293" lon="4.65262">
        <ele>314.97</ele>
        <time>2017-10-21T13:33:42Z</time>
      </trkpt>
      <trkpt lat="46.47288" lon="4.65255">
        <ele>315.93</ele>
        <time>2017-10-21T13:33:51Z</time>
      </trkpt>
      <trkpt lat="46.47286" lon="4.65251">
        <ele>315.45</ele>
        <time>2017-10-21T13:33:55Z</time>
      </trkpt>
      <trkpt lat="46.47283" lon="4.65246">
        <ele>316.41</ele>
        <time>2017-10-21T13:34:01Z</time>
      </trkpt>
      <trkpt lat="46.47282" lon="4.65245">
        <ele>316.89</ele>
        <time>2017-10-21T13:34:02Z</time>
      </trkpt>
      <trkpt lat="46.4728" lon="4.65239">
        <ele>316.89</ele>
        <time>2017-10-21T13:34:06Z</time>
      </trkpt>
      <trkpt lat="46.47276" lon="4.65231">
        <ele>317.85</ele>
        <time>2017-10-21T13:34:13Z</time>
      </trkpt>
      <trkpt lat="46.47272" lon="4.65221">
        <ele>318.33</ele>
        <time>2017-10-21T13:34:20Z</time>
      </trkpt>
      <trkpt lat="46.47271" lon="4.6522">
        <ele>318.33</ele>
        <time>2017-10-21T13:34:21Z</time>
      </trkpt>
      <trkpt lat="46.47268" lon="4.65214">
        <ele>318.81</ele>
        <time>2017-10-21T13:34:27Z</time>
      </trkpt>
      <trkpt lat="46.47267" lon="4.65212">
        <ele>318.81</ele>
        <time>2017-10-21T13:34:35Z</time>
      </trkpt>
      <trkpt lat="46.47267" lon="4.65209">
        <ele>318.81</ele>
        <time>2017-10-21T13:34:38Z</time>
      </trkpt>
      <trkpt lat="46.47264" lon="4.65199">
        <ele>319.3</ele>
        <time>2017-10-21T13:34:46Z</time>
      </trkpt>
      <trkpt lat="46.47264" lon="4.65196">
        <ele>319.3</ele>
        <time>2017-10-21T13:34:48Z</time>
      </trkpt>
      <trkpt lat="46.47262" lon="4.65188">
        <ele>319.78</ele>
        <time>2017-10-21T13:34:53Z</time>
      </trkpt>
      <trkpt lat="46.4726" lon="4.65181">
        <ele>319.78</ele>
        <time>2017-10-21T13:34:58Z</time>
      </trkpt>
      <trkpt lat="46.47259" lon="4.65174">
        <ele>319.78</ele>
        <time>2017-10-21T13:35:03Z</time>
      </trkpt>
      <trkpt lat="46.47258" lon="4.6517">
        <ele>320.26</ele>
        <time>2017-10-21T13:35:06Z</time>
      </trkpt>
      <trkpt lat="46.47256" lon="4.65159">
        <ele>320.74</ele>
        <time>2017-10-21T13:35:13Z</time>
      </trkpt>
      <trkpt lat="46.47255" lon="4.65154">
        <ele>320.74</ele>
        <time>2017-10-21T13:35:17Z</time>
      </trkpt>
      <trkpt lat="46.4725" lon="4.65148">
        <ele>321.22</ele>
        <time>2017-10-21T13:35:24Z</time>
      </trkpt>
      <trkpt lat="46.4725" lon="4.65147">
        <ele>321.22</ele>
        <time>2017-10-21T13:35:25Z</time>
      </trkpt>
      <trkpt lat="46.47248" lon="4.65136">
        <ele>321.7</ele>
        <time>2017-10-21T13:35:33Z</time>
      </trkpt>
      <trkpt lat="46.47247" lon="4.65129">
        <ele>322.18</ele>
        <time>2017-10-21T13:35:38Z</time>
      </trkpt>
      <trkpt lat="46.47245" lon="4.65117">
        <ele>323.14</ele>
        <time>2017-10-21T13:35:45Z</time>
      </trkpt>
      <trkpt lat="46.47243" lon="4.65102">
        <ele>324.1</ele>
        <time>2017-10-21T13:35:53Z</time>
      </trkpt>
      <trkpt lat="46.47243" lon="4.65095">
        <ele>324.58</ele>
        <time>2017-10-21T13:35:57Z</time>
      </trkpt>
      <trkpt lat="46.47243" lon="4.65083">
        <ele>325.06</ele>
        <time>2017-10-21T13:36:04Z</time>
      </trkpt>
      <trkpt lat="46.47243" lon="4.65082">
        <ele>325.54</ele>
        <time>2017-10-21T13:36:05Z</time>
      </trkpt>
      <trkpt lat="46.47244" lon="4.65068">
        <ele>326.5</ele>
        <time>2017-10-21T13:36:13Z</time>
      </trkpt>
      <trkpt lat="46.47243" lon="4.65064">
        <ele>326.99</ele>
        <time>2017-10-21T13:36:16Z</time>
      </trkpt>
      <trkpt lat="46.47242" lon="4.65053">
        <ele>327.47</ele>
        <time>2017-10-21T13:36:23Z</time>
      </trkpt>
      <trkpt lat="46.47242" lon="4.65046">
        <ele>328.43</ele>
        <time>2017-10-21T13:36:30Z</time>
      </trkpt>
      <trkpt lat="46.47242" lon="4.65043">
        <ele>328.43</ele>
        <time>2017-10-21T13:36:36Z</time>
      </trkpt>
      <trkpt lat="46.47241" lon="4.65032">
        <ele>329.39</ele>
        <time>2017-10-21T13:36:44Z</time>
      </trkpt>
      <trkpt lat="46.47241" lon="4.65022">
        <ele>330.35</ele>
        <time>2017-10-21T13:36:51Z</time>
      </trkpt>
      <trkpt lat="46.47239" lon="4.65014">
        <ele>330.83</ele>
        <time>2017-10-21T13:36:56Z</time>
      </trkpt>
      <trkpt lat="46.47238" lon="4.65005">
        <ele>331.31</ele>
        <time>2017-10-21T13:37:02Z</time>
      </trkpt>
      <trkpt lat="46.47237" lon="4.64999">
        <ele>331.79</ele>
        <time>2017-10-21T13:37:07Z</time>
      </trkpt>
      <trkpt lat="46.47236" lon="4.64989">
        <ele>332.27</ele>
        <time>2017-10-21T13:37:14Z</time>
      </trkpt>
      <trkpt lat="46.47235" lon="4.64982">
        <ele>333.23</ele>
        <time>2017-10-21T13:37:19Z</time>
      </trkpt>
      <trkpt lat="46.47235" lon="4.6498">
        <ele>333.23</ele>
        <time>2017-10-21T13:37:20Z</time>
      </trkpt>
      <trkpt lat="46.47233" lon="4.64971">
        <ele>333.71</ele>
        <time>2017-10-21T13:37:26Z</time>
      </trkpt>
      <trkpt lat="46.47232" lon="4.6496">
        <ele>334.2</ele>
        <time>2017-10-21T13:37:33Z</time>
      </trkpt>
      <trkpt lat="46.47231" lon="4.64948">
        <ele>335.16</ele>
        <time>2017-10-21T13:37:41Z</time>
      </trkpt>
      <trkpt lat="46.47229" lon="4.64939">
        <ele>335.64</ele>
        <time>2017-10-21T13:37:48Z</time>
      </trkpt>
      <trkpt lat="46.47228" lon="4.6493">
        <ele>336.12</ele>
        <time>2017-10-21T13:37:54Z</time>
      </trkpt>
      <trkpt lat="46.47225" lon="4.6492">
        <ele>337.08</ele>
        <time>2017-10-21T13:38:02Z</time>
      </trkpt>
      <trkpt lat="46.47223" lon="4.64909">
        <ele>338.04</ele>
        <time>2017-10-21T13:38:10Z</time>
      </trkpt>
      <trkpt lat="46.47222" lon="4.649">
        <ele>338.52</ele>
        <time>2017-10-21T13:38:17Z</time>
      </trkpt>
      <trkpt lat="46.47221" lon="4.64898">
        <ele>339</ele>
        <time>2017-10-21T13:38:19Z</time>
      </trkpt>
      <trkpt lat="46.47219" lon="4.64886">
        <ele>339.48</ele>
        <time>2017-10-21T13:38:26Z</time>
      </trkpt>
      <trkpt lat="46.4722" lon="4.64884">
        <ele>339.96</ele>
        <time>2017-10-21T13:38:33Z</time>
      </trkpt>
      <trkpt lat="46.4722" lon="4.64884">
        <ele>339.48</ele>
        <time>2017-10-21T13:38:44Z</time>
      </trkpt>
      <trkpt lat="46.47219" lon="4.64884">
        <ele>339.96</ele>
        <time>2017-10-21T13:38:54Z</time>
      </trkpt>
      <trkpt lat="46.47218" lon="4.64883">
        <ele>339.48</ele>
        <time>2017-10-21T13:39:01Z</time>
      </trkpt>
      <trkpt lat="46.47217" lon="4.64881">
        <ele>339.96</ele>
        <time>2017-10-21T13:39:11Z</time>
      </trkpt>
      <trkpt lat="46.47217" lon="4.6488">
        <ele>339.48</ele>
        <time>2017-10-21T13:39:26Z</time>
      </trkpt>
      <trkpt lat="46.47216" lon="4.64878">
        <ele>339.48</ele>
        <time>2017-10-21T13:39:34Z</time>
      </trkpt>
      <trkpt lat="46.47215" lon="4.64875">
        <ele>339.48</ele>
        <time>2017-10-21T13:39:41Z</time>
      </trkpt>
      <trkpt lat="46.47214" lon="4.64874">
        <ele>339.48</ele>
        <time>2017-10-21T13:39:53Z</time>
      </trkpt>
      <trkpt lat="46.47214" lon="4.64872">
        <ele>339.48</ele>
        <time>2017-10-21T13:40:01Z</time>
      </trkpt>
      <trkpt lat="46.47214" lon="4.64873">
        <ele>339.96</ele>
        <time>2017-10-21T13:40:07Z</time>
      </trkpt>
      <trkpt lat="46.47214" lon="4.64873">
        <ele>339.48</ele>
        <time>2017-10-21T13:40:18Z</time>
      </trkpt>
      <trkpt lat="46.47213" lon="4.64871">
        <ele>339.48</ele>
        <time>2017-10-21T13:40:25Z</time>
      </trkpt>
      <trkpt lat="46.47212" lon="4.64868">
        <ele>339.48</ele>
        <time>2017-10-21T13:40:31Z</time>
      </trkpt>
      <trkpt lat="46.47212" lon="4.64865">
        <ele>339.48</ele>
        <time>2017-10-21T13:40:39Z</time>
      </trkpt>
      <trkpt lat="46.47211" lon="4.64863">
        <ele>339.48</ele>
        <time>2017-10-21T13:40:52Z</time>
      </trkpt>
      <trkpt lat="46.47211" lon="4.64861">
        <ele>339.48</ele>
        <time>2017-10-21T13:40:54Z</time>
      </trkpt>
      <trkpt lat="46.47216" lon="4.64856">
        <ele>340.44</ele>
        <time>2017-10-21T13:41:01Z</time>
      </trkpt>
      <trkpt lat="46.47219" lon="4.64854">
        <ele>341.41</ele>
        <time>2017-10-21T13:41:07Z</time>
      </trkpt>
      <trkpt lat="46.47219" lon="4.64853">
        <ele>341.41</ele>
        <time>2017-10-21T13:41:08Z</time>
      </trkpt>
      <trkpt lat="46.47222" lon="4.6485">
        <ele>342.37</ele>
        <time>2017-10-21T13:41:13Z</time>
      </trkpt>
      <trkpt lat="46.47228" lon="4.64852">
        <ele>342.37</ele>
        <time>2017-10-21T13:41:20Z</time>
      </trkpt>
      <trkpt lat="46.47229" lon="4.64851">
        <ele>342.37</ele>
        <time>2017-10-21T13:41:26Z</time>
      </trkpt>
      <trkpt lat="46.47229" lon="4.6485">
        <ele>342.37</ele>
        <time>2017-10-21T13:41:35Z</time>
      </trkpt>
      <trkpt lat="46.47231" lon="4.6485">
        <ele>342.37</ele>
        <time>2017-10-21T13:41:43Z</time>
      </trkpt>
      <trkpt lat="46.47231" lon="4.64848">
        <ele>342.85</ele>
        <time>2017-10-21T13:41:46Z</time>
      </trkpt>
      <trkpt lat="46.47232" lon="4.64843">
        <ele>343.81</ele>
        <time>2017-10-21T13:41:53Z</time>
      </trkpt>
      <trkpt lat="46.47235" lon="4.64841">
        <ele>344.77</ele>
        <time>2017-10-21T13:41:57Z</time>
      </trkpt>
      <trkpt lat="46.4724" lon="4.64842">
        <ele>345.25</ele>
        <time>2017-10-21T13:42:03Z</time>
      </trkpt>
      <trkpt lat="46.47241" lon="4.64842">
        <ele>345.73</ele>
        <time>2017-10-21T13:42:09Z</time>
      </trkpt>
      <trkpt lat="46.47242" lon="4.64842">
        <ele>345.73</ele>
        <time>2017-10-21T13:42:20Z</time>
      </trkpt>
      <trkpt lat="46.47245" lon="4.64846">
        <ele>346.21</ele>
        <time>2017-10-21T13:42:26Z</time>
      </trkpt>
      <trkpt lat="46.4725" lon="4.64853">
        <ele>347.17</ele>
        <time>2017-10-21T13:42:34Z</time>
      </trkpt>
      <trkpt lat="46.47251" lon="4.64853">
        <ele>347.65</ele>
        <time>2017-10-21T13:42:35Z</time>
      </trkpt>
      <trkpt lat="46.47257" lon="4.64861">
        <ele>348.62</ele>
        <time>2017-10-21T13:42:42Z</time>
      </trkpt>
      <trkpt lat="46.47259" lon="4.64865">
        <ele>349.58</ele>
        <time>2017-10-21T13:42:46Z</time>
      </trkpt>
      <trkpt lat="46.47265" lon="4.64873">
        <ele>350.54</ele>
        <time>2017-10-21T13:42:52Z</time>
      </trkpt>
      <trkpt lat="46.47266" lon="4.64874">
        <ele>350.54</ele>
        <time>2017-10-21T13:42:53Z</time>
      </trkpt>
      <trkpt lat="46.47272" lon="4.64878">
        <ele>351.5</ele>
        <time>2017-10-21T13:42:59Z</time>
      </trkpt>
      <trkpt lat="46.47278" lon="4.64882">
        <ele>352.46</ele>
        <time>2017-10-21T13:43:04Z</time>
      </trkpt>
      <trkpt lat="46.47285" lon="4.64887">
        <ele>353.42</ele>
        <time>2017-10-21T13:43:10Z</time>
      </trkpt>
      <trkpt lat="46.47287" lon="4.64887">
        <ele>353.9</ele>
        <time>2017-10-21T13:43:11Z</time>
      </trkpt>
      <trkpt lat="46.47294" lon="4.64892">
        <ele>354.38</ele>
        <time>2017-10-21T13:43:17Z</time>
      </trkpt>
      <trkpt lat="46.47303" lon="4.6489">
        <ele>355.83</ele>
        <time>2017-10-21T13:43:25Z</time>
      </trkpt>
      <trkpt lat="46.47306" lon="4.64878">
        <ele>356.79</ele>
        <time>2017-10-21T13:43:33Z</time>
      </trkpt>
      <trkpt lat="46.47307" lon="4.64868">
        <ele>357.27</ele>
        <time>2017-10-21T13:43:39Z</time>
      </trkpt>
      <trkpt lat="46.47306" lon="4.64857">
        <ele>358.23</ele>
        <time>2017-10-21T13:43:46Z</time>
      </trkpt>
      <trkpt lat="46.47305" lon="4.64849">
        <ele>359.67</ele>
        <time>2017-10-21T13:43:52Z</time>
      </trkpt>
      <trkpt lat="46.47305" lon="4.64846">
        <ele>359.19</ele>
        <time>2017-10-21T13:43:54Z</time>
      </trkpt>
      <trkpt lat="46.47301" lon="4.64839">
        <ele>359.67</ele>
        <time>2017-10-21T13:44:02Z</time>
      </trkpt>
      <trkpt lat="46.47301" lon="4.6484">
        <ele>359.67</ele>
        <time>2017-10-21T13:44:08Z</time>
      </trkpt>
      <trkpt lat="46.473" lon="4.64838">
        <ele>359.67</ele>
        <time>2017-10-21T13:44:09Z</time>
      </trkpt>
      <trkpt lat="46.47298" lon="4.64835">
        <ele>360.15</ele>
        <time>2017-10-21T13:44:15Z</time>
      </trkpt>
      <trkpt lat="46.47296" lon="4.6483">
        <ele>360.15</ele>
        <time>2017-10-21T13:44:23Z</time>
      </trkpt>
      <trkpt lat="46.47294" lon="4.64826">
        <ele>360.63</ele>
        <time>2017-10-21T13:44:29Z</time>
      </trkpt>
      <trkpt lat="46.47292" lon="4.64823">
        <ele>360.63</ele>
        <time>2017-10-21T13:44:36Z</time>
      </trkpt>
      <trkpt lat="46.47292" lon="4.64822">
        <ele>360.63</ele>
        <time>2017-10-21T13:44:51Z</time>
      </trkpt>
      <trkpt lat="46.4729" lon="4.64818">
        <ele>361.11</ele>
        <time>2017-10-21T13:44:54Z</time>
      </trkpt>
      <trkpt lat="46.47289" lon="4.64816">
        <ele>361.59</ele>
        <time>2017-10-21T13:45:01Z</time>
      </trkpt>
      <trkpt lat="46.47289" lon="4.64815">
        <ele>361.59</ele>
        <time>2017-10-21T13:45:16Z</time>
      </trkpt>
      <trkpt lat="46.47289" lon="4.64815">
        <ele>361.59</ele>
        <time>2017-10-21T13:45:25Z</time>
      </trkpt>
      <trkpt lat="46.47288" lon="4.64815">
        <ele>361.11</ele>
        <time>2017-10-21T13:45:34Z</time>
      </trkpt>
      <trkpt lat="46.47288" lon="4.64815">
        <ele>361.59</ele>
        <time>2017-10-21T13:45:35Z</time>
      </trkpt>
      <trkpt lat="46.47287" lon="4.64801">
        <ele>362.07</ele>
        <time>2017-10-21T13:45:43Z</time>
      </trkpt>
      <trkpt lat="46.47288" lon="4.64794">
        <ele>362.55</ele>
        <time>2017-10-21T13:45:49Z</time>
      </trkpt>
      <trkpt lat="46.47288" lon="4.64788">
        <ele>363.04</ele>
        <time>2017-10-21T13:45:54Z</time>
      </trkpt>
      <trkpt lat="46.4729" lon="4.64783">
        <ele>363.52</ele>
        <time>2017-10-21T13:46:02Z</time>
      </trkpt>
      <trkpt lat="46.47291" lon="4.64775">
        <ele>364.48</ele>
        <time>2017-10-21T13:46:10Z</time>
      </trkpt>
      <trkpt lat="46.47293" lon="4.64768">
        <ele>364.96</ele>
        <time>2017-10-21T13:46:16Z</time>
      </trkpt>
      <trkpt lat="46.47294" lon="4.64765">
        <ele>365.44</ele>
        <time>2017-10-21T13:46:19Z</time>
      </trkpt>
      <trkpt lat="46.47295" lon="4.64761">
        <ele>365.44</ele>
        <time>2017-10-21T13:46:22Z</time>
      </trkpt>
      <trkpt lat="46.47297" lon="4.64753">
        <ele>365.92</ele>
        <time>2017-10-21T13:46:29Z</time>
      </trkpt>
      <trkpt lat="46.47298" lon="4.64748">
        <ele>366.4</ele>
        <time>2017-10-21T13:46:36Z</time>
      </trkpt>
      <trkpt lat="46.473" lon="4.64742">
        <ele>367.36</ele>
        <time>2017-10-21T13:46:41Z</time>
      </trkpt>
      <trkpt lat="46.473" lon="4.64738">
        <ele>367.36</ele>
        <time>2017-10-21T13:46:47Z</time>
      </trkpt>
      <trkpt lat="46.47301" lon="4.64736">
        <ele>367.84</ele>
        <time>2017-10-21T13:46:49Z</time>
      </trkpt>
      <trkpt lat="46.47303" lon="4.6473">
        <ele>368.32</ele>
        <time>2017-10-21T13:46:54Z</time>
      </trkpt>
      <trkpt lat="46.47303" lon="4.64728">
        <ele>368.32</ele>
        <time>2017-10-21T13:46:56Z</time>
      </trkpt>
      <trkpt lat="46.47304" lon="4.64723">
        <ele>368.8</ele>
        <time>2017-10-21T13:47:00Z</time>
      </trkpt>
      <trkpt lat="46.47304" lon="4.64715">
        <ele>369.28</ele>
        <time>2017-10-21T13:47:07Z</time>
      </trkpt>
      <trkpt lat="46.47304" lon="4.64714">
        <ele>369.28</ele>
        <time>2017-10-21T13:47:09Z</time>
      </trkpt>
      <trkpt lat="46.47304" lon="4.6471">
        <ele>369.76</ele>
        <time>2017-10-21T13:47:15Z</time>
      </trkpt>
      <trkpt lat="46.47304" lon="4.64705">
        <ele>370.24</ele>
        <time>2017-10-21T13:47:19Z</time>
      </trkpt>
      <trkpt lat="46.47305" lon="4.64698">
        <ele>371.21</ele>
        <time>2017-10-21T13:47:26Z</time>
      </trkpt>
      <trkpt lat="46.47305" lon="4.64691">
        <ele>371.69</ele>
        <time>2017-10-21T13:47:31Z</time>
      </trkpt>
      <trkpt lat="46.47305" lon="4.64685">
        <ele>371.69</ele>
        <time>2017-10-21T13:47:36Z</time>
      </trkpt>
      <trkpt lat="46.47305" lon="4.6468">
        <ele>372.17</ele>
        <time>2017-10-21T13:47:39Z</time>
      </trkpt>
      <trkpt lat="46.47305" lon="4.64673">
        <ele>372.65</ele>
        <time>2017-10-21T13:47:46Z</time>
      </trkpt>
      <trkpt lat="46.47303" lon="4.64666">
        <ele>374.09</ele>
        <time>2017-10-21T13:47:52Z</time>
      </trkpt>
      <trkpt lat="46.47302" lon="4.64662">
        <ele>374.09</ele>
        <time>2017-10-21T13:47:57Z</time>
      </trkpt>
      <trkpt lat="46.47301" lon="4.64655">
        <ele>374.57</ele>
        <time>2017-10-21T13:48:03Z</time>
      </trkpt>
      <trkpt lat="46.473" lon="4.64654">
        <ele>374.57</ele>
        <time>2017-10-21T13:48:04Z</time>
      </trkpt>
      <trkpt lat="46.47298" lon="4.64643">
        <ele>375.53</ele>
        <time>2017-10-21T13:48:12Z</time>
      </trkpt>
      <trkpt lat="46.47297" lon="4.64634">
        <ele>376.49</ele>
        <time>2017-10-21T13:48:19Z</time>
      </trkpt>
      <trkpt lat="46.47296" lon="4.64626">
        <ele>376.97</ele>
        <time>2017-10-21T13:48:25Z</time>
      </trkpt>
      <trkpt lat="46.47294" lon="4.64618">
        <ele>377.94</ele>
        <time>2017-10-21T13:48:31Z</time>
      </trkpt>
      <trkpt lat="46.47293" lon="4.64613">
        <ele>377.94</ele>
        <time>2017-10-21T13:48:34Z</time>
      </trkpt>
      <trkpt lat="46.47291" lon="4.64603">
        <ele>378.9</ele>
        <time>2017-10-21T13:48:41Z</time>
      </trkpt>
      <trkpt lat="46.4729" lon="4.64593">
        <ele>379.38</ele>
        <time>2017-10-21T13:48:47Z</time>
      </trkpt>
      <trkpt lat="46.47289" lon="4.64589">
        <ele>379.38</ele>
        <time>2017-10-21T13:48:51Z</time>
      </trkpt>
      <trkpt lat="46.47289" lon="4.64578">
        <ele>379.86</ele>
        <time>2017-10-21T13:48:58Z</time>
      </trkpt>
      <trkpt lat="46.47288" lon="4.64575">
        <ele>380.34</ele>
        <time>2017-10-21T13:49:01Z</time>
      </trkpt>
      <trkpt lat="46.47287" lon="4.64568">
        <ele>380.82</ele>
        <time>2017-10-21T13:49:06Z</time>
      </trkpt>
      <trkpt lat="46.47285" lon="4.64558">
        <ele>381.3</ele>
        <time>2017-10-21T13:49:14Z</time>
      </trkpt>
      <trkpt lat="46.47282" lon="4.64547">
        <ele>381.78</ele>
        <time>2017-10-21T13:49:23Z</time>
      </trkpt>
      <trkpt lat="46.47279" lon="4.64538">
        <ele>382.26</ele>
        <time>2017-10-21T13:49:30Z</time>
      </trkpt>
      <trkpt lat="46.47277" lon="4.64528">
        <ele>382.74</ele>
        <time>2017-10-21T13:49:37Z</time>
      </trkpt>
      <trkpt lat="46.47275" lon="4.64519">
        <ele>383.22</ele>
        <time>2017-10-21T13:49:44Z</time>
      </trkpt>
      <trkpt lat="46.47273" lon="4.6451">
        <ele>383.7</ele>
        <time>2017-10-21T13:49:51Z</time>
      </trkpt>
      <trkpt lat="46.47271" lon="4.64502">
        <ele>384.18</ele>
        <time>2017-10-21T13:49:57Z</time>
      </trkpt>
      <trkpt lat="46.47269" lon="4.64492">
        <ele>384.18</ele>
        <time>2017-10-21T13:50:03Z</time>
      </trkpt>
      <trkpt lat="46.47267" lon="4.64485">
        <ele>384.66</ele>
        <time>2017-10-21T13:50:09Z</time>
      </trkpt>
      <trkpt lat="46.47264" lon="4.6448">
        <ele>384.66</ele>
        <time>2017-10-21T13:50:14Z</time>
      </trkpt>
      <trkpt lat="46.47256" lon="4.64474">
        <ele>383.7</ele>
        <time>2017-10-21T13:50:23Z</time>
      </trkpt>
      <trkpt lat="46.4725" lon="4.6447">
        <ele>383.22</ele>
        <time>2017-10-21T13:50:30Z</time>
      </trkpt>
      <trkpt lat="46.47241" lon="4.64464">
        <ele>382.74</ele>
        <time>2017-10-21T13:50:38Z</time>
      </trkpt>
      <trkpt lat="46.47233" lon="4.6446">
        <ele>382.26</ele>
        <time>2017-10-21T13:50:46Z</time>
      </trkpt>
      <trkpt lat="46.47225" lon="4.64455">
        <ele>382.26</ele>
        <time>2017-10-21T13:50:56Z</time>
      </trkpt>
      <trkpt lat="46.47224" lon="4.64455">
        <ele>381.78</ele>
        <time>2017-10-21T13:51:01Z</time>
      </trkpt>
      <trkpt lat="46.47222" lon="4.64454">
        <ele>381.78</ele>
        <time>2017-10-21T13:51:04Z</time>
      </trkpt>
      <trkpt lat="46.47214" lon="4.6445">
        <ele>381.78</ele>
        <time>2017-10-21T13:51:12Z</time>
      </trkpt>
      <trkpt lat="46.4721" lon="4.64449">
        <ele>381.3</ele>
        <time>2017-10-21T13:51:19Z</time>
      </trkpt>
      <trkpt lat="46.47204" lon="4.64444">
        <ele>381.3</ele>
        <time>2017-10-21T13:51:27Z</time>
      </trkpt>
      <trkpt lat="46.47197" lon="4.64442">
        <ele>380.82</ele>
        <time>2017-10-21T13:51:35Z</time>
      </trkpt>
      <trkpt lat="46.47194" lon="4.64441">
        <ele>380.82</ele>
        <time>2017-10-21T13:51:37Z</time>
      </trkpt>
      <trkpt lat="46.47189" lon="4.64439">
        <ele>380.82</ele>
        <time>2017-10-21T13:51:42Z</time>
      </trkpt>
      <trkpt lat="46.47187" lon="4.64438">
        <ele>380.82</ele>
        <time>2017-10-21T13:51:45Z</time>
      </trkpt>
      <trkpt lat="46.47179" lon="4.64432">
        <ele>380.34</ele>
        <time>2017-10-21T13:51:54Z</time>
      </trkpt>
      <trkpt lat="46.47172" lon="4.64428">
        <ele>380.34</ele>
        <time>2017-10-21T13:52:01Z</time>
      </trkpt>
      <trkpt lat="46.47166" lon="4.64424">
        <ele>380.34</ele>
        <time>2017-10-21T13:52:08Z</time>
      </trkpt>
      <trkpt lat="46.47159" lon="4.64418">
        <ele>379.86</ele>
        <time>2017-10-21T13:52:16Z</time>
      </trkpt>
      <trkpt lat="46.47152" lon="4.64412">
        <ele>379.86</ele>
        <time>2017-10-21T13:52:24Z</time>
      </trkpt>
      <trkpt lat="46.47148" lon="4.64405">
        <ele>379.38</ele>
        <time>2017-10-21T13:52:32Z</time>
      </trkpt>
      <trkpt lat="46.47143" lon="4.64399">
        <ele>378.9</ele>
        <time>2017-10-21T13:52:40Z</time>
      </trkpt>
      <trkpt lat="46.4714" lon="4.64397">
        <ele>378.9</ele>
        <time>2017-10-21T13:52:44Z</time>
      </trkpt>
      <trkpt lat="46.47136" lon="4.64393">
        <ele>377.94</ele>
        <time>2017-10-21T13:52:50Z</time>
      </trkpt>
      <trkpt lat="46.47131" lon="4.64386">
        <ele>376.97</ele>
        <time>2017-10-21T13:53:00Z</time>
      </trkpt>
      <trkpt lat="46.47126" lon="4.64381">
        <ele>376.01</ele>
        <time>2017-10-21T13:53:08Z</time>
      </trkpt>
      <trkpt lat="46.47121" lon="4.64375">
        <ele>375.53</ele>
        <time>2017-10-21T13:53:15Z</time>
      </trkpt>
      <trkpt lat="46.47114" lon="4.64368">
        <ele>374.57</ele>
        <time>2017-10-21T13:53:24Z</time>
      </trkpt>
      <trkpt lat="46.47108" lon="4.64363">
        <ele>374.09</ele>
        <time>2017-10-21T13:53:31Z</time>
      </trkpt>
      <trkpt lat="46.47101" lon="4.64356">
        <ele>373.61</ele>
        <time>2017-10-21T13:53:39Z</time>
      </trkpt>
      <trkpt lat="46.47099" lon="4.64351">
        <ele>373.13</ele>
        <time>2017-10-21T13:53:43Z</time>
      </trkpt>
      <trkpt lat="46.47092" lon="4.64344">
        <ele>372.65</ele>
        <time>2017-10-21T13:53:51Z</time>
      </trkpt>
      <trkpt lat="46.47085" lon="4.64336">
        <ele>372.65</ele>
        <time>2017-10-21T13:53:59Z</time>
      </trkpt>
      <trkpt lat="46.47077" lon="4.64321">
        <ele>373.13</ele>
        <time>2017-10-21T13:54:09Z</time>
      </trkpt>
      <trkpt lat="46.47072" lon="4.64312">
        <ele>374.09</ele>
        <time>2017-10-21T13:54:17Z</time>
      </trkpt>
      <trkpt lat="46.47068" lon="4.64307">
        <ele>374.57</ele>
        <time>2017-10-21T13:54:22Z</time>
      </trkpt>
      <trkpt lat="46.47061" lon="4.643">
        <ele>375.53</ele>
        <time>2017-10-21T13:54:31Z</time>
      </trkpt>
      <trkpt lat="46.47059" lon="4.64299">
        <ele>375.53</ele>
        <time>2017-10-21T13:54:33Z</time>
      </trkpt>
      <trkpt lat="46.47057" lon="4.64298">
        <ele>375.53</ele>
        <time>2017-10-21T13:54:35Z</time>
      </trkpt>
      <trkpt lat="46.47049" lon="4.64289">
        <ele>376.49</ele>
        <time>2017-10-21T13:54:45Z</time>
      </trkpt>
      <trkpt lat="46.47044" lon="4.64283">
        <ele>377.45</ele>
        <time>2017-10-21T13:54:52Z</time>
      </trkpt>
      <trkpt lat="46.47041" lon="4.64279">
        <ele>377.94</ele>
        <time>2017-10-21T13:54:56Z</time>
      </trkpt>
      <trkpt lat="46.47034" lon="4.64271">
        <ele>378.42</ele>
        <time>2017-10-21T13:55:05Z</time>
      </trkpt>
      <trkpt lat="46.47027" lon="4.64263">
        <ele>379.38</ele>
        <time>2017-10-21T13:55:14Z</time>
      </trkpt>
      <trkpt lat="46.47025" lon="4.6426">
        <ele>379.86</ele>
        <time>2017-10-21T13:55:17Z</time>
      </trkpt>
      <trkpt lat="46.47019" lon="4.64255">
        <ele>380.34</ele>
        <time>2017-10-21T13:55:24Z</time>
      </trkpt>
      <trkpt lat="46.47012" lon="4.64246">
        <ele>381.3</ele>
        <time>2017-10-21T13:55:33Z</time>
      </trkpt>
      <trkpt lat="46.47008" lon="4.64242">
        <ele>381.3</ele>
        <time>2017-10-21T13:55:37Z</time>
      </trkpt>
      <trkpt lat="46.47007" lon="4.6424">
        <ele>381.3</ele>
        <time>2017-10-21T13:55:39Z</time>
      </trkpt>
      <trkpt lat="46.47003" lon="4.64234">
        <ele>382.26</ele>
        <time>2017-10-21T13:55:46Z</time>
      </trkpt>
      <trkpt lat="46.47001" lon="4.64232">
        <ele>382.26</ele>
        <time>2017-10-21T13:55:48Z</time>
      </trkpt>
      <trkpt lat="46.47" lon="4.6423">
        <ele>382.74</ele>
        <time>2017-10-21T13:55:50Z</time>
      </trkpt>
      <trkpt lat="46.46995" lon="4.64226">
        <ele>383.22</ele>
        <time>2017-10-21T13:55:57Z</time>
      </trkpt>
      <trkpt lat="46.46987" lon="4.64217">
        <ele>384.66</ele>
        <time>2017-10-21T13:56:07Z</time>
      </trkpt>
      <trkpt lat="46.46985" lon="4.64215">
        <ele>384.66</ele>
        <time>2017-10-21T13:56:09Z</time>
      </trkpt>
      <trkpt lat="46.46983" lon="4.64212">
        <ele>385.15</ele>
        <time>2017-10-21T13:56:12Z</time>
      </trkpt>
      <trkpt lat="46.46979" lon="4.64206">
        <ele>385.63</ele>
        <time>2017-10-21T13:56:18Z</time>
      </trkpt>
      <trkpt lat="46.46973" lon="4.64201">
        <ele>386.59</ele>
        <time>2017-10-21T13:56:25Z</time>
      </trkpt>
      <trkpt lat="46.46972" lon="4.642">
        <ele>387.07</ele>
        <time>2017-10-21T13:56:27Z</time>
      </trkpt>
      <trkpt lat="46.46967" lon="4.64195">
        <ele>388.03</ele>
        <time>2017-10-21T13:56:34Z</time>
      </trkpt>
      <trkpt lat="46.46961" lon="4.64192">
        <ele>388.99</ele>
        <time>2017-10-21T13:56:42Z</time>
      </trkpt>
      <trkpt lat="46.46957" lon="4.64187">
        <ele>389.95</ele>
        <time>2017-10-21T13:56:48Z</time>
      </trkpt>
      <trkpt lat="46.4695" lon="4.64181">
        <ele>391.39</ele>
        <time>2017-10-21T13:56:58Z</time>
      </trkpt>
      <trkpt lat="46.46945" lon="4.64176">
        <ele>391.87</ele>
        <time>2017-10-21T13:57:05Z</time>
      </trkpt>
      <trkpt lat="46.46939" lon="4.64172">
        <ele>393.32</ele>
        <time>2017-10-21T13:57:14Z</time>
      </trkpt>
      <trkpt lat="46.46933" lon="4.64167">
        <ele>394.28</ele>
        <time>2017-10-21T13:57:21Z</time>
      </trkpt>
      <trkpt lat="46.46928" lon="4.64159">
        <ele>395.72</ele>
        <time>2017-10-21T13:57:28Z</time>
      </trkpt>
      <trkpt lat="46.46924" lon="4.64153">
        <ele>396.68</ele>
        <time>2017-10-21T13:57:36Z</time>
      </trkpt>
      <trkpt lat="46.46919" lon="4.64147">
        <ele>397.16</ele>
        <time>2017-10-21T13:57:43Z</time>
      </trkpt>
      <trkpt lat="46.46913" lon="4.6414">
        <ele>398.6</ele>
        <time>2017-10-21T13:57:51Z</time>
      </trkpt>
      <trkpt lat="46.46908" lon="4.64134">
        <ele>399.08</ele>
        <time>2017-10-21T13:57:57Z</time>
      </trkpt>
      <trkpt lat="46.46906" lon="4.64131">
        <ele>399.57</ele>
        <time>2017-10-21T13:58:01Z</time>
      </trkpt>
      <trkpt lat="46.46901" lon="4.64124">
        <ele>401.01</ele>
        <time>2017-10-21T13:58:08Z</time>
      </trkpt>
      <trkpt lat="46.46896" lon="4.64116">
        <ele>401.97</ele>
        <time>2017-10-21T13:58:16Z</time>
      </trkpt>
      <trkpt lat="46.4689" lon="4.64108">
        <ele>402.93</ele>
        <time>2017-10-21T13:58:24Z</time>
      </trkpt>
      <trkpt lat="46.46888" lon="4.64105">
        <ele>403.41</ele>
        <time>2017-10-21T13:58:29Z</time>
      </trkpt>
      <trkpt lat="46.46884" lon="4.64101">
        <ele>403.89</ele>
        <time>2017-10-21T13:58:35Z</time>
      </trkpt>
      <trkpt lat="46.46882" lon="4.64099">
        <ele>404.37</ele>
        <time>2017-10-21T13:58:40Z</time>
      </trkpt>
      <trkpt lat="46.46879" lon="4.64097">
        <ele>404.85</ele>
        <time>2017-10-21T13:58:44Z</time>
      </trkpt>
      <trkpt lat="46.46875" lon="4.64092">
        <ele>405.81</ele>
        <time>2017-10-21T13:58:50Z</time>
      </trkpt>
      <trkpt lat="46.4687" lon="4.64085">
        <ele>406.29</ele>
        <time>2017-10-21T13:58:58Z</time>
      </trkpt>
      <trkpt lat="46.46867" lon="4.6408">
        <ele>406.77</ele>
        <time>2017-10-21T13:59:02Z</time>
      </trkpt>
      <trkpt lat="46.46862" lon="4.64074">
        <ele>407.74</ele>
        <time>2017-10-21T13:59:09Z</time>
      </trkpt>
      <trkpt lat="46.46856" lon="4.64067">
        <ele>408.7</ele>
        <time>2017-10-21T13:59:16Z</time>
      </trkpt>
      <trkpt lat="46.46855" lon="4.64065">
        <ele>408.7</ele>
        <time>2017-10-21T13:59:18Z</time>
      </trkpt>
      <trkpt lat="46.46849" lon="4.64057">
        <ele>409.66</ele>
        <time>2017-10-21T13:59:27Z</time>
      </trkpt>
      <trkpt lat="46.46847" lon="4.64055">
        <ele>410.14</ele>
        <time>2017-10-21T13:59:29Z</time>
      </trkpt>
      <trkpt lat="46.46844" lon="4.64049">
        <ele>410.62</ele>
        <time>2017-10-21T13:59:34Z</time>
      </trkpt>
      <trkpt lat="46.46841" lon="4.64045">
        <ele>411.1</ele>
        <time>2017-10-21T13:59:38Z</time>
      </trkpt>
      <trkpt lat="46.46834" lon="4.64039">
        <ele>411.58</ele>
        <time>2017-10-21T13:59:47Z</time>
      </trkpt>
      <trkpt lat="46.46833" lon="4.64037">
        <ele>411.58</ele>
        <time>2017-10-21T13:59:49Z</time>
      </trkpt>
      <trkpt lat="46.46831" lon="4.64036">
        <ele>412.06</ele>
        <time>2017-10-21T13:59:52Z</time>
      </trkpt>
      <trkpt lat="46.46825" lon="4.64025">
        <ele>413.02</ele>
        <time>2017-10-21T14:00:00Z</time>
      </trkpt>
      <trkpt lat="46.4682" lon="4.64018">
        <ele>413.98</ele>
        <time>2017-10-21T14:00:08Z</time>
      </trkpt>
      <trkpt lat="46.46814" lon="4.6401">
        <ele>414.95</ele>
        <time>2017-10-21T14:00:17Z</time>
      </trkpt>
      <trkpt lat="46.4681" lon="4.64004">
        <ele>415.43</ele>
        <time>2017-10-21T14:00:23Z</time>
      </trkpt>
      <trkpt lat="46.4681" lon="4.64001">
        <ele>415.91</ele>
        <time>2017-10-21T14:00:29Z</time>
      </trkpt>
      <trkpt lat="46.46809" lon="4.63998">
        <ele>415.91</ele>
        <time>2017-10-21T14:00:36Z</time>
      </trkpt>
      <trkpt lat="46.46806" lon="4.63995">
        <ele>415.91</ele>
        <time>2017-10-21T14:00:43Z</time>
      </trkpt>
      <trkpt lat="46.46806" lon="4.63993">
        <ele>415.91</ele>
        <time>2017-10-21T14:00:51Z</time>
      </trkpt>
      <trkpt lat="46.46806" lon="4.63992">
        <ele>415.91</ele>
        <time>2017-10-21T14:01:02Z</time>
      </trkpt>
      <trkpt lat="46.46806" lon="4.63992">
        <ele>415.91</ele>
        <time>2017-10-21T14:01:12Z</time>
      </trkpt>
      <trkpt lat="46.46805" lon="4.63992">
        <ele>415.91</ele>
        <time>2017-10-21T14:01:21Z</time>
      </trkpt>
      <trkpt lat="46.46805" lon="4.63992">
        <ele>416.39</ele>
        <time>2017-10-21T14:01:37Z</time>
      </trkpt>
      <trkpt lat="46.46805" lon="4.63992">
        <ele>415.91</ele>
        <time>2017-10-21T14:01:51Z</time>
      </trkpt>
      <trkpt lat="46.46804" lon="4.63991">
        <ele>416.87</ele>
        <time>2017-10-21T14:02:00Z</time>
      </trkpt>
      <trkpt lat="46.46804" lon="4.6399">
        <ele>416.39</ele>
        <time>2017-10-21T14:02:11Z</time>
      </trkpt>
      <trkpt lat="46.46803" lon="4.63991">
        <ele>415.91</ele>
        <time>2017-10-21T14:02:24Z</time>
      </trkpt>
      <trkpt lat="46.46802" lon="4.63991">
        <ele>415.91</ele>
        <time>2017-10-21T14:02:31Z</time>
      </trkpt>
      <trkpt lat="46.46802" lon="4.63992">
        <ele>416.39</ele>
        <time>2017-10-21T14:02:41Z</time>
      </trkpt>
      <trkpt lat="46.46802" lon="4.63992">
        <ele>416.39</ele>
        <time>2017-10-21T14:02:50Z</time>
      </trkpt>
      <trkpt lat="46.46802" lon="4.63992">
        <ele>415.91</ele>
        <time>2017-10-21T14:03:06Z</time>
      </trkpt>
      <trkpt lat="46.46802" lon="4.63992">
        <ele>415.91</ele>
        <time>2017-10-21T14:03:22Z</time>
      </trkpt>
      <trkpt lat="46.46802" lon="4.63992">
        <ele>415.91</ele>
        <time>2017-10-21T14:03:32Z</time>
      </trkpt>
      <trkpt lat="46.46802" lon="4.63992">
        <ele>415.91</ele>
        <time>2017-10-21T14:03:43Z</time>
      </trkpt>
      <trkpt lat="46.46803" lon="4.63992">
        <ele>415.43</ele>
        <time>2017-10-21T14:03:53Z</time>
      </trkpt>
      <trkpt lat="46.46801" lon="4.63991">
        <ele>415.91</ele>
        <time>2017-10-21T14:03:58Z</time>
      </trkpt>
      <trkpt lat="46.46797" lon="4.63988">
        <ele>415.91</ele>
        <time>2017-10-21T14:04:04Z</time>
      </trkpt>
      <trkpt lat="46.46791" lon="4.63985">
        <ele>414.95</ele>
        <time>2017-10-21T14:04:12Z</time>
      </trkpt>
      <trkpt lat="46.46784" lon="4.6398">
        <ele>414.95</ele>
        <time>2017-10-21T14:04:21Z</time>
      </trkpt>
      <trkpt lat="46.46782" lon="4.63978">
        <ele>414.47</ele>
        <time>2017-10-21T14:04:24Z</time>
      </trkpt>
      <trkpt lat="46.46776" lon="4.63975">
        <ele>413.98</ele>
        <time>2017-10-21T14:04:31Z</time>
      </trkpt>
      <trkpt lat="46.46768" lon="4.63969">
        <ele>413.02</ele>
        <time>2017-10-21T14:04:40Z</time>
      </trkpt>
      <trkpt lat="46.46761" lon="4.63964">
        <ele>412.06</ele>
        <time>2017-10-21T14:04:48Z</time>
      </trkpt>
      <trkpt lat="46.4676" lon="4.63963">
        <ele>412.06</ele>
        <time>2017-10-21T14:04:49Z</time>
      </trkpt>
      <trkpt lat="46.46753" lon="4.63957">
        <ele>411.1</ele>
        <time>2017-10-21T14:04:58Z</time>
      </trkpt>
      <trkpt lat="46.46744" lon="4.63953">
        <ele>409.66</ele>
        <time>2017-10-21T14:05:07Z</time>
      </trkpt>
      <trkpt lat="46.46737" lon="4.63948">
        <ele>408.7</ele>
        <time>2017-10-21T14:05:13Z</time>
      </trkpt>
      <trkpt lat="46.46726" lon="4.63943">
        <ele>406.77</ele>
        <time>2017-10-21T14:05:23Z</time>
      </trkpt>
      <trkpt lat="46.46717" lon="4.63941">
        <ele>405.33</ele>
        <time>2017-10-21T14:05:31Z</time>
      </trkpt>
      <trkpt lat="46.46709" lon="4.63936">
        <ele>404.37</ele>
        <time>2017-10-21T14:05:39Z</time>
      </trkpt>
      <trkpt lat="46.46703" lon="4.63933">
        <ele>402.93</ele>
        <time>2017-10-21T14:05:46Z</time>
      </trkpt>
      <trkpt lat="46.467" lon="4.6393">
        <ele>402.45</ele>
        <time>2017-10-21T14:05:50Z</time>
      </trkpt>
      <trkpt lat="46.46693" lon="4.63926">
        <ele>401.01</ele>
        <time>2017-10-21T14:05:58Z</time>
      </trkpt>
      <trkpt lat="46.46689" lon="4.63923">
        <ele>400.53</ele>
        <time>2017-10-21T14:06:02Z</time>
      </trkpt>
      <trkpt lat="46.4668" lon="4.63916">
        <ele>399.08</ele>
        <time>2017-10-21T14:06:12Z</time>
      </trkpt>
      <trkpt lat="46.46672" lon="4.63914">
        <ele>398.12</ele>
        <time>2017-10-21T14:06:20Z</time>
      </trkpt>
      <trkpt lat="46.46664" lon="4.63913">
        <ele>396.68</ele>
        <time>2017-10-21T14:06:27Z</time>
      </trkpt>
      <trkpt lat="46.46655" lon="4.63917">
        <ele>395.72</ele>
        <time>2017-10-21T14:06:35Z</time>
      </trkpt>
      <trkpt lat="46.46646" lon="4.63919">
        <ele>393.8</ele>
        <time>2017-10-21T14:06:44Z</time>
      </trkpt>
      <trkpt lat="46.46635" lon="4.63923">
        <ele>392.84</ele>
        <time>2017-10-21T14:06:53Z</time>
      </trkpt>
      <trkpt lat="46.46632" lon="4.63922">
        <ele>392.36</ele>
        <time>2017-10-21T14:07:01Z</time>
      </trkpt>
      <trkpt lat="46.46629" lon="4.63925">
        <ele>392.84</ele>
        <time>2017-10-21T14:07:09Z</time>
      </trkpt>
      <trkpt lat="46.46623" lon="4.63934">
        <ele>390.91</ele>
        <time>2017-10-21T14:07:18Z</time>
      </trkpt>
      <trkpt lat="46.46621" lon="4.63939">
        <ele>390.43</ele>
        <time>2017-10-21T14:07:22Z</time>
      </trkpt>
      <trkpt lat="46.46617" lon="4.63946">
        <ele>389.95</ele>
        <time>2017-10-21T14:07:27Z</time>
      </trkpt>
      <trkpt lat="46.46611" lon="4.6396">
        <ele>388.99</ele>
        <time>2017-10-21T14:07:37Z</time>
      </trkpt>
      <trkpt lat="46.46604" lon="4.6397">
        <ele>388.03</ele>
        <time>2017-10-21T14:07:45Z</time>
      </trkpt>
      <trkpt lat="46.46598" lon="4.63973">
        <ele>386.59</ele>
        <time>2017-10-21T14:07:51Z</time>
      </trkpt>
      <trkpt lat="46.46587" lon="4.63974">
        <ele>385.15</ele>
        <time>2017-10-21T14:08:01Z</time>
      </trkpt>
      <trkpt lat="46.46578" lon="4.63974">
        <ele>384.18</ele>
        <time>2017-10-21T14:08:09Z</time>
      </trkpt>
      <trkpt lat="46.46568" lon="4.63973">
        <ele>383.7</ele>
        <time>2017-10-21T14:08:17Z</time>
      </trkpt>
      <trkpt lat="46.4656" lon="4.63971">
        <ele>383.22</ele>
        <time>2017-10-21T14:08:25Z</time>
      </trkpt>
      <trkpt lat="46.46548" lon="4.63969">
        <ele>382.74</ele>
        <time>2017-10-21T14:08:34Z</time>
      </trkpt>
      <trkpt lat="46.46537" lon="4.63966">
        <ele>382.26</ele>
        <time>2017-10-21T14:08:43Z</time>
      </trkpt>
      <trkpt lat="46.46531" lon="4.63965">
        <ele>381.78</ele>
        <time>2017-10-21T14:08:48Z</time>
      </trkpt>
      <trkpt lat="46.46519" lon="4.63975">
        <ele>380.34</ele>
        <time>2017-10-21T14:09:00Z</time>
      </trkpt>
      <trkpt lat="46.46516" lon="4.63982">
        <ele>379.38</ele>
        <time>2017-10-21T14:09:06Z</time>
      </trkpt>
      <trkpt lat="46.46511" lon="4.63992">
        <ele>378.42</ele>
        <time>2017-10-21T14:09:14Z</time>
      </trkpt>
      <trkpt lat="46.46505" lon="4.64001">
        <ele>376.97</ele>
        <time>2017-10-21T14:09:22Z</time>
      </trkpt>
      <trkpt lat="46.46498" lon="4.64008">
        <ele>376.49</ele>
        <time>2017-10-21T14:09:29Z</time>
      </trkpt>
      <trkpt lat="46.46487" lon="4.64011">
        <ele>375.53</ele>
        <time>2017-10-21T14:09:38Z</time>
      </trkpt>
      <trkpt lat="46.46476" lon="4.64013">
        <ele>374.57</ele>
        <time>2017-10-21T14:09:47Z</time>
      </trkpt>
      <trkpt lat="46.46466" lon="4.64012">
        <ele>374.09</ele>
        <time>2017-10-21T14:09:56Z</time>
      </trkpt>
      <trkpt lat="46.46454" lon="4.64009">
        <ele>373.13</ele>
        <time>2017-10-21T14:10:05Z</time>
      </trkpt>
      <trkpt lat="46.46443" lon="4.64004">
        <ele>373.13</ele>
        <time>2017-10-21T14:10:14Z</time>
      </trkpt>
      <trkpt lat="46.46433" lon="4.63999">
        <ele>373.13</ele>
        <time>2017-10-21T14:10:23Z</time>
      </trkpt>
      <trkpt lat="46.46423" lon="4.63994">
        <ele>373.61</ele>
        <time>2017-10-21T14:10:31Z</time>
      </trkpt>
      <trkpt lat="46.46412" lon="4.63988">
        <ele>373.61</ele>
        <time>2017-10-21T14:10:40Z</time>
      </trkpt>
      <trkpt lat="46.46401" lon="4.63985">
        <ele>373.61</ele>
        <time>2017-10-21T14:10:49Z</time>
      </trkpt>
      <trkpt lat="46.4639" lon="4.63986">
        <ele>373.13</ele>
        <time>2017-10-21T14:10:58Z</time>
      </trkpt>
      <trkpt lat="46.4638" lon="4.63984">
        <ele>372.17</ele>
        <time>2017-10-21T14:11:06Z</time>
      </trkpt>
      <trkpt lat="46.46369" lon="4.63984">
        <ele>371.69</ele>
        <time>2017-10-21T14:11:15Z</time>
      </trkpt>
      <trkpt lat="46.46358" lon="4.63983">
        <ele>370.73</ele>
        <time>2017-10-21T14:11:24Z</time>
      </trkpt>
      <trkpt lat="46.46347" lon="4.63982">
        <ele>369.76</ele>
        <time>2017-10-21T14:11:33Z</time>
      </trkpt>
      <trkpt lat="46.46338" lon="4.63981">
        <ele>368.32</ele>
        <time>2017-10-21T14:11:41Z</time>
      </trkpt>
      <trkpt lat="46.46328" lon="4.63979">
        <ele>367.84</ele>
        <time>2017-10-21T14:11:49Z</time>
      </trkpt>
      <trkpt lat="46.46318" lon="4.63976">
        <ele>367.36</ele>
        <time>2017-10-21T14:11:57Z</time>
      </trkpt>
      <trkpt lat="46.46312" lon="4.63971">
        <ele>366.88</ele>
        <time>2017-10-21T14:12:05Z</time>
      </trkpt>
      <trkpt lat="46.46309" lon="4.6397">
        <ele>366.4</ele>
        <time>2017-10-21T14:12:09Z</time>
      </trkpt>
      <trkpt lat="46.46305" lon="4.63975">
        <ele>365.92</ele>
        <time>2017-10-21T14:12:15Z</time>
      </trkpt>
      <trkpt lat="46.46301" lon="4.63988">
        <ele>364.48</ele>
        <time>2017-10-21T14:12:25Z</time>
      </trkpt>
      <trkpt lat="46.46299" lon="4.63995">
        <ele>364</ele>
        <time>2017-10-21T14:12:31Z</time>
      </trkpt>
      <trkpt lat="46.46299" lon="4.63996">
        <ele>363.52</ele>
        <time>2017-10-21T14:12:32Z</time>
      </trkpt>
      <trkpt lat="46.46297" lon="4.64008">
        <ele>363.04</ele>
        <time>2017-10-21T14:12:39Z</time>
      </trkpt>
      <trkpt lat="46.46296" lon="4.64013">
        <ele>363.04</ele>
        <time>2017-10-21T14:12:42Z</time>
      </trkpt>
      <trkpt lat="46.46295" lon="4.64021">
        <ele>362.55</ele>
        <time>2017-10-21T14:12:46Z</time>
      </trkpt>
      <trkpt lat="46.46294" lon="4.64032">
        <ele>361.59</ele>
        <time>2017-10-21T14:12:53Z</time>
      </trkpt>
      <trkpt lat="46.46293" lon="4.64034">
        <ele>361.59</ele>
        <time>2017-10-21T14:12:54Z</time>
      </trkpt>
      <trkpt lat="46.46293" lon="4.64045">
        <ele>360.63</ele>
        <time>2017-10-21T14:13:03Z</time>
      </trkpt>
      <trkpt lat="46.46294" lon="4.6405">
        <ele>360.63</ele>
        <time>2017-10-21T14:13:06Z</time>
      </trkpt>
      <trkpt lat="46.46292" lon="4.64058">
        <ele>360.15</ele>
        <time>2017-10-21T14:13:11Z</time>
      </trkpt>
      <trkpt lat="46.46293" lon="4.64069">
        <ele>359.19</ele>
        <time>2017-10-21T14:13:18Z</time>
      </trkpt>
      <trkpt lat="46.46292" lon="4.64073">
        <ele>358.71</ele>
        <time>2017-10-21T14:13:21Z</time>
      </trkpt>
      <trkpt lat="46.46293" lon="4.64081">
        <ele>358.23</ele>
        <time>2017-10-21T14:13:26Z</time>
      </trkpt>
      <trkpt lat="46.46292" lon="4.64094">
        <ele>357.27</ele>
        <time>2017-10-21T14:13:34Z</time>
      </trkpt>
      <trkpt lat="46.4629" lon="4.64103">
        <ele>356.79</ele>
        <time>2017-10-21T14:13:41Z</time>
      </trkpt>
      <trkpt lat="46.46289" lon="4.64108">
        <ele>356.31</ele>
        <time>2017-10-21T14:13:44Z</time>
      </trkpt>
      <trkpt lat="46.46286" lon="4.64119">
        <ele>355.83</ele>
        <time>2017-10-21T14:13:51Z</time>
      </trkpt>
      <trkpt lat="46.46282" lon="4.64129">
        <ele>354.86</ele>
        <time>2017-10-21T14:13:58Z</time>
      </trkpt>
      <trkpt lat="46.46281" lon="4.6414">
        <ele>353.42</ele>
        <time>2017-10-21T14:14:05Z</time>
      </trkpt>
      <trkpt lat="46.46278" lon="4.64149">
        <ele>352.94</ele>
        <time>2017-10-21T14:14:11Z</time>
      </trkpt>
      <trkpt lat="46.46277" lon="4.64153">
        <ele>352.46</ele>
        <time>2017-10-21T14:14:14Z</time>
      </trkpt>
      <trkpt lat="46.46276" lon="4.6416">
        <ele>351.98</ele>
        <time>2017-10-21T14:14:18Z</time>
      </trkpt>
      <trkpt lat="46.46274" lon="4.64172">
        <ele>351.02</ele>
        <time>2017-10-21T14:14:25Z</time>
      </trkpt>
      <trkpt lat="46.46273" lon="4.64174">
        <ele>351.02</ele>
        <time>2017-10-21T14:14:26Z</time>
      </trkpt>
      <trkpt lat="46.46271" lon="4.64186">
        <ele>350.06</ele>
        <time>2017-10-21T14:14:33Z</time>
      </trkpt>
      <trkpt lat="46.46271" lon="4.64187">
        <ele>350.06</ele>
        <time>2017-10-21T14:14:34Z</time>
      </trkpt>
      <trkpt lat="46.4627" lon="4.64201">
        <ele>349.1</ele>
        <time>2017-10-21T14:14:41Z</time>
      </trkpt>
      <trkpt lat="46.46269" lon="4.64208">
        <ele>348.62</ele>
        <time>2017-10-21T14:14:45Z</time>
      </trkpt>
      <trkpt lat="46.46266" lon="4.64222">
        <ele>347.65</ele>
        <time>2017-10-21T14:14:53Z</time>
      </trkpt>
      <trkpt lat="46.46264" lon="4.64234">
        <ele>346.69</ele>
        <time>2017-10-21T14:15:00Z</time>
      </trkpt>
      <trkpt lat="46.4626" lon="4.64244">
        <ele>346.21</ele>
        <time>2017-10-21T14:15:06Z</time>
      </trkpt>
      <trkpt lat="46.46256" lon="4.64253">
        <ele>345.73</ele>
        <time>2017-10-21T14:15:13Z</time>
      </trkpt>
      <trkpt lat="46.46255" lon="4.64254">
        <ele>345.25</ele>
        <time>2017-10-21T14:15:14Z</time>
      </trkpt>
      <trkpt lat="46.46249" lon="4.64261">
        <ele>344.77</ele>
        <time>2017-10-21T14:15:21Z</time>
      </trkpt>
      <trkpt lat="46.46243" lon="4.64272">
        <ele>343.81</ele>
        <time>2017-10-21T14:15:29Z</time>
      </trkpt>
      <trkpt lat="46.46239" lon="4.64276">
        <ele>343.33</ele>
        <time>2017-10-21T14:15:33Z</time>
      </trkpt>
      <trkpt lat="46.46229" lon="4.6429">
        <ele>342.85</ele>
        <time>2017-10-21T14:15:44Z</time>
      </trkpt>
      <trkpt lat="46.46224" lon="4.64295">
        <ele>342.37</ele>
        <time>2017-10-21T14:15:49Z</time>
      </trkpt>
      <trkpt lat="46.46217" lon="4.64305">
        <ele>341.89</ele>
        <time>2017-10-21T14:15:56Z</time>
      </trkpt>
      <trkpt lat="46.46214" lon="4.64307">
        <ele>341.41</ele>
        <time>2017-10-21T14:15:59Z</time>
      </trkpt>
      <trkpt lat="46.46206" lon="4.64314">
        <ele>340.92</ele>
        <time>2017-10-21T14:16:06Z</time>
      </trkpt>
      <trkpt lat="46.462" lon="4.64323">
        <ele>340.44</ele>
        <time>2017-10-21T14:16:13Z</time>
      </trkpt>
      <trkpt lat="46.46194" lon="4.64329">
        <ele>339.96</ele>
        <time>2017-10-21T14:16:19Z</time>
      </trkpt>
      <trkpt lat="46.46191" lon="4.64332">
        <ele>339.48</ele>
        <time>2017-10-21T14:16:22Z</time>
      </trkpt>
      <trkpt lat="46.46183" lon="4.64342">
        <ele>339.48</ele>
        <time>2017-10-21T14:16:30Z</time>
      </trkpt>
      <trkpt lat="46.46178" lon="4.64348">
        <ele>339</ele>
        <time>2017-10-21T14:16:36Z</time>
      </trkpt>
      <trkpt lat="46.46173" lon="4.64356">
        <ele>339</ele>
        <time>2017-10-21T14:16:43Z</time>
      </trkpt>
      <trkpt lat="46.46169" lon="4.64363">
        <ele>339</ele>
        <time>2017-10-21T14:16:50Z</time>
      </trkpt>
      <trkpt lat="46.46163" lon="4.64369">
        <ele>339.48</ele>
        <time>2017-10-21T14:16:56Z</time>
      </trkpt>
      <trkpt lat="46.46158" lon="4.64373">
        <ele>339</ele>
        <time>2017-10-21T14:17:03Z</time>
      </trkpt>
      <trkpt lat="46.46159" lon="4.64375">
        <ele>339.48</ele>
        <time>2017-10-21T14:17:07Z</time>
      </trkpt>
      <trkpt lat="46.46161" lon="4.6438">
        <ele>339</ele>
        <time>2017-10-21T14:17:12Z</time>
      </trkpt>
      <trkpt lat="46.46163" lon="4.64381">
        <ele>339</ele>
        <time>2017-10-21T14:17:15Z</time>
      </trkpt>
      <trkpt lat="46.46171" lon="4.64389">
        <ele>338.52</ele>
        <time>2017-10-21T14:17:23Z</time>
      </trkpt>
      <trkpt lat="46.46177" lon="4.64394">
        <ele>338.04</ele>
        <time>2017-10-21T14:17:29Z</time>
      </trkpt>
      <trkpt lat="46.46184" lon="4.64398">
        <ele>338.04</ele>
        <time>2017-10-21T14:17:35Z</time>
      </trkpt>
      <trkpt lat="46.46186" lon="4.64398">
        <ele>338.04</ele>
        <time>2017-10-21T14:17:37Z</time>
      </trkpt>
      <trkpt lat="46.46191" lon="4.64397">
        <ele>337.56</ele>
        <time>2017-10-21T14:17:45Z</time>
      </trkpt>
      <trkpt lat="46.4619" lon="4.64397">
        <ele>337.56</ele>
        <time>2017-10-21T14:17:56Z</time>
      </trkpt>
      <trkpt lat="46.4619" lon="4.64397">
        <ele>337.56</ele>
        <time>2017-10-21T14:18:06Z</time>
      </trkpt>
      <trkpt lat="46.4619" lon="4.64397">
        <ele>337.56</ele>
        <time>2017-10-21T14:18:20Z</time>
      </trkpt>
      <trkpt lat="46.4619" lon="4.64397">
        <ele>337.56</ele>
        <time>2017-10-21T14:18:32Z</time>
      </trkpt>
      <trkpt lat="46.4619" lon="4.64398">
        <ele>337.56</ele>
        <time>2017-10-21T14:18:45Z</time>
      </trkpt>
      <trkpt lat="46.4619" lon="4.64398">
        <ele>337.08</ele>
        <time>2017-10-21T14:18:57Z</time>
      </trkpt>
      <trkpt lat="46.4619" lon="4.64398">
        <ele>337.08</ele>
        <time>2017-10-21T14:19:11Z</time>
      </trkpt>
      <trkpt lat="46.4619" lon="4.64398">
        <ele>337.56</ele>
        <time>2017-10-21T14:19:24Z</time>
      </trkpt>
      <trkpt lat="46.4619" lon="4.64398">
        <ele>337.08</ele>
        <time>2017-10-21T14:19:33Z</time>
      </trkpt>
      <trkpt lat="46.4619" lon="4.64398">
        <ele>337.08</ele>
        <time>2017-10-21T14:19:44Z</time>
      </trkpt>
      <trkpt lat="46.4619" lon="4.64396">
        <ele>337.08</ele>
        <time>2017-10-21T14:19:52Z</time>
      </trkpt>
      <trkpt lat="46.4619" lon="4.64395">
        <ele>337.08</ele>
        <time>2017-10-21T14:20:09Z</time>
      </trkpt>
      <trkpt lat="46.4619" lon="4.64394">
        <ele>337.08</ele>
        <time>2017-10-21T14:20:28Z</time>
      </trkpt>
      <trkpt lat="46.4619" lon="4.64394">
        <ele>337.56</ele>
        <time>2017-10-21T14:20:42Z</time>
      </trkpt>
      <trkpt lat="46.46191" lon="4.64393">
        <ele>337.56</ele>
        <time>2017-10-21T14:20:57Z</time>
      </trkpt>
      <trkpt lat="46.4619" lon="4.64393">
        <ele>337.08</ele>
        <time>2017-10-21T14:21:16Z</time>
      </trkpt>
      <trkpt lat="46.4619" lon="4.64393">
        <ele>337.56</ele>
        <time>2017-10-21T14:21:33Z</time>
      </trkpt>
      <trkpt lat="46.4619" lon="4.64393">
        <ele>337.56</ele>
        <time>2017-10-21T14:21:49Z</time>
      </trkpt>
      <trkpt lat="46.4619" lon="4.64392">
        <ele>337.08</ele>
        <time>2017-10-21T14:22:07Z</time>
      </trkpt>
      <trkpt lat="46.46189" lon="4.64393">
        <ele>337.08</ele>
        <time>2017-10-21T14:22:28Z</time>
      </trkpt>
      <trkpt lat="46.46189" lon="4.64393">
        <ele>337.08</ele>
        <time>2017-10-21T14:22:44Z</time>
      </trkpt>
      <trkpt lat="46.4619" lon="4.64394">
        <ele>337.08</ele>
        <time>2017-10-21T14:22:59Z</time>
      </trkpt>
      <trkpt lat="46.46189" lon="4.64394">
        <ele>337.08</ele>
        <time>2017-10-21T14:23:12Z</time>
      </trkpt>
      <trkpt lat="46.46189" lon="4.64394">
        <ele>337.08</ele>
        <time>2017-10-21T14:23:27Z</time>
      </trkpt>
      <trkpt lat="46.46189" lon="4.64394">
        <ele>337.08</ele>
        <time>2017-10-21T14:23:35Z</time>
      </trkpt>
      <trkpt lat="46.46187" lon="4.64396">
        <ele>337.08</ele>
        <time>2017-10-21T14:23:44Z</time>
      </trkpt>
      <trkpt lat="46.46181" lon="4.64395">
        <ele>337.56</ele>
        <time>2017-10-21T14:23:52Z</time>
      </trkpt>
      <trkpt lat="46.46176" lon="4.64394">
        <ele>337.56</ele>
        <time>2017-10-21T14:23:58Z</time>
      </trkpt>
      <trkpt lat="46.4617" lon="4.64389">
        <ele>338.04</ele>
        <time>2017-10-21T14:24:05Z</time>
      </trkpt>
      <trkpt lat="46.46163" lon="4.64384">
        <ele>338.52</ele>
        <time>2017-10-21T14:24:13Z</time>
      </trkpt>
      <trkpt lat="46.46157" lon="4.64381">
        <ele>338.52</ele>
        <time>2017-10-21T14:24:19Z</time>
      </trkpt>
      <trkpt lat="46.46153" lon="4.64378">
        <ele>339</ele>
        <time>2017-10-21T14:24:23Z</time>
      </trkpt>
      <trkpt lat="46.46147" lon="4.64377">
        <ele>339.48</ele>
        <time>2017-10-21T14:24:30Z</time>
      </trkpt>
      <trkpt lat="46.46141" lon="4.64379">
        <ele>339.96</ele>
        <time>2017-10-21T14:24:38Z</time>
      </trkpt>
      <trkpt lat="46.46136" lon="4.6438">
        <ele>340.44</ele>
        <time>2017-10-21T14:24:43Z</time>
      </trkpt>
      <trkpt lat="46.46128" lon="4.64385">
        <ele>340.44</ele>
        <time>2017-10-21T14:24:51Z</time>
      </trkpt>
      <trkpt lat="46.4612" lon="4.64388">
        <ele>340.92</ele>
        <time>2017-10-21T14:24:59Z</time>
      </trkpt>
      <trkpt lat="46.46111" lon="4.64392">
        <ele>340.44</ele>
        <time>2017-10-21T14:25:08Z</time>
      </trkpt>
      <trkpt lat="46.46108" lon="4.64392">
        <ele>339.96</ele>
        <time>2017-10-21T14:25:11Z</time>
      </trkpt>
      <trkpt lat="46.46098" lon="4.64394">
        <ele>339.48</ele>
        <time>2017-10-21T14:25:20Z</time>
      </trkpt>
      <trkpt lat="46.4609" lon="4.64395">
        <ele>339</ele>
        <time>2017-10-21T14:25:28Z</time>
      </trkpt>
      <trkpt lat="46.46082" lon="4.64396">
        <ele>339</ele>
        <time>2017-10-21T14:25:35Z</time>
      </trkpt>
      <trkpt lat="46.46075" lon="4.64398">
        <ele>338.52</ele>
        <time>2017-10-21T14:25:43Z</time>
      </trkpt>
      <trkpt lat="46.46065" lon="4.64396">
        <ele>338.04</ele>
        <time>2017-10-21T14:25:52Z</time>
      </trkpt>
      <trkpt lat="46.46057" lon="4.64396">
        <ele>337.08</ele>
        <time>2017-10-21T14:25:59Z</time>
      </trkpt>
      <trkpt lat="46.46052" lon="4.64398">
        <ele>336.6</ele>
        <time>2017-10-21T14:26:05Z</time>
      </trkpt>
      <trkpt lat="46.46043" lon="4.64401">
        <ele>335.64</ele>
        <time>2017-10-21T14:26:14Z</time>
      </trkpt>
      <trkpt lat="46.4604" lon="4.64402">
        <ele>335.16</ele>
        <time>2017-10-21T14:26:21Z</time>
      </trkpt>
      <trkpt lat="46.46032" lon="4.64403">
        <ele>334.2</ele>
        <time>2017-10-21T14:26:29Z</time>
      </trkpt>
      <trkpt lat="46.46022" lon="4.64402">
        <ele>332.75</ele>
        <time>2017-10-21T14:26:38Z</time>
      </trkpt>
      <trkpt lat="46.46021" lon="4.64402">
        <ele>332.27</ele>
        <time>2017-10-21T14:26:39Z</time>
      </trkpt>
      <trkpt lat="46.46014" lon="4.64403">
        <ele>331.31</ele>
        <time>2017-10-21T14:26:47Z</time>
      </trkpt>
      <trkpt lat="46.46005" lon="4.64403">
        <ele>329.87</ele>
        <time>2017-10-21T14:26:57Z</time>
      </trkpt>
      <trkpt lat="46.45997" lon="4.64401">
        <ele>328.43</ele>
        <time>2017-10-21T14:27:05Z</time>
      </trkpt>
      <trkpt lat="46.45995" lon="4.644">
        <ele>328.43</ele>
        <time>2017-10-21T14:27:07Z</time>
      </trkpt>
      <trkpt lat="46.45992" lon="4.64399">
        <ele>327.95</ele>
        <time>2017-10-21T14:27:10Z</time>
      </trkpt>
      <trkpt lat="46.45981" lon="4.64397">
        <ele>326.02</ele>
        <time>2017-10-21T14:27:20Z</time>
      </trkpt>
      <trkpt lat="46.4598" lon="4.64397">
        <ele>326.02</ele>
        <time>2017-10-21T14:27:21Z</time>
      </trkpt>
      <trkpt lat="46.45978" lon="4.64398">
        <ele>325.54</ele>
        <time>2017-10-21T14:27:26Z</time>
      </trkpt>
      <trkpt lat="46.45972" lon="4.64397">
        <ele>324.58</ele>
        <time>2017-10-21T14:27:33Z</time>
      </trkpt>
      <trkpt lat="46.45966" lon="4.64395">
        <ele>323.62</ele>
        <time>2017-10-21T14:27:38Z</time>
      </trkpt>
      <trkpt lat="46.45962" lon="4.64395">
        <ele>322.66</ele>
        <time>2017-10-21T14:27:42Z</time>
      </trkpt>
      <trkpt lat="46.45952" lon="4.64394">
        <ele>321.7</ele>
        <time>2017-10-21T14:27:50Z</time>
      </trkpt>
      <trkpt lat="46.45944" lon="4.64394">
        <ele>320.26</ele>
        <time>2017-10-21T14:27:58Z</time>
      </trkpt>
      <trkpt lat="46.45938" lon="4.64394">
        <ele>319.3</ele>
        <time>2017-10-21T14:28:04Z</time>
      </trkpt>
      <trkpt lat="46.45936" lon="4.64393">
        <ele>318.81</ele>
        <time>2017-10-21T14:28:06Z</time>
      </trkpt>
      <trkpt lat="46.45926" lon="4.6439">
        <ele>317.85</ele>
        <time>2017-10-21T14:28:15Z</time>
      </trkpt>
      <trkpt lat="46.45915" lon="4.64388">
        <ele>315.93</ele>
        <time>2017-10-21T14:28:25Z</time>
      </trkpt>
      <trkpt lat="46.45913" lon="4.64388">
        <ele>315.45</ele>
        <time>2017-10-21T14:28:27Z</time>
      </trkpt>
      <trkpt lat="46.45904" lon="4.64385">
        <ele>313.53</ele>
        <time>2017-10-21T14:28:36Z</time>
      </trkpt>
      <trkpt lat="46.45894" lon="4.6438">
        <ele>312.57</ele>
        <time>2017-10-21T14:28:45Z</time>
      </trkpt>
      <trkpt lat="46.45883" lon="4.64374">
        <ele>311.12</ele>
        <time>2017-10-21T14:28:55Z</time>
      </trkpt>
      <trkpt lat="46.45875" lon="4.6437">
        <ele>309.68</ele>
        <time>2017-10-21T14:29:03Z</time>
      </trkpt>
      <trkpt lat="46.45869" lon="4.64366">
        <ele>308.72</ele>
        <time>2017-10-21T14:29:09Z</time>
      </trkpt>
      <trkpt lat="46.45862" lon="4.6436">
        <ele>307.76</ele>
        <time>2017-10-21T14:29:17Z</time>
      </trkpt>
      <trkpt lat="46.45854" lon="4.64357">
        <ele>306.32</ele>
        <time>2017-10-21T14:29:25Z</time>
      </trkpt>
      <trkpt lat="46.45843" lon="4.64352">
        <ele>304.88</ele>
        <time>2017-10-21T14:29:36Z</time>
      </trkpt>
      <trkpt lat="46.45835" lon="4.64351">
        <ele>303.43</ele>
        <time>2017-10-21T14:29:44Z</time>
      </trkpt>
      <trkpt lat="46.4583" lon="4.64349">
        <ele>302.95</ele>
        <time>2017-10-21T14:29:50Z</time>
      </trkpt>
      <trkpt lat="46.45826" lon="4.64348">
        <ele>302.47</ele>
        <time>2017-10-21T14:29:53Z</time>
      </trkpt>
      <trkpt lat="46.45816" lon="4.64347">
        <ele>301.03</ele>
        <time>2017-10-21T14:30:01Z</time>
      </trkpt>
      <trkpt lat="46.45808" lon="4.64348">
        <ele>299.59</ele>
        <time>2017-10-21T14:30:08Z</time>
      </trkpt>
      <trkpt lat="46.45802" lon="4.64348">
        <ele>298.15</ele>
        <time>2017-10-21T14:30:14Z</time>
      </trkpt>
      <trkpt lat="46.45798" lon="4.64348">
        <ele>297.67</ele>
        <time>2017-10-21T14:30:17Z</time>
      </trkpt>
      <trkpt lat="46.45791" lon="4.64351">
        <ele>295.74</ele>
        <time>2017-10-21T14:30:24Z</time>
      </trkpt>
      <trkpt lat="46.45784" lon="4.64354">
        <ele>294.3</ele>
        <time>2017-10-21T14:30:31Z</time>
      </trkpt>
      <trkpt lat="46.45777" lon="4.64357">
        <ele>292.86</ele>
        <time>2017-10-21T14:30:38Z</time>
      </trkpt>
      <trkpt lat="46.45774" lon="4.64358">
        <ele>292.38</ele>
        <time>2017-10-21T14:30:41Z</time>
      </trkpt>
      <trkpt lat="46.45767" lon="4.64362">
        <ele>290.94</ele>
        <time>2017-10-21T14:30:49Z</time>
      </trkpt>
      <trkpt lat="46.4576" lon="4.64366">
        <ele>289.49</ele>
        <time>2017-10-21T14:30:55Z</time>
      </trkpt>
      <trkpt lat="46.45759" lon="4.64367">
        <ele>289.01</ele>
        <time>2017-10-21T14:30:57Z</time>
      </trkpt>
      <trkpt lat="46.45757" lon="4.64369">
        <ele>289.01</ele>
        <time>2017-10-21T14:30:59Z</time>
      </trkpt>
      <trkpt lat="46.4575" lon="4.64374">
        <ele>288.05</ele>
        <time>2017-10-21T14:31:07Z</time>
      </trkpt>
      <trkpt lat="46.45743" lon="4.64384">
        <ele>286.61</ele>
        <time>2017-10-21T14:31:15Z</time>
      </trkpt>
      <trkpt lat="46.45736" lon="4.64393">
        <ele>286.13</ele>
        <time>2017-10-21T14:31:22Z</time>
      </trkpt>
      <trkpt lat="46.45729" lon="4.64402">
        <ele>285.65</ele>
        <time>2017-10-21T14:31:30Z</time>
      </trkpt>
      <trkpt lat="46.45724" lon="4.6441">
        <ele>285.17</ele>
        <time>2017-10-21T14:31:36Z</time>
      </trkpt>
      <trkpt lat="46.4572" lon="4.64419">
        <ele>284.69</ele>
        <time>2017-10-21T14:31:44Z</time>
      </trkpt>
      <trkpt lat="46.45715" lon="4.64427">
        <ele>284.21</ele>
        <time>2017-10-21T14:31:50Z</time>
      </trkpt>
      <trkpt lat="46.45709" lon="4.64438">
        <ele>283.73</ele>
        <time>2017-10-21T14:31:58Z</time>
      </trkpt>
      <trkpt lat="46.45704" lon="4.64444">
        <ele>283.73</ele>
        <time>2017-10-21T14:32:04Z</time>
      </trkpt>
      <trkpt lat="46.45702" lon="4.64453">
        <ele>283.25</ele>
        <time>2017-10-21T14:32:10Z</time>
      </trkpt>
      <trkpt lat="46.45697" lon="4.64461">
        <ele>283.25</ele>
        <time>2017-10-21T14:32:17Z</time>
      </trkpt>
      <trkpt lat="46.45692" lon="4.64473">
        <ele>282.77</ele>
        <time>2017-10-21T14:32:26Z</time>
      </trkpt>
      <trkpt lat="46.45691" lon="4.64475">
        <ele>282.77</ele>
        <time>2017-10-21T14:32:27Z</time>
      </trkpt>
      <trkpt lat="46.45687" lon="4.64484">
        <ele>282.77</ele>
        <time>2017-10-21T14:32:34Z</time>
      </trkpt>
      <trkpt lat="46.45683" lon="4.64492">
        <ele>282.28</ele>
        <time>2017-10-21T14:32:41Z</time>
      </trkpt>
      <trkpt lat="46.45681" lon="4.64502">
        <ele>282.28</ele>
        <time>2017-10-21T14:32:48Z</time>
      </trkpt>
      <trkpt lat="46.45679" lon="4.64505">
        <ele>281.8</ele>
        <time>2017-10-21T14:32:51Z</time>
      </trkpt>
      <trkpt lat="46.45674" lon="4.64517">
        <ele>281.8</ele>
        <time>2017-10-21T14:32:58Z</time>
      </trkpt>
      <trkpt lat="46.45671" lon="4.64524">
        <ele>281.32</ele>
        <time>2017-10-21T14:33:04Z</time>
      </trkpt>
      <trkpt lat="46.45667" lon="4.64532">
        <ele>280.84</ele>
        <time>2017-10-21T14:33:10Z</time>
      </trkpt>
      <trkpt lat="46.45661" lon="4.64543">
        <ele>280.84</ele>
        <time>2017-10-21T14:33:18Z</time>
      </trkpt>
      <trkpt lat="46.45657" lon="4.64551">
        <ele>280.36</ele>
        <time>2017-10-21T14:33:24Z</time>
      </trkpt>
      <trkpt lat="46.45656" lon="4.64554">
        <ele>280.36</ele>
        <time>2017-10-21T14:33:27Z</time>
      </trkpt>
      <trkpt lat="46.45655" lon="4.64561">
        <ele>279.88</ele>
        <time>2017-10-21T14:33:31Z</time>
      </trkpt>
      <trkpt lat="46.4565" lon="4.64568">
        <ele>279.88</ele>
        <time>2017-10-21T14:33:36Z</time>
      </trkpt>
      <trkpt lat="46.45645" lon="4.64578">
        <ele>279.88</ele>
        <time>2017-10-21T14:33:44Z</time>
      </trkpt>
      <trkpt lat="46.45643" lon="4.64585">
        <ele>279.4</ele>
        <time>2017-10-21T14:33:52Z</time>
      </trkpt>
      <trkpt lat="46.45643" lon="4.64586">
        <ele>279.88</ele>
        <time>2017-10-21T14:34:04Z</time>
      </trkpt>
      <trkpt lat="46.45643" lon="4.64588">
        <ele>279.88</ele>
        <time>2017-10-21T14:34:13Z</time>
      </trkpt>
      <trkpt lat="46.45642" lon="4.6459">
        <ele>279.88</ele>
        <time>2017-10-21T14:34:15Z</time>
      </trkpt>
      <trkpt lat="46.45638" lon="4.64596">
        <ele>279.88</ele>
        <time>2017-10-21T14:34:22Z</time>
      </trkpt>
      <trkpt lat="46.45637" lon="4.64599">
        <ele>279.88</ele>
        <time>2017-10-21T14:34:25Z</time>
      </trkpt>
      <trkpt lat="46.45636" lon="4.64602">
        <ele>279.4</ele>
        <time>2017-10-21T14:34:27Z</time>
      </trkpt>
      <trkpt lat="46.45636" lon="4.64609">
        <ele>279.4</ele>
        <time>2017-10-21T14:34:32Z</time>
      </trkpt>
      <trkpt lat="46.4563" lon="4.64618">
        <ele>279.4</ele>
        <time>2017-10-21T14:34:39Z</time>
      </trkpt>
      <trkpt lat="46.45629" lon="4.64627">
        <ele>279.4</ele>
        <time>2017-10-21T14:34:43Z</time>
      </trkpt>
      <trkpt lat="46.45626" lon="4.64629">
        <ele>279.4</ele>
        <time>2017-10-21T14:34:49Z</time>
      </trkpt>
      <trkpt lat="46.45626" lon="4.64625">
        <ele>279.4</ele>
        <time>2017-10-21T14:34:56Z</time>
      </trkpt>
      <trkpt lat="46.45627" lon="4.64626">
        <ele>279.4</ele>
        <time>2017-10-21T14:35:01Z</time>
      </trkpt>
      <trkpt lat="46.45627" lon="4.64628">
        <ele>279.4</ele>
        <time>2017-10-21T14:35:09Z</time>
      </trkpt>
      <trkpt lat="46.45627" lon="4.64632">
        <ele>279.4</ele>
        <time>2017-10-21T14:35:15Z</time>
      </trkpt>
      <trkpt lat="46.45626" lon="4.64635">
        <ele>279.4</ele>
        <time>2017-10-21T14:35:17Z</time>
      </trkpt>
      <trkpt lat="46.45625" lon="4.64641">
        <ele>279.4</ele>
        <time>2017-10-21T14:35:20Z</time>
      </trkpt>
      <trkpt lat="46.45626" lon="4.64652">
        <ele>279.4</ele>
        <time>2017-10-21T14:35:28Z</time>
      </trkpt>
      <trkpt lat="46.45626" lon="4.64653">
        <ele>279.4</ele>
        <time>2017-10-21T14:35:36Z</time>
      </trkpt>
      <trkpt lat="46.45626" lon="4.64653">
        <ele>279.4</ele>
        <time>2017-10-21T14:35:45Z</time>
      </trkpt>
      <trkpt lat="46.45627" lon="4.64653">
        <ele>279.4</ele>
        <time>2017-10-21T14:35:54Z</time>
      </trkpt>
      <trkpt lat="46.45627" lon="4.64657">
        <ele>279.4</ele>
        <time>2017-10-21T14:35:58Z</time>
      </trkpt>
      <trkpt lat="46.45627" lon="4.64666">
        <ele>279.4</ele>
        <time>2017-10-21T14:36:03Z</time>
      </trkpt>
      <trkpt lat="46.45626" lon="4.64674">
        <ele>279.4</ele>
        <time>2017-10-21T14:36:08Z</time>
      </trkpt>
      <trkpt lat="46.45626" lon="4.64686">
        <ele>278.92</ele>
        <time>2017-10-21T14:36:14Z</time>
      </trkpt>
      <trkpt lat="46.45625" lon="4.6469">
        <ele>278.92</ele>
        <time>2017-10-21T14:36:16Z</time>
      </trkpt>
      <trkpt lat="46.45621" lon="4.64695">
        <ele>278.44</ele>
        <time>2017-10-21T14:36:20Z</time>
      </trkpt>
      <trkpt lat="46.45612" lon="4.64703">
        <ele>277.48</ele>
        <time>2017-10-21T14:36:28Z</time>
      </trkpt>
      <trkpt lat="46.45608" lon="4.64705">
        <ele>277</ele>
        <time>2017-10-21T14:36:31Z</time>
      </trkpt>
      <trkpt lat="46.456" lon="4.64712">
        <ele>276.52</ele>
        <time>2017-10-21T14:36:39Z</time>
      </trkpt>
      <trkpt lat="46.45592" lon="4.64719">
        <ele>276.04</ele>
        <time>2017-10-21T14:36:46Z</time>
      </trkpt>
      <trkpt lat="46.45585" lon="4.6473">
        <ele>276.04</ele>
        <time>2017-10-21T14:36:53Z</time>
      </trkpt>
      <trkpt lat="46.45582" lon="4.64741">
        <ele>275.56</ele>
        <time>2017-10-21T14:37:00Z</time>
      </trkpt>
      <trkpt lat="46.45581" lon="4.64749">
        <ele>275.56</ele>
        <time>2017-10-21T14:37:05Z</time>
      </trkpt>
      <trkpt lat="46.45581" lon="4.64763">
        <ele>275.07</ele>
        <time>2017-10-21T14:37:13Z</time>
      </trkpt>
      <trkpt lat="46.4558" lon="4.64777">
        <ele>275.07</ele>
        <time>2017-10-21T14:37:21Z</time>
      </trkpt>
      <trkpt lat="46.4558" lon="4.64785">
        <ele>275.07</ele>
        <time>2017-10-21T14:37:26Z</time>
      </trkpt>
      <trkpt lat="46.45578" lon="4.64794">
        <ele>275.07</ele>
        <time>2017-10-21T14:37:32Z</time>
      </trkpt>
      <trkpt lat="46.45574" lon="4.64804">
        <ele>275.07</ele>
        <time>2017-10-21T14:37:39Z</time>
      </trkpt>
      <trkpt lat="46.45574" lon="4.64805">
        <ele>275.07</ele>
        <time>2017-10-21T14:37:40Z</time>
      </trkpt>
      <trkpt lat="46.45569" lon="4.64811">
        <ele>276.04</ele>
        <time>2017-10-21T14:37:46Z</time>
      </trkpt>
      <trkpt lat="46.45569" lon="4.64812">
        <ele>276.04</ele>
        <time>2017-10-21T14:37:47Z</time>
      </trkpt>
      <trkpt lat="46.45559" lon="4.64813">
        <ele>277</ele>
        <time>2017-10-21T14:37:55Z</time>
      </trkpt>
      <trkpt lat="46.45557" lon="4.64811">
        <ele>277</ele>
        <time>2017-10-21T14:38:08Z</time>
      </trkpt>
      <trkpt lat="46.45557" lon="4.64812">
        <ele>277.48</ele>
        <time>2017-10-21T14:38:12Z</time>
      </trkpt>
      <trkpt lat="46.45554" lon="4.64815">
        <ele>277.96</ele>
        <time>2017-10-21T14:38:15Z</time>
      </trkpt>
      <trkpt lat="46.45552" lon="4.6482">
        <ele>278.92</ele>
        <time>2017-10-21T14:38:19Z</time>
      </trkpt>
      <trkpt lat="46.45547" lon="4.64826">
        <ele>279.88</ele>
        <time>2017-10-21T14:38:25Z</time>
      </trkpt>
      <trkpt lat="46.45545" lon="4.64828">
        <ele>280.36</ele>
        <time>2017-10-21T14:38:27Z</time>
      </trkpt>
      <trkpt lat="46.45543" lon="4.64839">
        <ele>281.8</ele>
        <time>2017-10-21T14:38:35Z</time>
      </trkpt>
      <trkpt lat="46.45542" lon="4.64841">
        <ele>282.28</ele>
        <time>2017-10-21T14:38:36Z</time>
      </trkpt>
      <trkpt lat="46.45542" lon="4.64844">
        <ele>282.77</ele>
        <time>2017-10-21T14:38:38Z</time>
      </trkpt>
      <trkpt lat="46.45542" lon="4.6485">
        <ele>283.25</ele>
        <time>2017-10-21T14:38:42Z</time>
      </trkpt>
      <trkpt lat="46.45541" lon="4.64865">
        <ele>284.69</ele>
        <time>2017-10-21T14:38:51Z</time>
      </trkpt>
      <trkpt lat="46.45538" lon="4.64874">
        <ele>285.65</ele>
        <time>2017-10-21T14:38:57Z</time>
      </trkpt>
      <trkpt lat="46.45536" lon="4.64887">
        <ele>287.09</ele>
        <time>2017-10-21T14:39:04Z</time>
      </trkpt>
      <trkpt lat="46.45533" lon="4.64899">
        <ele>288.53</ele>
        <time>2017-10-21T14:39:10Z</time>
      </trkpt>
      <trkpt lat="46.45533" lon="4.64901">
        <ele>288.53</ele>
        <time>2017-10-21T14:39:11Z</time>
      </trkpt>
      <trkpt lat="46.45535" lon="4.64915">
        <ele>290.94</ele>
        <time>2017-10-21T14:39:19Z</time>
      </trkpt>
      <trkpt lat="46.45535" lon="4.64925">
        <ele>291.9</ele>
        <time>2017-10-21T14:39:26Z</time>
      </trkpt>
      <trkpt lat="46.45536" lon="4.64931">
        <ele>292.86</ele>
        <time>2017-10-21T14:39:33Z</time>
      </trkpt>
      <trkpt lat="46.45534" lon="4.64936">
        <ele>294.3</ele>
        <time>2017-10-21T14:39:40Z</time>
      </trkpt>
      <trkpt lat="46.45531" lon="4.64941">
        <ele>294.78</ele>
        <time>2017-10-21T14:39:47Z</time>
      </trkpt>
      <trkpt lat="46.45529" lon="4.64944">
        <ele>295.74</ele>
        <time>2017-10-21T14:39:53Z</time>
      </trkpt>
      <trkpt lat="46.45527" lon="4.64947">
        <ele>296.22</ele>
        <time>2017-10-21T14:39:59Z</time>
      </trkpt>
      <trkpt lat="46.45523" lon="4.64949">
        <ele>296.22</ele>
        <time>2017-10-21T14:40:04Z</time>
      </trkpt>
      <trkpt lat="46.45515" lon="4.64954">
        <ele>296.7</ele>
        <time>2017-10-21T14:40:12Z</time>
      </trkpt>
      <trkpt lat="46.45508" lon="4.64959">
        <ele>296.7</ele>
        <time>2017-10-21T14:40:20Z</time>
      </trkpt>
      <trkpt lat="46.455" lon="4.64961">
        <ele>297.18</ele>
        <time>2017-10-21T14:40:27Z</time>
      </trkpt>
      <trkpt lat="46.45495" lon="4.64961">
        <ele>297.67</ele>
        <time>2017-10-21T14:40:33Z</time>
      </trkpt>
      <trkpt lat="46.4549" lon="4.64959">
        <ele>298.15</ele>
        <time>2017-10-21T14:40:41Z</time>
      </trkpt>
      <trkpt lat="46.45486" lon="4.6496">
        <ele>298.63</ele>
        <time>2017-10-21T14:40:48Z</time>
      </trkpt>
      <trkpt lat="46.4548" lon="4.64959">
        <ele>299.59</ele>
        <time>2017-10-21T14:40:57Z</time>
      </trkpt>
      <trkpt lat="46.45475" lon="4.64958">
        <ele>300.55</ele>
        <time>2017-10-21T14:41:03Z</time>
      </trkpt>
      <trkpt lat="46.45467" lon="4.64957">
        <ele>302.47</ele>
        <time>2017-10-21T14:41:13Z</time>
      </trkpt>
      <trkpt lat="46.45459" lon="4.64955">
        <ele>304.88</ele>
        <time>2017-10-21T14:41:21Z</time>
      </trkpt>
      <trkpt lat="46.45456" lon="4.64955">
        <ele>305.36</ele>
        <time>2017-10-21T14:41:24Z</time>
      </trkpt>
      <trkpt lat="46.45452" lon="4.64957">
        <ele>305.84</ele>
        <time>2017-10-21T14:41:28Z</time>
      </trkpt>
      <trkpt lat="46.45446" lon="4.64954">
        <ele>307.76</ele>
        <time>2017-10-21T14:41:35Z</time>
      </trkpt>
      <trkpt lat="46.45443" lon="4.64953">
        <ele>308.72</ele>
        <time>2017-10-21T14:41:40Z</time>
      </trkpt>
      <trkpt lat="46.45442" lon="4.6495">
        <ele>309.68</ele>
        <time>2017-10-21T14:41:45Z</time>
      </trkpt>
      <trkpt lat="46.45436" lon="4.64947">
        <ele>311.6</ele>
        <time>2017-10-21T14:41:52Z</time>
      </trkpt>
      <trkpt lat="46.45432" lon="4.64948">
        <ele>314.01</ele>
        <time>2017-10-21T14:41:58Z</time>
      </trkpt>
      <trkpt lat="46.45428" lon="4.64947">
        <ele>314.49</ele>
        <time>2017-10-21T14:42:04Z</time>
      </trkpt>
      <trkpt lat="46.45425" lon="4.64948">
        <ele>315.93</ele>
        <time>2017-10-21T14:42:11Z</time>
      </trkpt>
      <trkpt lat="46.45419" lon="4.64947">
        <ele>316.89</ele>
        <time>2017-10-21T14:42:18Z</time>
      </trkpt>
      <trkpt lat="46.45413" lon="4.64945">
        <ele>317.85</ele>
        <time>2017-10-21T14:42:24Z</time>
      </trkpt>
      <trkpt lat="46.45408" lon="4.64942">
        <ele>319.3</ele>
        <time>2017-10-21T14:42:30Z</time>
      </trkpt>
      <trkpt lat="46.45404" lon="4.6494">
        <ele>320.26</ele>
        <time>2017-10-21T14:42:36Z</time>
      </trkpt>
      <trkpt lat="46.454" lon="4.6494">
        <ele>321.7</ele>
        <time>2017-10-21T14:42:42Z</time>
      </trkpt>
      <trkpt lat="46.45393" lon="4.64938">
        <ele>323.14</ele>
        <time>2017-10-21T14:42:49Z</time>
      </trkpt>
      <trkpt lat="46.45388" lon="4.64938">
        <ele>325.06</ele>
        <time>2017-10-21T14:42:57Z</time>
      </trkpt>
      <trkpt lat="46.45383" lon="4.64937">
        <ele>326.99</ele>
        <time>2017-10-21T14:43:04Z</time>
      </trkpt>
      <trkpt lat="46.45379" lon="4.64937">
        <ele>327.95</ele>
        <time>2017-10-21T14:43:10Z</time>
      </trkpt>
      <trkpt lat="46.45374" lon="4.64939">
        <ele>329.39</ele>
        <time>2017-10-21T14:43:17Z</time>
      </trkpt>
      <trkpt lat="46.4537" lon="4.6494">
        <ele>330.83</ele>
        <time>2017-10-21T14:43:24Z</time>
      </trkpt>
      <trkpt lat="46.45366" lon="4.6494">
        <ele>331.79</ele>
        <time>2017-10-21T14:43:27Z</time>
      </trkpt>
      <trkpt lat="46.45359" lon="4.64942">
        <ele>332.75</ele>
        <time>2017-10-21T14:43:34Z</time>
      </trkpt>
      <trkpt lat="46.45354" lon="4.64942">
        <ele>334.2</ele>
        <time>2017-10-21T14:43:40Z</time>
      </trkpt>
      <trkpt lat="46.45349" lon="4.64944">
        <ele>335.16</ele>
        <time>2017-10-21T14:43:47Z</time>
      </trkpt>
      <trkpt lat="46.45343" lon="4.64945">
        <ele>336.12</ele>
        <time>2017-10-21T14:43:54Z</time>
      </trkpt>
      <trkpt lat="46.45337" lon="4.64944">
        <ele>337.56</ele>
        <time>2017-10-21T14:44:01Z</time>
      </trkpt>
      <trkpt lat="46.45329" lon="4.64945">
        <ele>339</ele>
        <time>2017-10-21T14:44:10Z</time>
      </trkpt>
      <trkpt lat="46.45324" lon="4.64944">
        <ele>340.44</ele>
        <time>2017-10-21T14:44:17Z</time>
      </trkpt>
      <trkpt lat="46.45322" lon="4.64944">
        <ele>341.89</ele>
        <time>2017-10-21T14:44:23Z</time>
      </trkpt>
      <trkpt lat="46.45317" lon="4.64944">
        <ele>342.85</ele>
        <time>2017-10-21T14:44:29Z</time>
      </trkpt>
      <trkpt lat="46.45316" lon="4.64944">
        <ele>343.33</ele>
        <time>2017-10-21T14:44:30Z</time>
      </trkpt>
      <trkpt lat="46.4531" lon="4.64942">
        <ele>344.77</ele>
        <time>2017-10-21T14:44:37Z</time>
      </trkpt>
      <trkpt lat="46.45305" lon="4.64942">
        <ele>345.73</ele>
        <time>2017-10-21T14:44:44Z</time>
      </trkpt>
      <trkpt lat="46.45298" lon="4.64942">
        <ele>347.17</ele>
        <time>2017-10-21T14:44:51Z</time>
      </trkpt>
      <trkpt lat="46.45292" lon="4.64939">
        <ele>348.62</ele>
        <time>2017-10-21T14:44:58Z</time>
      </trkpt>
      <trkpt lat="46.45292" lon="4.64939">
        <ele>348.62</ele>
        <time>2017-10-21T14:44:59Z</time>
      </trkpt>
      <trkpt lat="46.45287" lon="4.64937">
        <ele>349.58</ele>
        <time>2017-10-21T14:45:05Z</time>
      </trkpt>
      <trkpt lat="46.45282" lon="4.64938">
        <ele>351.02</ele>
        <time>2017-10-21T14:45:11Z</time>
      </trkpt>
      <trkpt lat="46.4528" lon="4.64938">
        <ele>351.5</ele>
        <time>2017-10-21T14:45:13Z</time>
      </trkpt>
      <trkpt lat="46.45272" lon="4.64938">
        <ele>352.94</ele>
        <time>2017-10-21T14:45:20Z</time>
      </trkpt>
      <trkpt lat="46.45268" lon="4.64938">
        <ele>354.38</ele>
        <time>2017-10-21T14:45:25Z</time>
      </trkpt>
      <trkpt lat="46.45264" lon="4.64939">
        <ele>355.34</ele>
        <time>2017-10-21T14:45:29Z</time>
      </trkpt>
      <trkpt lat="46.45259" lon="4.64944">
        <ele>356.31</ele>
        <time>2017-10-21T14:45:35Z</time>
      </trkpt>
      <trkpt lat="46.45258" lon="4.64946">
        <ele>356.79</ele>
        <time>2017-10-21T14:45:37Z</time>
      </trkpt>
      <trkpt lat="46.4525" lon="4.64951">
        <ele>357.75</ele>
        <time>2017-10-21T14:45:44Z</time>
      </trkpt>
      <trkpt lat="46.45248" lon="4.64956">
        <ele>357.75</ele>
        <time>2017-10-21T14:45:51Z</time>
      </trkpt>
      <trkpt lat="46.45246" lon="4.64958">
        <ele>358.23</ele>
        <time>2017-10-21T14:45:56Z</time>
      </trkpt>
      <trkpt lat="46.45245" lon="4.6496">
        <ele>357.75</ele>
        <time>2017-10-21T14:46:05Z</time>
      </trkpt>
      <trkpt lat="46.45245" lon="4.6496">
        <ele>357.75</ele>
        <time>2017-10-21T14:46:14Z</time>
      </trkpt>
      <trkpt lat="46.45245" lon="4.6496">
        <ele>357.75</ele>
        <time>2017-10-21T14:46:27Z</time>
      </trkpt>
      <trkpt lat="46.45245" lon="4.64961">
        <ele>357.75</ele>
        <time>2017-10-21T14:46:37Z</time>
      </trkpt>
      <trkpt lat="46.45245" lon="4.64962">
        <ele>357.27</ele>
        <time>2017-10-21T14:46:49Z</time>
      </trkpt>
      <trkpt lat="46.45246" lon="4.64962">
        <ele>356.79</ele>
        <time>2017-10-21T14:47:02Z</time>
      </trkpt>
      <trkpt lat="46.45246" lon="4.64962">
        <ele>357.27</ele>
        <time>2017-10-21T14:47:15Z</time>
      </trkpt>
      <trkpt lat="46.45246" lon="4.64962">
        <ele>357.27</ele>
        <time>2017-10-21T14:47:26Z</time>
      </trkpt>
      <trkpt lat="46.45246" lon="4.64962">
        <ele>356.79</ele>
        <time>2017-10-21T14:47:42Z</time>
      </trkpt>
      <trkpt lat="46.45246" lon="4.64962">
        <ele>356.79</ele>
        <time>2017-10-21T14:47:52Z</time>
      </trkpt>
      <trkpt lat="46.45246" lon="4.64963">
        <ele>357.75</ele>
        <time>2017-10-21T14:47:59Z</time>
      </trkpt>
      <trkpt lat="46.45246" lon="4.64962">
        <ele>356.79</ele>
        <time>2017-10-21T14:48:08Z</time>
      </trkpt>
      <trkpt lat="46.45245" lon="4.64963">
        <ele>356.79</ele>
        <time>2017-10-21T14:48:18Z</time>
      </trkpt>
      <trkpt lat="46.45246" lon="4.64963">
        <ele>356.79</ele>
        <time>2017-10-21T14:48:30Z</time>
      </trkpt>
      <trkpt lat="46.45246" lon="4.64962">
        <ele>356.79</ele>
        <time>2017-10-21T14:48:38Z</time>
      </trkpt>
      <trkpt lat="46.45245" lon="4.64962">
        <ele>356.79</ele>
        <time>2017-10-21T14:48:48Z</time>
      </trkpt>
      <trkpt lat="46.45245" lon="4.64962">
        <ele>356.79</ele>
        <time>2017-10-21T14:48:57Z</time>
      </trkpt>
      <trkpt lat="46.45245" lon="4.64962">
        <ele>356.79</ele>
        <time>2017-10-21T14:49:04Z</time>
      </trkpt>
      <trkpt lat="46.45245" lon="4.64962">
        <ele>356.79</ele>
        <time>2017-10-21T14:49:17Z</time>
      </trkpt>
      <trkpt lat="46.45245" lon="4.64962">
        <ele>356.79</ele>
        <time>2017-10-21T14:49:28Z</time>
      </trkpt>
      <trkpt lat="46.45245" lon="4.64962">
        <ele>356.79</ele>
        <time>2017-10-21T14:49:42Z</time>
      </trkpt>
      <trkpt lat="46.45245" lon="4.64961">
        <ele>356.79</ele>
        <time>2017-10-21T14:49:54Z</time>
      </trkpt>
      <trkpt lat="46.45245" lon="4.64961">
        <ele>357.27</ele>
        <time>2017-10-21T14:50:03Z</time>
      </trkpt>
      <trkpt lat="46.45245" lon="4.64961">
        <ele>357.27</ele>
        <time>2017-10-21T14:50:12Z</time>
      </trkpt>
      <trkpt lat="46.45245" lon="4.64961">
        <ele>356.79</ele>
        <time>2017-10-21T14:50:20Z</time>
      </trkpt>
      <trkpt lat="46.45245" lon="4.64961">
        <ele>357.27</ele>
        <time>2017-10-21T14:50:29Z</time>
      </trkpt>
      <trkpt lat="46.45245" lon="4.64961">
        <ele>357.27</ele>
        <time>2017-10-21T14:50:42Z</time>
      </trkpt>
      <trkpt lat="46.45245" lon="4.64961">
        <ele>357.27</ele>
        <time>2017-10-21T14:50:56Z</time>
      </trkpt>
      <trkpt lat="46.45245" lon="4.64961">
        <ele>357.27</ele>
        <time>2017-10-21T14:51:05Z</time>
      </trkpt>
      <trkpt lat="46.45246" lon="4.64962">
        <ele>357.27</ele>
        <time>2017-10-21T14:51:13Z</time>
      </trkpt>
      <trkpt lat="46.45246" lon="4.64963">
        <ele>357.27</ele>
        <time>2017-10-21T14:51:26Z</time>
      </trkpt>
      <trkpt lat="46.45246" lon="4.64962">
        <ele>356.79</ele>
        <time>2017-10-21T14:51:39Z</time>
      </trkpt>
      <trkpt lat="46.45246" lon="4.64962">
        <ele>356.79</ele>
        <time>2017-10-21T14:51:50Z</time>
      </trkpt>
      <trkpt lat="46.45246" lon="4.64963">
        <ele>356.79</ele>
        <time>2017-10-21T14:52:07Z</time>
      </trkpt>
      <trkpt lat="46.45246" lon="4.64963">
        <ele>356.79</ele>
        <time>2017-10-21T14:52:26Z</time>
      </trkpt>
      <trkpt lat="46.45246" lon="4.64963">
        <ele>356.79</ele>
        <time>2017-10-21T14:52:41Z</time>
      </trkpt>
      <trkpt lat="46.45246" lon="4.64963">
        <ele>356.79</ele>
        <time>2017-10-21T14:52:49Z</time>
      </trkpt>
      <trkpt lat="46.45246" lon="4.64963">
        <ele>357.27</ele>
        <time>2017-10-21T14:52:57Z</time>
      </trkpt>
      <trkpt lat="46.45244" lon="4.64959">
        <ele>357.75</ele>
        <time>2017-10-21T14:53:04Z</time>
      </trkpt>
      <trkpt lat="46.4524" lon="4.64961">
        <ele>358.23</ele>
        <time>2017-10-21T14:53:10Z</time>
      </trkpt>
      <trkpt lat="46.45238" lon="4.64963">
        <ele>358.71</ele>
        <time>2017-10-21T14:53:13Z</time>
      </trkpt>
      <trkpt lat="46.4523" lon="4.64968">
        <ele>359.19</ele>
        <time>2017-10-21T14:53:21Z</time>
      </trkpt>
      <trkpt lat="46.45226" lon="4.64971">
        <ele>359.19</ele>
        <time>2017-10-21T14:53:25Z</time>
      </trkpt>
      <trkpt lat="46.45222" lon="4.64974">
        <ele>360.15</ele>
        <time>2017-10-21T14:53:30Z</time>
      </trkpt>
      <trkpt lat="46.45219" lon="4.64977">
        <ele>360.15</ele>
        <time>2017-10-21T14:53:33Z</time>
      </trkpt>
      <trkpt lat="46.45217" lon="4.64977">
        <ele>360.63</ele>
        <time>2017-10-21T14:53:35Z</time>
      </trkpt>
      <trkpt lat="46.45208" lon="4.64979">
        <ele>361.11</ele>
        <time>2017-10-21T14:53:43Z</time>
      </trkpt>
      <trkpt lat="46.45202" lon="4.64976">
        <ele>362.07</ele>
        <time>2017-10-21T14:53:49Z</time>
      </trkpt>
      <trkpt lat="46.45199" lon="4.64975">
        <ele>362.07</ele>
        <time>2017-10-21T14:53:52Z</time>
      </trkpt>
      <trkpt lat="46.45188" lon="4.6497">
        <ele>363.52</ele>
        <time>2017-10-21T14:54:01Z</time>
      </trkpt>
      <trkpt lat="46.45185" lon="4.64969">
        <ele>363.52</ele>
        <time>2017-10-21T14:54:04Z</time>
      </trkpt>
      <trkpt lat="46.45181" lon="4.6497">
        <ele>364</ele>
        <time>2017-10-21T14:54:08Z</time>
      </trkpt>
      <trkpt lat="46.45177" lon="4.64964">
        <ele>364.48</ele>
        <time>2017-10-21T14:54:15Z</time>
      </trkpt>
      <trkpt lat="46.45174" lon="4.64963">
        <ele>365.44</ele>
        <time>2017-10-21T14:54:20Z</time>
      </trkpt>
      <trkpt lat="46.45167" lon="4.64957">
        <ele>366.4</ele>
        <time>2017-10-21T14:54:27Z</time>
      </trkpt>
      <trkpt lat="46.4516" lon="4.64953">
        <ele>366.88</ele>
        <time>2017-10-21T14:54:33Z</time>
      </trkpt>
      <trkpt lat="46.45152" lon="4.6495">
        <ele>367.84</ele>
        <time>2017-10-21T14:54:40Z</time>
      </trkpt>
      <trkpt lat="46.45144" lon="4.64946">
        <ele>368.8</ele>
        <time>2017-10-21T14:54:47Z</time>
      </trkpt>
      <trkpt lat="46.45139" lon="4.64942">
        <ele>369.76</ele>
        <time>2017-10-21T14:54:53Z</time>
      </trkpt>
      <trkpt lat="46.45132" lon="4.64939">
        <ele>370.73</ele>
        <time>2017-10-21T14:55:00Z</time>
      </trkpt>
      <trkpt lat="46.45127" lon="4.64942">
        <ele>371.21</ele>
        <time>2017-10-21T14:55:06Z</time>
      </trkpt>
      <trkpt lat="46.45117" lon="4.64946">
        <ele>372.17</ele>
        <time>2017-10-21T14:55:14Z</time>
      </trkpt>
      <trkpt lat="46.45116" lon="4.64946">
        <ele>372.17</ele>
        <time>2017-10-21T14:55:15Z</time>
      </trkpt>
      <trkpt lat="46.4511" lon="4.64953">
        <ele>372.17</ele>
        <time>2017-10-21T14:55:22Z</time>
      </trkpt>
      <trkpt lat="46.45104" lon="4.64958">
        <ele>372.65</ele>
        <time>2017-10-21T14:55:29Z</time>
      </trkpt>
      <trkpt lat="46.45101" lon="4.64961">
        <ele>373.13</ele>
        <time>2017-10-21T14:55:33Z</time>
      </trkpt>
      <trkpt lat="46.45094" lon="4.64961">
        <ele>373.13</ele>
        <time>2017-10-21T14:55:38Z</time>
      </trkpt>
      <trkpt lat="46.45086" lon="4.64962">
        <ele>373.61</ele>
        <time>2017-10-21T14:55:45Z</time>
      </trkpt>
      <trkpt lat="46.45079" lon="4.64961">
        <ele>373.61</ele>
        <time>2017-10-21T14:55:51Z</time>
      </trkpt>
      <trkpt lat="46.4507" lon="4.64961">
        <ele>373.61</ele>
        <time>2017-10-21T14:55:58Z</time>
      </trkpt>
      <trkpt lat="46.45069" lon="4.64962">
        <ele>375.05</ele>
        <time>2017-10-21T14:55:59Z</time>
      </trkpt>
      <trkpt lat="46.45067" lon="4.6496">
        <ele>374.57</ele>
        <time>2017-10-21T14:56:02Z</time>
      </trkpt>
      <trkpt lat="46.45063" lon="4.64961">
        <ele>374.57</ele>
        <time>2017-10-21T14:56:06Z</time>
      </trkpt>
      <trkpt lat="46.45058" lon="4.64961">
        <ele>375.05</ele>
        <time>2017-10-21T14:56:10Z</time>
      </trkpt>
      <trkpt lat="46.45046" lon="4.64962">
        <ele>375.53</ele>
        <time>2017-10-21T14:56:18Z</time>
      </trkpt>
      <trkpt lat="46.45038" lon="4.64964">
        <ele>375.53</ele>
        <time>2017-10-21T14:56:24Z</time>
      </trkpt>
      <trkpt lat="46.45036" lon="4.64964">
        <ele>375.53</ele>
        <time>2017-10-21T14:56:26Z</time>
      </trkpt>
      <trkpt lat="46.45027" lon="4.64963">
        <ele>375.53</ele>
        <time>2017-10-21T14:56:33Z</time>
      </trkpt>
      <trkpt lat="46.45018" lon="4.64963">
        <ele>375.53</ele>
        <time>2017-10-21T14:56:40Z</time>
      </trkpt>
      <trkpt lat="46.45006" lon="4.64961">
        <ele>375.53</ele>
        <time>2017-10-21T14:56:49Z</time>
      </trkpt>
      <trkpt lat="46.45005" lon="4.64961">
        <ele>375.53</ele>
        <time>2017-10-21T14:56:50Z</time>
      </trkpt>
      <trkpt lat="46.45" lon="4.64958">
        <ele>376.01</ele>
        <time>2017-10-21T14:56:56Z</time>
      </trkpt>
      <trkpt lat="46.44994" lon="4.64955">
        <ele>376.01</ele>
        <time>2017-10-21T14:57:03Z</time>
      </trkpt>
      <trkpt lat="46.4499" lon="4.64953">
        <ele>376.01</ele>
        <time>2017-10-21T14:57:07Z</time>
      </trkpt>
      <trkpt lat="46.44979" lon="4.64946">
        <ele>376.49</ele>
        <time>2017-10-21T14:57:13Z</time>
      </trkpt>
      <trkpt lat="46.44977" lon="4.64945">
        <ele>376.49</ele>
        <time>2017-10-21T14:57:15Z</time>
      </trkpt>
      <trkpt lat="46.44971" lon="4.64941">
        <ele>376.49</ele>
        <time>2017-10-21T14:57:19Z</time>
      </trkpt>
      <trkpt lat="46.44967" lon="4.64938">
        <ele>376.01</ele>
        <time>2017-10-21T14:57:23Z</time>
      </trkpt>
      <trkpt lat="46.4496" lon="4.64933">
        <ele>375.53</ele>
        <time>2017-10-21T14:57:29Z</time>
      </trkpt>
      <trkpt lat="46.44953" lon="4.64933">
        <ele>374.57</ele>
        <time>2017-10-21T14:57:36Z</time>
      </trkpt>
      <trkpt lat="46.44947" lon="4.6493">
        <ele>373.61</ele>
        <time>2017-10-21T14:57:41Z</time>
      </trkpt>
      <trkpt lat="46.44945" lon="4.6493">
        <ele>373.61</ele>
        <time>2017-10-21T14:57:42Z</time>
      </trkpt>
      <trkpt lat="46.44938" lon="4.64929">
        <ele>373.61</ele>
        <time>2017-10-21T14:57:47Z</time>
      </trkpt>
      <trkpt lat="46.44935" lon="4.64925">
        <ele>373.13</ele>
        <time>2017-10-21T14:57:50Z</time>
      </trkpt>
      <trkpt lat="46.44926" lon="4.64925">
        <ele>372.65</ele>
        <time>2017-10-21T14:57:56Z</time>
      </trkpt>
      <trkpt lat="46.44922" lon="4.64922">
        <ele>373.13</ele>
        <time>2017-10-21T14:58:00Z</time>
      </trkpt>
      <trkpt lat="46.44919" lon="4.64921">
        <ele>372.17</ele>
        <time>2017-10-21T14:58:02Z</time>
      </trkpt>
      <trkpt lat="46.44914" lon="4.64923">
        <ele>371.21</ele>
        <time>2017-10-21T14:58:09Z</time>
      </trkpt>
      <trkpt lat="46.44909" lon="4.6493">
        <ele>371.69</ele>
        <time>2017-10-21T14:58:19Z</time>
      </trkpt>
      <trkpt lat="46.44908" lon="4.64934">
        <ele>371.21</ele>
        <time>2017-10-21T14:58:32Z</time>
      </trkpt>
      <trkpt lat="46.44907" lon="4.64937">
        <ele>371.69</ele>
        <time>2017-10-21T14:58:44Z</time>
      </trkpt>
      <trkpt lat="46.44906" lon="4.64937">
        <ele>371.69</ele>
        <time>2017-10-21T14:58:55Z</time>
      </trkpt>
      <trkpt lat="46.44904" lon="4.64937">
        <ele>372.17</ele>
        <time>2017-10-21T14:59:10Z</time>
      </trkpt>
      <trkpt lat="46.44903" lon="4.64937">
        <ele>372.17</ele>
        <time>2017-10-21T14:59:24Z</time>
      </trkpt>
      <trkpt lat="46.44902" lon="4.64937">
        <ele>371.69</ele>
        <time>2017-10-21T14:59:41Z</time>
      </trkpt>
      <trkpt lat="46.44901" lon="4.64937">
        <ele>372.17</ele>
        <time>2017-10-21T14:59:52Z</time>
      </trkpt>
      <trkpt lat="46.44901" lon="4.64937">
        <ele>371.69</ele>
        <time>2017-10-21T14:59:59Z</time>
      </trkpt>
      <trkpt lat="46.449" lon="4.64936">
        <ele>372.17</ele>
        <time>2017-10-21T15:00:00Z</time>
      </trkpt>
      <trkpt lat="46.44897" lon="4.64934">
        <ele>371.21</ele>
        <time>2017-10-21T15:00:04Z</time>
      </trkpt>
      <trkpt lat="46.44895" lon="4.64934">
        <ele>370.73</ele>
        <time>2017-10-21T15:00:06Z</time>
      </trkpt>
      <trkpt lat="46.44889" lon="4.64933">
        <ele>369.76</ele>
        <time>2017-10-21T15:00:12Z</time>
      </trkpt>
      <trkpt lat="46.44886" lon="4.64936">
        <ele>368.8</ele>
        <time>2017-10-21T15:00:19Z</time>
      </trkpt>
      <trkpt lat="46.44883" lon="4.64937">
        <ele>368.8</ele>
        <time>2017-10-21T15:00:23Z</time>
      </trkpt>
      <trkpt lat="46.44882" lon="4.64946">
        <ele>368.8</ele>
        <time>2017-10-21T15:00:29Z</time>
      </trkpt>
      <trkpt lat="46.44881" lon="4.64953">
        <ele>368.32</ele>
        <time>2017-10-21T15:00:33Z</time>
      </trkpt>
      <trkpt lat="46.44879" lon="4.64958">
        <ele>367.84</ele>
        <time>2017-10-21T15:00:39Z</time>
      </trkpt>
      <trkpt lat="46.4488" lon="4.64965">
        <ele>367.84</ele>
        <time>2017-10-21T15:00:45Z</time>
      </trkpt>
      <trkpt lat="46.4488" lon="4.64974">
        <ele>367.36</ele>
        <time>2017-10-21T15:00:52Z</time>
      </trkpt>
      <trkpt lat="46.44883" lon="4.64982">
        <ele>366.88</ele>
        <time>2017-10-21T15:00:59Z</time>
      </trkpt>
      <trkpt lat="46.44884" lon="4.64986">
        <ele>366.88</ele>
        <time>2017-10-21T15:01:06Z</time>
      </trkpt>
      <trkpt lat="46.44886" lon="4.64992">
        <ele>366.88</ele>
        <time>2017-10-21T15:01:16Z</time>
      </trkpt>
      <trkpt lat="46.44885" lon="4.64996">
        <ele>366.88</ele>
        <time>2017-10-21T15:01:25Z</time>
      </trkpt>
      <trkpt lat="46.44885" lon="4.64999">
        <ele>366.88</ele>
        <time>2017-10-21T15:01:28Z</time>
      </trkpt>
      <trkpt lat="46.44887" lon="4.65007">
        <ele>365.92</ele>
        <time>2017-10-21T15:01:35Z</time>
      </trkpt>
      <trkpt lat="46.44887" lon="4.65009">
        <ele>365.92</ele>
        <time>2017-10-21T15:01:36Z</time>
      </trkpt>
      <trkpt lat="46.44887" lon="4.65014">
        <ele>365.44</ele>
        <time>2017-10-21T15:01:40Z</time>
      </trkpt>
      <trkpt lat="46.44888" lon="4.65024">
        <ele>364.48</ele>
        <time>2017-10-21T15:01:47Z</time>
      </trkpt>
      <trkpt lat="46.44888" lon="4.65032">
        <ele>364</ele>
        <time>2017-10-21T15:01:53Z</time>
      </trkpt>
      <trkpt lat="46.44889" lon="4.65037">
        <ele>363.52</ele>
        <time>2017-10-21T15:01:56Z</time>
      </trkpt>
      <trkpt lat="46.44887" lon="4.65051">
        <ele>362.55</ele>
        <time>2017-10-21T15:02:03Z</time>
      </trkpt>
      <trkpt lat="46.44887" lon="4.6506">
        <ele>362.07</ele>
        <time>2017-10-21T15:02:08Z</time>
      </trkpt>
      <trkpt lat="46.44887" lon="4.65062">
        <ele>362.07</ele>
        <time>2017-10-21T15:02:09Z</time>
      </trkpt>
      <trkpt lat="46.44888" lon="4.65073">
        <ele>360.63</ele>
        <time>2017-10-21T15:02:16Z</time>
      </trkpt>
      <trkpt lat="46.44889" lon="4.65074">
        <ele>360.63</ele>
        <time>2017-10-21T15:02:17Z</time>
      </trkpt>
      <trkpt lat="46.44889" lon="4.65078">
        <ele>360.63</ele>
        <time>2017-10-21T15:02:19Z</time>
      </trkpt>
      <trkpt lat="46.44889" lon="4.65088">
        <ele>359.67</ele>
        <time>2017-10-21T15:02:25Z</time>
      </trkpt>
      <trkpt lat="46.44889" lon="4.65098">
        <ele>359.19</ele>
        <time>2017-10-21T15:02:30Z</time>
      </trkpt>
      <trkpt lat="46.44889" lon="4.65109">
        <ele>358.23</ele>
        <time>2017-10-21T15:02:37Z</time>
      </trkpt>
      <trkpt lat="46.44889" lon="4.65118">
        <ele>357.27</ele>
        <time>2017-10-21T15:02:43Z</time>
      </trkpt>
      <trkpt lat="46.44889" lon="4.65128">
        <ele>356.79</ele>
        <time>2017-10-21T15:02:48Z</time>
      </trkpt>
      <trkpt lat="46.44887" lon="4.65135">
        <ele>356.31</ele>
        <time>2017-10-21T15:02:53Z</time>
      </trkpt>
      <trkpt lat="46.44885" lon="4.65143">
        <ele>355.34</ele>
        <time>2017-10-21T15:02:58Z</time>
      </trkpt>
      <trkpt lat="46.44885" lon="4.65145">
        <ele>355.34</ele>
        <time>2017-10-21T15:03:00Z</time>
      </trkpt>
      <trkpt lat="46.44884" lon="4.6515">
        <ele>354.38</ele>
        <time>2017-10-21T15:03:03Z</time>
      </trkpt>
      <trkpt lat="46.44881" lon="4.65157">
        <ele>353.9</ele>
        <time>2017-10-21T15:03:08Z</time>
      </trkpt>
      <trkpt lat="46.44881" lon="4.6516">
        <ele>353.9</ele>
        <time>2017-10-21T15:03:10Z</time>
      </trkpt>
      <trkpt lat="46.44878" lon="4.65171">
        <ele>352.94</ele>
        <time>2017-10-21T15:03:17Z</time>
      </trkpt>
      <trkpt lat="46.44876" lon="4.65178">
        <ele>352.46</ele>
        <time>2017-10-21T15:03:21Z</time>
      </trkpt>
      <trkpt lat="46.44875" lon="4.65182">
        <ele>352.46</ele>
        <time>2017-10-21T15:03:24Z</time>
      </trkpt>
      <trkpt lat="46.44874" lon="4.65185">
        <ele>351.98</ele>
        <time>2017-10-21T15:03:26Z</time>
      </trkpt>
      <trkpt lat="46.44874" lon="4.65194">
        <ele>351.02</ele>
        <time>2017-10-21T15:03:32Z</time>
      </trkpt>
      <trkpt lat="46.44873" lon="4.65196">
        <ele>351.02</ele>
        <time>2017-10-21T15:03:35Z</time>
      </trkpt>
      <trkpt lat="46.44872" lon="4.652">
        <ele>350.54</ele>
        <time>2017-10-21T15:03:38Z</time>
      </trkpt>
      <trkpt lat="46.44871" lon="4.65205">
        <ele>350.54</ele>
        <time>2017-10-21T15:03:41Z</time>
      </trkpt>
      <trkpt lat="46.44869" lon="4.6521">
        <ele>350.06</ele>
        <time>2017-10-21T15:03:44Z</time>
      </trkpt>
      <trkpt lat="46.44868" lon="4.65211">
        <ele>349.58</ele>
        <time>2017-10-21T15:03:46Z</time>
      </trkpt>
      <trkpt lat="46.44866" lon="4.6522">
        <ele>348.62</ele>
        <time>2017-10-21T15:03:52Z</time>
      </trkpt>
      <trkpt lat="46.44865" lon="4.65221">
        <ele>348.62</ele>
        <time>2017-10-21T15:03:53Z</time>
      </trkpt>
      <trkpt lat="46.44865" lon="4.65228">
        <ele>348.13</ele>
        <time>2017-10-21T15:03:58Z</time>
      </trkpt>
      <trkpt lat="46.44864" lon="4.65233">
        <ele>347.65</ele>
        <time>2017-10-21T15:04:01Z</time>
      </trkpt>
      <trkpt lat="46.44862" lon="4.65245">
        <ele>346.69</ele>
        <time>2017-10-21T15:04:08Z</time>
      </trkpt>
      <trkpt lat="46.44861" lon="4.65248">
        <ele>346.69</ele>
        <time>2017-10-21T15:04:10Z</time>
      </trkpt>
      <trkpt lat="46.44861" lon="4.65255">
        <ele>346.21</ele>
        <time>2017-10-21T15:04:14Z</time>
      </trkpt>
      <trkpt lat="46.44857" lon="4.65267">
        <ele>345.25</ele>
        <time>2017-10-21T15:04:22Z</time>
      </trkpt>
      <trkpt lat="46.44855" lon="4.65278">
        <ele>344.29</ele>
        <time>2017-10-21T15:04:28Z</time>
      </trkpt>
      <trkpt lat="46.44853" lon="4.65288">
        <ele>343.33</ele>
        <time>2017-10-21T15:04:35Z</time>
      </trkpt>
      <trkpt lat="46.44848" lon="4.65299">
        <ele>342.85</ele>
        <time>2017-10-21T15:04:42Z</time>
      </trkpt>
      <trkpt lat="46.44847" lon="4.65301">
        <ele>342.37</ele>
        <time>2017-10-21T15:04:44Z</time>
      </trkpt>
      <trkpt lat="46.44841" lon="4.65312">
        <ele>341.41</ele>
        <time>2017-10-21T15:04:52Z</time>
      </trkpt>
      <trkpt lat="46.44837" lon="4.6532">
        <ele>340.92</ele>
        <time>2017-10-21T15:04:58Z</time>
      </trkpt>
      <trkpt lat="46.44834" lon="4.65327">
        <ele>339.96</ele>
        <time>2017-10-21T15:05:04Z</time>
      </trkpt>
      <trkpt lat="46.44832" lon="4.6533">
        <ele>339.96</ele>
        <time>2017-10-21T15:05:07Z</time>
      </trkpt>
      <trkpt lat="46.44825" lon="4.65336">
        <ele>338.52</ele>
        <time>2017-10-21T15:05:13Z</time>
      </trkpt>
      <trkpt lat="46.44818" lon="4.65342">
        <ele>338.04</ele>
        <time>2017-10-21T15:05:19Z</time>
      </trkpt>
      <trkpt lat="46.44812" lon="4.65348">
        <ele>337.08</ele>
        <time>2017-10-21T15:05:25Z</time>
      </trkpt>
      <trkpt lat="46.44811" lon="4.6535">
        <ele>336.6</ele>
        <time>2017-10-21T15:05:26Z</time>
      </trkpt>
      <trkpt lat="46.44807" lon="4.65353">
        <ele>336.12</ele>
        <time>2017-10-21T15:05:30Z</time>
      </trkpt>
      <trkpt lat="46.448" lon="4.65351">
        <ele>335.16</ele>
        <time>2017-10-21T15:05:37Z</time>
      </trkpt>
      <trkpt lat="46.44796" lon="4.65349">
        <ele>334.68</ele>
        <time>2017-10-21T15:05:43Z</time>
      </trkpt>
      <trkpt lat="46.44795" lon="4.65348">
        <ele>334.68</ele>
        <time>2017-10-21T15:05:44Z</time>
      </trkpt>
      <trkpt lat="46.44792" lon="4.65348">
        <ele>334.2</ele>
        <time>2017-10-21T15:05:47Z</time>
      </trkpt>
      <trkpt lat="46.44786" lon="4.65346">
        <ele>333.23</ele>
        <time>2017-10-21T15:05:52Z</time>
      </trkpt>
      <trkpt lat="46.44783" lon="4.65346">
        <ele>333.23</ele>
        <time>2017-10-21T15:05:55Z</time>
      </trkpt>
      <trkpt lat="46.44774" lon="4.65344">
        <ele>332.27</ele>
        <time>2017-10-21T15:06:02Z</time>
      </trkpt>
      <trkpt lat="46.44765" lon="4.65342">
        <ele>331.31</ele>
        <time>2017-10-21T15:06:08Z</time>
      </trkpt>
      <trkpt lat="46.44763" lon="4.65342">
        <ele>330.83</ele>
        <time>2017-10-21T15:06:10Z</time>
      </trkpt>
      <trkpt lat="46.44761" lon="4.65342">
        <ele>330.35</ele>
        <time>2017-10-21T15:06:13Z</time>
      </trkpt>
      <trkpt lat="46.44758" lon="4.65341">
        <ele>329.87</ele>
        <time>2017-10-21T15:06:16Z</time>
      </trkpt>
      <trkpt lat="46.44754" lon="4.6534">
        <ele>328.91</ele>
        <time>2017-10-21T15:06:22Z</time>
      </trkpt>
      <trkpt lat="46.4475" lon="4.65338">
        <ele>327.47</ele>
        <time>2017-10-21T15:06:26Z</time>
      </trkpt>
      <trkpt lat="46.44748" lon="4.65338">
        <ele>326.99</ele>
        <time>2017-10-21T15:06:29Z</time>
      </trkpt>
      <trkpt lat="46.44745" lon="4.65338">
        <ele>326.5</ele>
        <time>2017-10-21T15:06:31Z</time>
      </trkpt>
      <trkpt lat="46.44742" lon="4.65337">
        <ele>326.02</ele>
        <time>2017-10-21T15:06:34Z</time>
      </trkpt>
      <trkpt lat="46.44737" lon="4.65334">
        <ele>325.06</ele>
        <time>2017-10-21T15:06:40Z</time>
      </trkpt>
      <trkpt lat="46.44729" lon="4.65331">
        <ele>323.62</ele>
        <time>2017-10-21T15:06:47Z</time>
      </trkpt>
      <trkpt lat="46.44727" lon="4.6533">
        <ele>323.14</ele>
        <time>2017-10-21T15:06:48Z</time>
      </trkpt>
      <trkpt lat="46.44722" lon="4.65327">
        <ele>322.18</ele>
        <time>2017-10-21T15:06:54Z</time>
      </trkpt>
      <trkpt lat="46.44719" lon="4.65324">
        <ele>321.7</ele>
        <time>2017-10-21T15:06:57Z</time>
      </trkpt>
      <trkpt lat="46.4471" lon="4.65316">
        <ele>320.74</ele>
        <time>2017-10-21T15:07:05Z</time>
      </trkpt>
      <trkpt lat="46.44701" lon="4.65307">
        <ele>319.78</ele>
        <time>2017-10-21T15:07:12Z</time>
      </trkpt>
      <trkpt lat="46.44695" lon="4.65295">
        <ele>318.33</ele>
        <time>2017-10-21T15:07:20Z</time>
      </trkpt>
      <trkpt lat="46.44688" lon="4.65287">
        <ele>317.37</ele>
        <time>2017-10-21T15:07:27Z</time>
      </trkpt>
      <trkpt lat="46.44684" lon="4.65277">
        <ele>316.89</ele>
        <time>2017-10-21T15:07:34Z</time>
      </trkpt>
      <trkpt lat="46.44677" lon="4.65262">
        <ele>315.93</ele>
        <time>2017-10-21T15:07:45Z</time>
      </trkpt>
      <trkpt lat="46.44676" lon="4.65256">
        <ele>315.45</ele>
        <time>2017-10-21T15:07:49Z</time>
      </trkpt>
      <trkpt lat="46.44673" lon="4.65253">
        <ele>315.45</ele>
        <time>2017-10-21T15:07:52Z</time>
      </trkpt>
      <trkpt lat="46.4467" lon="4.65245">
        <ele>314.49</ele>
        <time>2017-10-21T15:07:57Z</time>
      </trkpt>
      <trkpt lat="46.44669" lon="4.65238">
        <ele>314.97</ele>
        <time>2017-10-21T15:08:01Z</time>
      </trkpt>
      <trkpt lat="46.44665" lon="4.65229">
        <ele>313.05</ele>
        <time>2017-10-21T15:08:09Z</time>
      </trkpt>
      <trkpt lat="46.44661" lon="4.65217">
        <ele>312.57</ele>
        <time>2017-10-21T15:08:17Z</time>
      </trkpt>
      <trkpt lat="46.4466" lon="4.65216">
        <ele>312.09</ele>
        <time>2017-10-21T15:08:18Z</time>
      </trkpt>
      <trkpt lat="46.44655" lon="4.6521">
        <ele>312.09</ele>
        <time>2017-10-21T15:08:23Z</time>
      </trkpt>
      <trkpt lat="46.44648" lon="4.65197">
        <ele>311.12</ele>
        <time>2017-10-21T15:08:31Z</time>
      </trkpt>
      <trkpt lat="46.44646" lon="4.6519">
        <ele>310.64</ele>
        <time>2017-10-21T15:08:36Z</time>
      </trkpt>
      <trkpt lat="46.44639" lon="4.65178">
        <ele>309.68</ele>
        <time>2017-10-21T15:08:45Z</time>
      </trkpt>
      <trkpt lat="46.4464" lon="4.65178">
        <ele>309.2</ele>
        <time>2017-10-21T15:08:46Z</time>
      </trkpt>
      <trkpt lat="46.44636" lon="4.65172">
        <ele>308.72</ele>
        <time>2017-10-21T15:08:50Z</time>
      </trkpt>
      <trkpt lat="46.44632" lon="4.65166">
        <ele>308.24</ele>
        <time>2017-10-21T15:08:55Z</time>
      </trkpt>
      <trkpt lat="46.44629" lon="4.65161">
        <ele>307.76</ele>
        <time>2017-10-21T15:08:59Z</time>
      </trkpt>
      <trkpt lat="46.44622" lon="4.65148">
        <ele>306.8</ele>
        <time>2017-10-21T15:09:08Z</time>
      </trkpt>
      <trkpt lat="46.44616" lon="4.65139">
        <ele>306.32</ele>
        <time>2017-10-21T15:09:15Z</time>
      </trkpt>
      <trkpt lat="46.44614" lon="4.65131">
        <ele>305.36</ele>
        <time>2017-10-21T15:09:20Z</time>
      </trkpt>
      <trkpt lat="46.44613" lon="4.65128">
        <ele>305.36</ele>
        <time>2017-10-21T15:09:22Z</time>
      </trkpt>
      <trkpt lat="46.44609" lon="4.65119">
        <ele>304.39</ele>
        <time>2017-10-21T15:09:30Z</time>
      </trkpt>
      <trkpt lat="46.44602" lon="4.65107">
        <ele>303.43</ele>
        <time>2017-10-21T15:09:39Z</time>
      </trkpt>
      <trkpt lat="46.44596" lon="4.65095">
        <ele>301.99</ele>
        <time>2017-10-21T15:09:49Z</time>
      </trkpt>
      <trkpt lat="46.44589" lon="4.65087">
        <ele>300.55</ele>
        <time>2017-10-21T15:09:56Z</time>
      </trkpt>
      <trkpt lat="46.44583" lon="4.65078">
        <ele>299.59</ele>
        <time>2017-10-21T15:10:03Z</time>
      </trkpt>
      <trkpt lat="46.44578" lon="4.65068">
        <ele>298.63</ele>
        <time>2017-10-21T15:10:10Z</time>
      </trkpt>
      <trkpt lat="46.44572" lon="4.65059">
        <ele>298.15</ele>
        <time>2017-10-21T15:10:17Z</time>
      </trkpt>
      <trkpt lat="46.44567" lon="4.65053">
        <ele>297.18</ele>
        <time>2017-10-21T15:10:23Z</time>
      </trkpt>
      <trkpt lat="46.4456" lon="4.65046">
        <ele>295.74</ele>
        <time>2017-10-21T15:10:31Z</time>
      </trkpt>
      <trkpt lat="46.44553" lon="4.65038">
        <ele>294.3</ele>
        <time>2017-10-21T15:10:38Z</time>
      </trkpt>
      <trkpt lat="46.44548" lon="4.65033">
        <ele>293.34</ele>
        <time>2017-10-21T15:10:44Z</time>
      </trkpt>
      <trkpt lat="46.44547" lon="4.65031">
        <ele>292.86</ele>
        <time>2017-10-21T15:10:46Z</time>
      </trkpt>
      <trkpt lat="46.44544" lon="4.65028">
        <ele>292.86</ele>
        <time>2017-10-21T15:10:49Z</time>
      </trkpt>
      <trkpt lat="46.44541" lon="4.65024">
        <ele>291.42</ele>
        <time>2017-10-21T15:10:54Z</time>
      </trkpt>
      <trkpt lat="46.44538" lon="4.65022">
        <ele>291.42</ele>
        <time>2017-10-21T15:10:57Z</time>
      </trkpt>
      <trkpt lat="46.44532" lon="4.65018">
        <ele>289.97</ele>
        <time>2017-10-21T15:11:03Z</time>
      </trkpt>
      <trkpt lat="46.44525" lon="4.65013">
        <ele>289.01</ele>
        <time>2017-10-21T15:11:10Z</time>
      </trkpt>
      <trkpt lat="46.44522" lon="4.65012">
        <ele>288.53</ele>
        <time>2017-10-21T15:11:13Z</time>
      </trkpt>
      <trkpt lat="46.44518" lon="4.65008">
        <ele>288.05</ele>
        <time>2017-10-21T15:11:17Z</time>
      </trkpt>
      <trkpt lat="46.44516" lon="4.65007">
        <ele>287.57</ele>
        <time>2017-10-21T15:11:19Z</time>
      </trkpt>
      <trkpt lat="46.44513" lon="4.65005">
        <ele>287.09</ele>
        <time>2017-10-21T15:11:22Z</time>
      </trkpt>
      <trkpt lat="46.44507" lon="4.65">
        <ele>286.13</ele>
        <time>2017-10-21T15:11:28Z</time>
      </trkpt>
      <trkpt lat="46.44505" lon="4.64999">
        <ele>285.65</ele>
        <time>2017-10-21T15:11:30Z</time>
      </trkpt>
      <trkpt lat="46.44499" lon="4.64993">
        <ele>284.69</ele>
        <time>2017-10-21T15:11:36Z</time>
      </trkpt>
      <trkpt lat="46.44493" lon="4.6499">
        <ele>283.73</ele>
        <time>2017-10-21T15:11:41Z</time>
      </trkpt>
      <trkpt lat="46.44489" lon="4.64986">
        <ele>283.25</ele>
        <time>2017-10-21T15:11:45Z</time>
      </trkpt>
      <trkpt lat="46.44478" lon="4.64981">
        <ele>281.32</ele>
        <time>2017-10-21T15:11:52Z</time>
      </trkpt>
      <trkpt lat="46.44477" lon="4.64981">
        <ele>281.32</ele>
        <time>2017-10-21T15:11:53Z</time>
      </trkpt>
      <trkpt lat="46.44475" lon="4.64979">
        <ele>280.84</ele>
        <time>2017-10-21T15:11:55Z</time>
      </trkpt>
      <trkpt lat="46.44471" lon="4.64973">
        <ele>279.88</ele>
        <time>2017-10-21T15:12:00Z</time>
      </trkpt>
      <trkpt lat="46.44469" lon="4.64972">
        <ele>279.88</ele>
        <time>2017-10-21T15:12:02Z</time>
      </trkpt>
      <trkpt lat="46.44462" lon="4.6497">
        <ele>278.44</ele>
        <time>2017-10-21T15:12:08Z</time>
      </trkpt>
      <trkpt lat="46.44462" lon="4.6497">
        <ele>278.44</ele>
        <time>2017-10-21T15:12:10Z</time>
      </trkpt>
      <trkpt lat="46.44458" lon="4.64968">
        <ele>278.44</ele>
        <time>2017-10-21T15:12:13Z</time>
      </trkpt>
      <trkpt lat="46.44453" lon="4.64965">
        <ele>277.48</ele>
        <time>2017-10-21T15:12:17Z</time>
      </trkpt>
      <trkpt lat="46.44448" lon="4.64963">
        <ele>276.52</ele>
        <time>2017-10-21T15:12:22Z</time>
      </trkpt>
      <trkpt lat="46.44441" lon="4.64962">
        <ele>275.56</ele>
        <time>2017-10-21T15:12:27Z</time>
      </trkpt>
      <trkpt lat="46.4444" lon="4.64962">
        <ele>275.07</ele>
        <time>2017-10-21T15:12:29Z</time>
      </trkpt>
      <trkpt lat="46.44437" lon="4.6496">
        <ele>274.59</ele>
        <time>2017-10-21T15:12:32Z</time>
      </trkpt>
      <trkpt lat="46.44434" lon="4.64961">
        <ele>274.11</ele>
        <time>2017-10-21T15:12:35Z</time>
      </trkpt>
      <trkpt lat="46.44432" lon="4.64961">
        <ele>274.11</ele>
        <time>2017-10-21T15:12:37Z</time>
      </trkpt>
      <trkpt lat="46.44426" lon="4.64965">
        <ele>272.67</ele>
        <time>2017-10-21T15:12:43Z</time>
      </trkpt>
      <trkpt lat="46.44425" lon="4.64966">
        <ele>272.67</ele>
        <time>2017-10-21T15:12:44Z</time>
      </trkpt>
      <trkpt lat="46.44424" lon="4.64967">
        <ele>272.19</ele>
        <time>2017-10-21T15:12:46Z</time>
      </trkpt>
      <trkpt lat="46.44421" lon="4.64968">
        <ele>271.71</ele>
        <time>2017-10-21T15:12:49Z</time>
      </trkpt>
      <trkpt lat="46.44417" lon="4.6497">
        <ele>271.23</ele>
        <time>2017-10-21T15:12:52Z</time>
      </trkpt>
      <trkpt lat="46.44415" lon="4.64971">
        <ele>270.75</ele>
        <time>2017-10-21T15:12:54Z</time>
      </trkpt>
      <trkpt lat="46.44412" lon="4.64973">
        <ele>270.27</ele>
        <time>2017-10-21T15:12:57Z</time>
      </trkpt>
      <trkpt lat="46.44411" lon="4.64976">
        <ele>269.79</ele>
        <time>2017-10-21T15:12:59Z</time>
      </trkpt>
      <trkpt lat="46.44404" lon="4.64983">
        <ele>268.83</ele>
        <time>2017-10-21T15:13:06Z</time>
      </trkpt>
      <trkpt lat="46.44401" lon="4.64985">
        <ele>268.35</ele>
        <time>2017-10-21T15:13:08Z</time>
      </trkpt>
      <trkpt lat="46.44398" lon="4.64987">
        <ele>268.35</ele>
        <time>2017-10-21T15:13:11Z</time>
      </trkpt>
      <trkpt lat="46.44396" lon="4.64989">
        <ele>267.86</ele>
        <time>2017-10-21T15:13:15Z</time>
      </trkpt>
      <trkpt lat="46.44388" lon="4.64996">
        <ele>266.9</ele>
        <time>2017-10-21T15:13:21Z</time>
      </trkpt>
      <trkpt lat="46.44385" lon="4.64999">
        <ele>266.9</ele>
        <time>2017-10-21T15:13:24Z</time>
      </trkpt>
      <trkpt lat="46.44377" lon="4.65004">
        <ele>265.94</ele>
        <time>2017-10-21T15:13:31Z</time>
      </trkpt>
      <trkpt lat="46.44369" lon="4.65011">
        <ele>265.46</ele>
        <time>2017-10-21T15:13:38Z</time>
      </trkpt>
      <trkpt lat="46.44363" lon="4.65015">
        <ele>264.98</ele>
        <time>2017-10-21T15:13:44Z</time>
      </trkpt>
      <trkpt lat="46.44362" lon="4.65015">
        <ele>264.98</ele>
        <time>2017-10-21T15:13:45Z</time>
      </trkpt>
      <trkpt lat="46.44355" lon="4.65019">
        <ele>264.5</ele>
        <time>2017-10-21T15:13:51Z</time>
      </trkpt>
      <trkpt lat="46.4435" lon="4.65023">
        <ele>264.5</ele>
        <time>2017-10-21T15:13:55Z</time>
      </trkpt>
      <trkpt lat="46.44346" lon="4.65025">
        <ele>264.5</ele>
        <time>2017-10-21T15:13:59Z</time>
      </trkpt>
      <trkpt lat="46.44338" lon="4.65025">
        <ele>264.5</ele>
        <time>2017-10-21T15:14:04Z</time>
      </trkpt>
      <trkpt lat="46.44332" lon="4.65029">
        <ele>264.5</ele>
        <time>2017-10-21T15:14:09Z</time>
      </trkpt>
      <trkpt lat="46.44324" lon="4.65031">
        <ele>264.5</ele>
        <time>2017-10-21T15:14:17Z</time>
      </trkpt>
      <trkpt lat="46.44319" lon="4.65033">
        <ele>264.5</ele>
        <time>2017-10-21T15:14:22Z</time>
      </trkpt>
      <trkpt lat="46.4431" lon="4.65035">
        <ele>264.02</ele>
        <time>2017-10-21T15:14:30Z</time>
      </trkpt>
      <trkpt lat="46.44306" lon="4.65036">
        <ele>264.02</ele>
        <time>2017-10-21T15:14:34Z</time>
      </trkpt>
      <trkpt lat="46.44297" lon="4.65038">
        <ele>264.02</ele>
        <time>2017-10-21T15:14:41Z</time>
      </trkpt>
      <trkpt lat="46.44291" lon="4.65038">
        <ele>264.5</ele>
        <time>2017-10-21T15:14:46Z</time>
      </trkpt>
      <trkpt lat="46.44283" lon="4.65041">
        <ele>264.5</ele>
        <time>2017-10-21T15:14:52Z</time>
      </trkpt>
      <trkpt lat="46.44279" lon="4.65042">
        <ele>264.5</ele>
        <time>2017-10-21T15:14:56Z</time>
      </trkpt>
      <trkpt lat="46.44272" lon="4.65045">
        <ele>264.98</ele>
        <time>2017-10-21T15:15:02Z</time>
      </trkpt>
      <trkpt lat="46.44266" lon="4.65048">
        <ele>264.98</ele>
        <time>2017-10-21T15:15:07Z</time>
      </trkpt>
      <trkpt lat="46.44265" lon="4.65049">
        <ele>265.46</ele>
        <time>2017-10-21T15:15:09Z</time>
      </trkpt>
      <trkpt lat="46.44256" lon="4.65052">
        <ele>265.94</ele>
        <time>2017-10-21T15:15:16Z</time>
      </trkpt>
      <trkpt lat="46.4425" lon="4.65055">
        <ele>266.42</ele>
        <time>2017-10-21T15:15:21Z</time>
      </trkpt>
      <trkpt lat="46.44247" lon="4.65056">
        <ele>266.9</ele>
        <time>2017-10-21T15:15:24Z</time>
      </trkpt>
      <trkpt lat="46.44239" lon="4.65062">
        <ele>267.38</ele>
        <time>2017-10-21T15:15:33Z</time>
      </trkpt>
      <trkpt lat="46.44238" lon="4.65062">
        <ele>267.86</ele>
        <time>2017-10-21T15:15:34Z</time>
      </trkpt>
      <trkpt lat="46.44231" lon="4.65065">
        <ele>268.35</ele>
        <time>2017-10-21T15:15:40Z</time>
      </trkpt>
      <trkpt lat="46.44224" lon="4.65069">
        <ele>269.31</ele>
        <time>2017-10-21T15:15:47Z</time>
      </trkpt>
      <trkpt lat="46.4422" lon="4.65071">
        <ele>270.27</ele>
        <time>2017-10-21T15:15:52Z</time>
      </trkpt>
      <trkpt lat="46.44216" lon="4.65073">
        <ele>270.75</ele>
        <time>2017-10-21T15:15:55Z</time>
      </trkpt>
      <trkpt lat="46.44213" lon="4.65076">
        <ele>271.23</ele>
        <time>2017-10-21T15:15:59Z</time>
      </trkpt>
      <trkpt lat="46.44209" lon="4.65079">
        <ele>271.71</ele>
        <time>2017-10-21T15:16:04Z</time>
      </trkpt>
      <trkpt lat="46.44205" lon="4.65083">
        <ele>272.19</ele>
        <time>2017-10-21T15:16:09Z</time>
      </trkpt>
      <trkpt lat="46.44199" lon="4.65087">
        <ele>273.15</ele>
        <time>2017-10-21T15:16:15Z</time>
      </trkpt>
      <trkpt lat="46.44198" lon="4.65087">
        <ele>273.15</ele>
        <time>2017-10-21T15:16:16Z</time>
      </trkpt>
      <trkpt lat="46.4419" lon="4.65091">
        <ele>274.11</ele>
        <time>2017-10-21T15:16:22Z</time>
      </trkpt>
      <trkpt lat="46.44182" lon="4.65094">
        <ele>274.59</ele>
        <time>2017-10-21T15:16:28Z</time>
      </trkpt>
      <trkpt lat="46.44175" lon="4.65097">
        <ele>275.56</ele>
        <time>2017-10-21T15:16:35Z</time>
      </trkpt>
      <trkpt lat="46.44172" lon="4.65099">
        <ele>276.04</ele>
        <time>2017-10-21T15:16:39Z</time>
      </trkpt>
      <trkpt lat="46.44168" lon="4.65101">
        <ele>276.52</ele>
        <time>2017-10-21T15:16:43Z</time>
      </trkpt>
      <trkpt lat="46.44165" lon="4.65102">
        <ele>276.52</ele>
        <time>2017-10-21T15:16:45Z</time>
      </trkpt>
      <trkpt lat="46.44163" lon="4.65104">
        <ele>277</ele>
        <time>2017-10-21T15:16:47Z</time>
      </trkpt>
      <trkpt lat="46.44154" lon="4.65109">
        <ele>277.48</ele>
        <time>2017-10-21T15:16:55Z</time>
      </trkpt>
      <trkpt lat="46.44148" lon="4.65112">
        <ele>277.96</ele>
        <time>2017-10-21T15:17:01Z</time>
      </trkpt>
      <trkpt lat="46.44143" lon="4.65116">
        <ele>278.44</ele>
        <time>2017-10-21T15:17:07Z</time>
      </trkpt>
      <trkpt lat="46.44137" lon="4.65121">
        <ele>279.4</ele>
        <time>2017-10-21T15:17:14Z</time>
      </trkpt>
      <trkpt lat="46.44134" lon="4.65124">
        <ele>279.88</ele>
        <time>2017-10-21T15:17:17Z</time>
      </trkpt>
      <trkpt lat="46.44128" lon="4.65129">
        <ele>280.36</ele>
        <time>2017-10-21T15:17:23Z</time>
      </trkpt>
      <trkpt lat="46.4412" lon="4.65136">
        <ele>280.84</ele>
        <time>2017-10-21T15:17:30Z</time>
      </trkpt>
      <trkpt lat="46.44117" lon="4.65136">
        <ele>281.32</ele>
        <time>2017-10-21T15:17:32Z</time>
      </trkpt>
      <trkpt lat="46.44109" lon="4.65139">
        <ele>281.8</ele>
        <time>2017-10-21T15:17:38Z</time>
      </trkpt>
      <trkpt lat="46.44106" lon="4.65142">
        <ele>282.28</ele>
        <time>2017-10-21T15:17:41Z</time>
      </trkpt>
      <trkpt lat="46.44102" lon="4.65146">
        <ele>282.28</ele>
        <time>2017-10-21T15:17:45Z</time>
      </trkpt>
      <trkpt lat="46.44096" lon="4.65153">
        <ele>282.77</ele>
        <time>2017-10-21T15:17:51Z</time>
      </trkpt>
      <trkpt lat="46.44093" lon="4.65165">
        <ele>283.25</ele>
        <time>2017-10-21T15:17:58Z</time>
      </trkpt>
      <trkpt lat="46.4409" lon="4.6517">
        <ele>284.21</ele>
        <time>2017-10-21T15:18:02Z</time>
      </trkpt>
      <trkpt lat="46.44088" lon="4.65172">
        <ele>283.25</ele>
        <time>2017-10-21T15:18:04Z</time>
      </trkpt>
      <trkpt lat="46.44086" lon="4.65181">
        <ele>283.73</ele>
        <time>2017-10-21T15:18:10Z</time>
      </trkpt>
      <trkpt lat="46.44083" lon="4.65187">
        <ele>284.21</ele>
        <time>2017-10-21T15:18:14Z</time>
      </trkpt>
      <trkpt lat="46.44083" lon="4.65188">
        <ele>284.21</ele>
        <time>2017-10-21T15:18:15Z</time>
      </trkpt>
      <trkpt lat="46.4408" lon="4.65197">
        <ele>284.21</ele>
        <time>2017-10-21T15:18:20Z</time>
      </trkpt>
      <trkpt lat="46.44078" lon="4.65204">
        <ele>284.21</ele>
        <time>2017-10-21T15:18:24Z</time>
      </trkpt>
      <trkpt lat="46.44076" lon="4.65215">
        <ele>284.69</ele>
        <time>2017-10-21T15:18:30Z</time>
      </trkpt>
      <trkpt lat="46.44074" lon="4.65219">
        <ele>285.17</ele>
        <time>2017-10-21T15:18:33Z</time>
      </trkpt>
      <trkpt lat="46.44072" lon="4.65227">
        <ele>285.65</ele>
        <time>2017-10-21T15:18:38Z</time>
      </trkpt>
      <trkpt lat="46.44069" lon="4.65235">
        <ele>285.17</ele>
        <time>2017-10-21T15:18:43Z</time>
      </trkpt>
      <trkpt lat="46.44069" lon="4.65237">
        <ele>285.17</ele>
        <time>2017-10-21T15:18:44Z</time>
      </trkpt>
      <trkpt lat="46.44066" lon="4.65245">
        <ele>285.17</ele>
        <time>2017-10-21T15:18:49Z</time>
      </trkpt>
      <trkpt lat="46.44063" lon="4.65253">
        <ele>285.17</ele>
        <time>2017-10-21T15:18:54Z</time>
      </trkpt>
      <trkpt lat="46.44061" lon="4.65256">
        <ele>284.69</ele>
        <time>2017-10-21T15:18:59Z</time>
      </trkpt>
      <trkpt lat="46.4406" lon="4.65257">
        <ele>285.17</ele>
        <time>2017-10-21T15:19:04Z</time>
      </trkpt>
      <trkpt lat="46.44058" lon="4.65258">
        <ele>285.17</ele>
        <time>2017-10-21T15:19:06Z</time>
      </trkpt>
      <trkpt lat="46.44053" lon="4.6527">
        <ele>284.69</ele>
        <time>2017-10-21T15:19:14Z</time>
      </trkpt>
      <trkpt lat="46.44053" lon="4.65271">
        <ele>284.69</ele>
        <time>2017-10-21T15:19:15Z</time>
      </trkpt>
      <trkpt lat="46.44052" lon="4.65277">
        <ele>284.21</ele>
        <time>2017-10-21T15:19:21Z</time>
      </trkpt>
      <trkpt lat="46.44049" lon="4.65283">
        <ele>284.69</ele>
        <time>2017-10-21T15:19:27Z</time>
      </trkpt>
      <trkpt lat="46.44048" lon="4.65289">
        <ele>284.69</ele>
        <time>2017-10-21T15:19:32Z</time>
      </trkpt>
      <trkpt lat="46.44047" lon="4.6529">
        <ele>284.69</ele>
        <time>2017-10-21T15:19:41Z</time>
      </trkpt>
      <trkpt lat="46.44046" lon="4.6529">
        <ele>284.69</ele>
        <time>2017-10-21T15:19:50Z</time>
      </trkpt>
      <trkpt lat="46.44046" lon="4.65289">
        <ele>285.17</ele>
        <time>2017-10-21T15:19:57Z</time>
      </trkpt>
      <trkpt lat="46.44046" lon="4.65289">
        <ele>284.69</ele>
        <time>2017-10-21T15:20:09Z</time>
      </trkpt>
      <trkpt lat="46.44047" lon="4.6529">
        <ele>285.17</ele>
        <time>2017-10-21T15:20:16Z</time>
      </trkpt>
      <trkpt lat="46.44047" lon="4.6529">
        <ele>285.17</ele>
        <time>2017-10-21T15:20:25Z</time>
      </trkpt>
      <trkpt lat="46.44047" lon="4.6529">
        <ele>284.69</ele>
        <time>2017-10-21T15:20:37Z</time>
      </trkpt>
      <trkpt lat="46.44046" lon="4.6529">
        <ele>285.17</ele>
        <time>2017-10-21T15:20:51Z</time>
      </trkpt>
      <trkpt lat="46.44046" lon="4.6529">
        <ele>284.69</ele>
        <time>2017-10-21T15:21:04Z</time>
      </trkpt>
      <trkpt lat="46.44046" lon="4.6529">
        <ele>284.69</ele>
        <time>2017-10-21T15:21:19Z</time>
      </trkpt>
      <trkpt lat="46.44046" lon="4.65291">
        <ele>284.69</ele>
        <time>2017-10-21T15:21:27Z</time>
      </trkpt>
      <trkpt lat="46.44045" lon="4.65293">
        <ele>284.69</ele>
        <time>2017-10-21T15:21:29Z</time>
      </trkpt>
      <trkpt lat="46.44044" lon="4.65294">
        <ele>285.17</ele>
        <time>2017-10-21T15:21:31Z</time>
      </trkpt>
      <trkpt lat="46.44042" lon="4.65298">
        <ele>285.65</ele>
        <time>2017-10-21T15:21:34Z</time>
      </trkpt>
      <trkpt lat="46.44036" lon="4.65304">
        <ele>285.65</ele>
        <time>2017-10-21T15:21:40Z</time>
      </trkpt>
      <trkpt lat="46.44032" lon="4.6531">
        <ele>286.13</ele>
        <time>2017-10-21T15:21:45Z</time>
      </trkpt>
      <trkpt lat="46.44029" lon="4.65314">
        <ele>286.13</ele>
        <time>2017-10-21T15:21:49Z</time>
      </trkpt>
      <trkpt lat="46.44023" lon="4.65317">
        <ele>286.61</ele>
        <time>2017-10-21T15:21:54Z</time>
      </trkpt>
      <trkpt lat="46.44017" lon="4.65322">
        <ele>287.09</ele>
        <time>2017-10-21T15:21:59Z</time>
      </trkpt>
      <trkpt lat="46.44014" lon="4.65327">
        <ele>287.57</ele>
        <time>2017-10-21T15:22:03Z</time>
      </trkpt>
      <trkpt lat="46.44008" lon="4.65334">
        <ele>288.05</ele>
        <time>2017-10-21T15:22:10Z</time>
      </trkpt>
      <trkpt lat="46.44007" lon="4.65334">
        <ele>288.05</ele>
        <time>2017-10-21T15:22:11Z</time>
      </trkpt>
      <trkpt lat="46.44003" lon="4.65339">
        <ele>288.53</ele>
        <time>2017-10-21T15:22:19Z</time>
      </trkpt>
      <trkpt lat="46.44002" lon="4.6534">
        <ele>288.05</ele>
        <time>2017-10-21T15:22:32Z</time>
      </trkpt>
      <trkpt lat="46.44001" lon="4.65342">
        <ele>288.05</ele>
        <time>2017-10-21T15:22:38Z</time>
      </trkpt>
      <trkpt lat="46.44001" lon="4.65342">
        <ele>288.05</ele>
        <time>2017-10-21T15:22:47Z</time>
      </trkpt>
      <trkpt lat="46.44" lon="4.65343">
        <ele>287.57</ele>
        <time>2017-10-21T15:23:03Z</time>
      </trkpt>
      <trkpt lat="46.44" lon="4.65343">
        <ele>288.05</ele>
        <time>2017-10-21T15:23:11Z</time>
      </trkpt>
      <trkpt lat="46.44001" lon="4.65343">
        <ele>287.57</ele>
        <time>2017-10-21T15:23:20Z</time>
      </trkpt>
      <trkpt lat="46.44" lon="4.65343">
        <ele>287.57</ele>
        <time>2017-10-21T15:23:24Z</time>
      </trkpt>
      <trkpt lat="46.43996" lon="4.65346">
        <ele>288.05</ele>
        <time>2017-10-21T15:23:28Z</time>
      </trkpt>
      <trkpt lat="46.43987" lon="4.65352">
        <ele>288.05</ele>
        <time>2017-10-21T15:23:36Z</time>
      </trkpt>
      <trkpt lat="46.43981" lon="4.65358">
        <ele>288.53</ele>
        <time>2017-10-21T15:23:43Z</time>
      </trkpt>
      <trkpt lat="46.43976" lon="4.65363">
        <ele>288.05</ele>
        <time>2017-10-21T15:23:49Z</time>
      </trkpt>
      <trkpt lat="46.4397" lon="4.65367">
        <ele>288.05</ele>
        <time>2017-10-21T15:23:55Z</time>
      </trkpt>
      <trkpt lat="46.43967" lon="4.6537">
        <ele>288.53</ele>
        <time>2017-10-21T15:23:58Z</time>
      </trkpt>
      <trkpt lat="46.43965" lon="4.65373">
        <ele>288.05</ele>
        <time>2017-10-21T15:24:01Z</time>
      </trkpt>
      <trkpt lat="46.43961" lon="4.65376">
        <ele>288.53</ele>
        <time>2017-10-21T15:24:04Z</time>
      </trkpt>
      <trkpt lat="46.43958" lon="4.65378">
        <ele>288.05</ele>
        <time>2017-10-21T15:24:07Z</time>
      </trkpt>
      <trkpt lat="46.43951" lon="4.65385">
        <ele>288.05</ele>
        <time>2017-10-21T15:24:14Z</time>
      </trkpt>
      <trkpt lat="46.43946" lon="4.65389">
        <ele>288.53</ele>
        <time>2017-10-21T15:24:19Z</time>
      </trkpt>
      <trkpt lat="46.43941" lon="4.65392">
        <ele>288.05</ele>
        <time>2017-10-21T15:24:22Z</time>
      </trkpt>
      <trkpt lat="46.43934" lon="4.65398">
        <ele>288.05</ele>
        <time>2017-10-21T15:24:29Z</time>
      </trkpt>
      <trkpt lat="46.43927" lon="4.65403">
        <ele>288.05</ele>
        <time>2017-10-21T15:24:35Z</time>
      </trkpt>
      <trkpt lat="46.43924" lon="4.65403">
        <ele>288.05</ele>
        <time>2017-10-21T15:24:37Z</time>
      </trkpt>
      <trkpt lat="46.43921" lon="4.65405">
        <ele>288.05</ele>
        <time>2017-10-21T15:24:40Z</time>
      </trkpt>
      <trkpt lat="46.43916" lon="4.65409">
        <ele>288.05</ele>
        <time>2017-10-21T15:24:45Z</time>
      </trkpt>
      <trkpt lat="46.43913" lon="4.6541">
        <ele>288.05</ele>
        <time>2017-10-21T15:24:47Z</time>
      </trkpt>
      <trkpt lat="46.43908" lon="4.65411">
        <ele>288.05</ele>
        <time>2017-10-21T15:24:51Z</time>
      </trkpt>
      <trkpt lat="46.43902" lon="4.65412">
        <ele>288.05</ele>
        <time>2017-10-21T15:24:57Z</time>
      </trkpt>
      <trkpt lat="46.43898" lon="4.65414">
        <ele>287.57</ele>
        <time>2017-10-21T15:25:00Z</time>
      </trkpt>
      <trkpt lat="46.43889" lon="4.65412">
        <ele>288.05</ele>
        <time>2017-10-21T15:25:08Z</time>
      </trkpt>
      <trkpt lat="46.43886" lon="4.6541">
        <ele>287.57</ele>
        <time>2017-10-21T15:25:10Z</time>
      </trkpt>
      <trkpt lat="46.43879" lon="4.65408">
        <ele>287.57</ele>
        <time>2017-10-21T15:25:16Z</time>
      </trkpt>
      <trkpt lat="46.43874" lon="4.65406">
        <ele>287.57</ele>
        <time>2017-10-21T15:25:21Z</time>
      </trkpt>
      <trkpt lat="46.43866" lon="4.654">
        <ele>287.57</ele>
        <time>2017-10-21T15:25:28Z</time>
      </trkpt>
      <trkpt lat="46.43857" lon="4.65397">
        <ele>287.09</ele>
        <time>2017-10-21T15:25:36Z</time>
      </trkpt>
      <trkpt lat="46.4385" lon="4.65391">
        <ele>287.09</ele>
        <time>2017-10-21T15:25:44Z</time>
      </trkpt>
      <trkpt lat="46.43847" lon="4.65391">
        <ele>287.09</ele>
        <time>2017-10-21T15:25:49Z</time>
      </trkpt>
      <trkpt lat="46.43845" lon="4.6539">
        <ele>287.09</ele>
        <time>2017-10-21T15:25:51Z</time>
      </trkpt>
      <trkpt lat="46.43844" lon="4.65391">
        <ele>286.61</ele>
        <time>2017-10-21T15:25:53Z</time>
      </trkpt>
      <trkpt lat="46.4384" lon="4.65395">
        <ele>286.61</ele>
        <time>2017-10-21T15:25:58Z</time>
      </trkpt>
      <trkpt lat="46.43839" lon="4.65396">
        <ele>286.61</ele>
        <time>2017-10-21T15:25:59Z</time>
      </trkpt>
      <trkpt lat="46.43836" lon="4.65403">
        <ele>286.13</ele>
        <time>2017-10-21T15:26:04Z</time>
      </trkpt>
      <trkpt lat="46.4383" lon="4.65412">
        <ele>286.13</ele>
        <time>2017-10-21T15:26:11Z</time>
      </trkpt>
      <trkpt lat="46.43829" lon="4.65423">
        <ele>285.65</ele>
        <time>2017-10-21T15:26:17Z</time>
      </trkpt>
      <trkpt lat="46.43828" lon="4.65425">
        <ele>285.65</ele>
        <time>2017-10-21T15:26:18Z</time>
      </trkpt>
      <trkpt lat="46.43823" lon="4.65428">
        <ele>285.65</ele>
        <time>2017-10-21T15:26:22Z</time>
      </trkpt>
      <trkpt lat="46.43822" lon="4.65431">
        <ele>285.65</ele>
        <time>2017-10-21T15:26:24Z</time>
      </trkpt>
      <trkpt lat="46.43822" lon="4.65436">
        <ele>285.65</ele>
        <time>2017-10-21T15:26:26Z</time>
      </trkpt>
      <trkpt lat="46.4382" lon="4.6544">
        <ele>285.65</ele>
        <time>2017-10-21T15:26:29Z</time>
      </trkpt>
      <trkpt lat="46.43817" lon="4.65446">
        <ele>285.65</ele>
        <time>2017-10-21T15:26:34Z</time>
      </trkpt>
      <trkpt lat="46.43815" lon="4.65448">
        <ele>285.65</ele>
        <time>2017-10-21T15:26:36Z</time>
      </trkpt>
      <trkpt lat="46.43812" lon="4.65458">
        <ele>285.17</ele>
        <time>2017-10-21T15:26:43Z</time>
      </trkpt>
      <trkpt lat="46.43811" lon="4.6546">
        <ele>285.17</ele>
        <time>2017-10-21T15:26:47Z</time>
      </trkpt>
      <trkpt lat="46.4381" lon="4.65464">
        <ele>285.17</ele>
        <time>2017-10-21T15:26:54Z</time>
      </trkpt>
      <trkpt lat="46.43807" lon="4.65471">
        <ele>284.69</ele>
        <time>2017-10-21T15:27:02Z</time>
      </trkpt>
      <trkpt lat="46.43805" lon="4.65472">
        <ele>284.69</ele>
        <time>2017-10-21T15:27:08Z</time>
      </trkpt>
      <trkpt lat="46.43805" lon="4.65474">
        <ele>284.69</ele>
        <time>2017-10-21T15:27:16Z</time>
      </trkpt>
      <trkpt lat="46.43802" lon="4.65477">
        <ele>284.69</ele>
        <time>2017-10-21T15:27:23Z</time>
      </trkpt>
      <trkpt lat="46.438" lon="4.65487">
        <ele>284.69</ele>
        <time>2017-10-21T15:27:31Z</time>
      </trkpt>
      <trkpt lat="46.43797" lon="4.65493">
        <ele>284.21</ele>
        <time>2017-10-21T15:27:35Z</time>
      </trkpt>
      <trkpt lat="46.43795" lon="4.65501">
        <ele>284.21</ele>
        <time>2017-10-21T15:27:41Z</time>
      </trkpt>
      <trkpt lat="46.43794" lon="4.65509">
        <ele>284.21</ele>
        <time>2017-10-21T15:27:46Z</time>
      </trkpt>
      <trkpt lat="46.43791" lon="4.65516">
        <ele>283.73</ele>
        <time>2017-10-21T15:27:52Z</time>
      </trkpt>
      <trkpt lat="46.4379" lon="4.65522">
        <ele>283.73</ele>
        <time>2017-10-21T15:27:55Z</time>
      </trkpt>
      <trkpt lat="46.43791" lon="4.65531">
        <ele>283.25</ele>
        <time>2017-10-21T15:28:00Z</time>
      </trkpt>
      <trkpt lat="46.4379" lon="4.65534">
        <ele>283.25</ele>
        <time>2017-10-21T15:28:05Z</time>
      </trkpt>
      <trkpt lat="46.43788" lon="4.65535">
        <ele>283.73</ele>
        <time>2017-10-21T15:28:10Z</time>
      </trkpt>
      <trkpt lat="46.43785" lon="4.65543">
        <ele>283.25</ele>
        <time>2017-10-21T15:28:16Z</time>
      </trkpt>
      <trkpt lat="46.43782" lon="4.65549">
        <ele>282.77</ele>
        <time>2017-10-21T15:28:20Z</time>
      </trkpt>
      <trkpt lat="46.43781" lon="4.65551">
        <ele>282.28</ele>
        <time>2017-10-21T15:28:21Z</time>
      </trkpt>
      <trkpt lat="46.43777" lon="4.65555">
        <ele>282.28</ele>
        <time>2017-10-21T15:28:26Z</time>
      </trkpt>
      <trkpt lat="46.43774" lon="4.65558">
        <ele>281.8</ele>
        <time>2017-10-21T15:28:29Z</time>
      </trkpt>
      <trkpt lat="46.4377" lon="4.65563">
        <ele>281.32</ele>
        <time>2017-10-21T15:28:33Z</time>
      </trkpt>
      <trkpt lat="46.43769" lon="4.65572">
        <ele>280.84</ele>
        <time>2017-10-21T15:28:38Z</time>
      </trkpt>
      <trkpt lat="46.43765" lon="4.65579">
        <ele>280.36</ele>
        <time>2017-10-21T15:28:42Z</time>
      </trkpt>
      <trkpt lat="46.43765" lon="4.65582">
        <ele>280.36</ele>
        <time>2017-10-21T15:28:44Z</time>
      </trkpt>
      <trkpt lat="46.43762" lon="4.65585">
        <ele>279.88</ele>
        <time>2017-10-21T15:28:47Z</time>
      </trkpt>
      <trkpt lat="46.43759" lon="4.65592">
        <ele>279.4</ele>
        <time>2017-10-21T15:28:51Z</time>
      </trkpt>
      <trkpt lat="46.43758" lon="4.65594">
        <ele>278.92</ele>
        <time>2017-10-21T15:28:52Z</time>
      </trkpt>
      <trkpt lat="46.43752" lon="4.65599">
        <ele>278.44</ele>
        <time>2017-10-21T15:28:58Z</time>
      </trkpt>
      <trkpt lat="46.43749" lon="4.65605">
        <ele>277.96</ele>
        <time>2017-10-21T15:29:02Z</time>
      </trkpt>
      <trkpt lat="46.43746" lon="4.65608">
        <ele>277.96</ele>
        <time>2017-10-21T15:29:05Z</time>
      </trkpt>
      <trkpt lat="46.43743" lon="4.65617">
        <ele>277</ele>
        <time>2017-10-21T15:29:10Z</time>
      </trkpt>
      <trkpt lat="46.43742" lon="4.65619">
        <ele>277</ele>
        <time>2017-10-21T15:29:11Z</time>
      </trkpt>
      <trkpt lat="46.4374" lon="4.65623">
        <ele>276.52</ele>
        <time>2017-10-21T15:29:13Z</time>
      </trkpt>
      <trkpt lat="46.43739" lon="4.65626">
        <ele>276.52</ele>
        <time>2017-10-21T15:29:15Z</time>
      </trkpt>
      <trkpt lat="46.43737" lon="4.65633">
        <ele>276.04</ele>
        <time>2017-10-21T15:29:19Z</time>
      </trkpt>
      <trkpt lat="46.43733" lon="4.65639">
        <ele>275.56</ele>
        <time>2017-10-21T15:29:23Z</time>
      </trkpt>
      <trkpt lat="46.43731" lon="4.65646">
        <ele>275.56</ele>
        <time>2017-10-21T15:29:27Z</time>
      </trkpt>
      <trkpt lat="46.43727" lon="4.6565">
        <ele>275.07</ele>
        <time>2017-10-21T15:29:31Z</time>
      </trkpt>
      <trkpt lat="46.43714" lon="4.6566">
        <ele>274.59</ele>
        <time>2017-10-21T15:29:37Z</time>
      </trkpt>
      <trkpt lat="46.43711" lon="4.65669">
        <ele>274.11</ele>
        <time>2017-10-21T15:29:42Z</time>
      </trkpt>
      <trkpt lat="46.43711" lon="4.65671">
        <ele>274.11</ele>
        <time>2017-10-21T15:29:43Z</time>
      </trkpt>
      <trkpt lat="46.43709" lon="4.65675">
        <ele>273.63</ele>
        <time>2017-10-21T15:29:47Z</time>
      </trkpt>
      <trkpt lat="46.43707" lon="4.65681">
        <ele>273.15</ele>
        <time>2017-10-21T15:29:50Z</time>
      </trkpt>
      <trkpt lat="46.43704" lon="4.65685">
        <ele>272.67</ele>
        <time>2017-10-21T15:29:54Z</time>
      </trkpt>
      <trkpt lat="46.43703" lon="4.65689">
        <ele>272.67</ele>
        <time>2017-10-21T15:29:57Z</time>
      </trkpt>
      <trkpt lat="46.43699" lon="4.65695">
        <ele>271.71</ele>
        <time>2017-10-21T15:30:02Z</time>
      </trkpt>
      <trkpt lat="46.43697" lon="4.65698">
        <ele>271.23</ele>
        <time>2017-10-21T15:30:06Z</time>
      </trkpt>
      <trkpt lat="46.43693" lon="4.65701">
        <ele>271.23</ele>
        <time>2017-10-21T15:30:10Z</time>
      </trkpt>
      <trkpt lat="46.4369" lon="4.65704">
        <ele>270.75</ele>
        <time>2017-10-21T15:30:12Z</time>
      </trkpt>
      <trkpt lat="46.43682" lon="4.65709">
        <ele>270.27</ele>
        <time>2017-10-21T15:30:19Z</time>
      </trkpt>
      <trkpt lat="46.43679" lon="4.65711">
        <ele>270.27</ele>
        <time>2017-10-21T15:30:25Z</time>
      </trkpt>
      <trkpt lat="46.43678" lon="4.65711">
        <ele>270.27</ele>
        <time>2017-10-21T15:30:27Z</time>
      </trkpt>
      <trkpt lat="46.43676" lon="4.65711">
        <ele>270.27</ele>
        <time>2017-10-21T15:30:31Z</time>
      </trkpt>
      <trkpt lat="46.43671" lon="4.65713">
        <ele>269.79</ele>
        <time>2017-10-21T15:30:35Z</time>
      </trkpt>
      <trkpt lat="46.43667" lon="4.65713">
        <ele>269.31</ele>
        <time>2017-10-21T15:30:40Z</time>
      </trkpt>
      <trkpt lat="46.43662" lon="4.65715">
        <ele>269.31</ele>
        <time>2017-10-21T15:30:43Z</time>
      </trkpt>
      <trkpt lat="46.43656" lon="4.65713">
        <ele>268.35</ele>
        <time>2017-10-21T15:30:51Z</time>
      </trkpt>
      <trkpt lat="46.43647" lon="4.65711">
        <ele>267.86</ele>
        <time>2017-10-21T15:30:57Z</time>
      </trkpt>
      <trkpt lat="46.43647" lon="4.6571">
        <ele>267.86</ele>
        <time>2017-10-21T15:30:58Z</time>
      </trkpt>
      <trkpt lat="46.43644" lon="4.65708">
        <ele>267.38</ele>
        <time>2017-10-21T15:31:00Z</time>
      </trkpt>
      <trkpt lat="46.43634" lon="4.65704">
        <ele>266.42</ele>
        <time>2017-10-21T15:31:07Z</time>
      </trkpt>
      <trkpt lat="46.43631" lon="4.65705">
        <ele>266.42</ele>
        <time>2017-10-21T15:31:10Z</time>
      </trkpt>
      <trkpt lat="46.43622" lon="4.65711">
        <ele>265.94</ele>
        <time>2017-10-21T15:31:13Z</time>
      </trkpt>
      <trkpt lat="46.43623" lon="4.65712">
        <ele>265.94</ele>
        <time>2017-10-21T15:31:16Z</time>
      </trkpt>
      <trkpt lat="46.43623" lon="4.65708">
        <ele>265.94</ele>
        <time>2017-10-21T15:31:22Z</time>
      </trkpt>
      <trkpt lat="46.43624" lon="4.65707">
        <ele>265.94</ele>
        <time>2017-10-21T15:31:23Z</time>
      </trkpt>
      <trkpt lat="46.43622" lon="4.65709">
        <ele>265.94</ele>
        <time>2017-10-21T15:31:29Z</time>
      </trkpt>
      <trkpt lat="46.43613" lon="4.6571">
        <ele>265.46</ele>
        <time>2017-10-21T15:31:34Z</time>
      </trkpt>
      <trkpt lat="46.43612" lon="4.6571">
        <ele>265.46</ele>
        <time>2017-10-21T15:31:40Z</time>
      </trkpt>
      <trkpt lat="46.43613" lon="4.65711">
        <ele>265.46</ele>
        <time>2017-10-21T15:31:49Z</time>
      </trkpt>
      <trkpt lat="46.43613" lon="4.65711">
        <ele>266.9</ele>
        <time>2017-10-21T15:32:03Z</time>
      </trkpt>
      <trkpt lat="46.43611" lon="4.65709">
        <ele>265.94</ele>
        <time>2017-10-21T15:32:08Z</time>
      </trkpt>
      <trkpt lat="46.4361" lon="4.65708">
        <ele>265.46</ele>
        <time>2017-10-21T15:32:15Z</time>
      </trkpt>
      <trkpt lat="46.43609" lon="4.65708">
        <ele>265.46</ele>
        <time>2017-10-21T15:32:24Z</time>
      </trkpt>
      <trkpt lat="46.43608" lon="4.65708">
        <ele>265.94</ele>
        <time>2017-10-21T15:32:32Z</time>
      </trkpt>
      <trkpt lat="46.43607" lon="4.65706">
        <ele>265.94</ele>
        <time>2017-10-21T15:32:42Z</time>
      </trkpt>
      <trkpt lat="46.43606" lon="4.65705">
        <ele>265.94</ele>
        <time>2017-10-21T15:32:56Z</time>
      </trkpt>
      <trkpt lat="46.43605" lon="4.65705">
        <ele>265.94</ele>
        <time>2017-10-21T15:33:08Z</time>
      </trkpt>
      <trkpt lat="46.43605" lon="4.65705">
        <ele>265.94</ele>
        <time>2017-10-21T15:33:17Z</time>
      </trkpt>
      <trkpt lat="46.43604" lon="4.65706">
        <ele>265.94</ele>
        <time>2017-10-21T15:33:29Z</time>
      </trkpt>
      <trkpt lat="46.43601" lon="4.65706">
        <ele>265.94</ele>
        <time>2017-10-21T15:33:41Z</time>
      </trkpt>
      <trkpt lat="46.43597" lon="4.65707">
        <ele>266.42</ele>
        <time>2017-10-21T15:33:57Z</time>
      </trkpt>
      <trkpt lat="46.43597" lon="4.65706">
        <ele>266.42</ele>
        <time>2017-10-21T15:34:05Z</time>
      </trkpt>
      <trkpt lat="46.43596" lon="4.65705">
        <ele>265.94</ele>
        <time>2017-10-21T15:34:13Z</time>
      </trkpt>
      <trkpt lat="46.43595" lon="4.65699">
        <ele>265.46</ele>
        <time>2017-10-21T15:34:21Z</time>
      </trkpt>
      <trkpt lat="46.43594" lon="4.65697">
        <ele>264.98</ele>
        <time>2017-10-21T15:34:27Z</time>
      </trkpt>
      <trkpt lat="46.43592" lon="4.65697">
        <ele>264.5</ele>
        <time>2017-10-21T15:34:33Z</time>
      </trkpt>
      <trkpt lat="46.43591" lon="4.65696">
        <ele>263.54</ele>
        <time>2017-10-21T15:34:37Z</time>
      </trkpt>
      <trkpt lat="46.43588" lon="4.65695">
        <ele>263.06</ele>
        <time>2017-10-21T15:34:43Z</time>
      </trkpt>
      <trkpt lat="46.43587" lon="4.65694">
        <ele>262.58</ele>
        <time>2017-10-21T15:34:46Z</time>
      </trkpt>
      <trkpt lat="46.43577" lon="4.65696">
        <ele>262.1</ele>
        <time>2017-10-21T15:34:53Z</time>
      </trkpt>
      <trkpt lat="46.43573" lon="4.65696">
        <ele>262.1</ele>
        <time>2017-10-21T15:34:58Z</time>
      </trkpt>
      <trkpt lat="46.4357" lon="4.65696">
        <ele>262.1</ele>
        <time>2017-10-21T15:35:04Z</time>
      </trkpt>
      <trkpt lat="46.43562" lon="4.65696">
        <ele>262.1</ele>
        <time>2017-10-21T15:35:15Z</time>
      </trkpt>
      <trkpt lat="46.43562" lon="4.65699">
        <ele>262.1</ele>
        <time>2017-10-21T15:35:22Z</time>
      </trkpt>
      <trkpt lat="46.43562" lon="4.65703">
        <ele>262.1</ele>
        <time>2017-10-21T15:35:29Z</time>
      </trkpt>
      <trkpt lat="46.43561" lon="4.65709">
        <ele>262.58</ele>
        <time>2017-10-21T15:35:37Z</time>
      </trkpt>
      <trkpt lat="46.43562" lon="4.6572">
        <ele>262.58</ele>
        <time>2017-10-21T15:35:43Z</time>
      </trkpt>
      <trkpt lat="46.43561" lon="4.6572">
        <ele>262.58</ele>
        <time>2017-10-21T15:35:49Z</time>
      </trkpt>
      <trkpt lat="46.43557" lon="4.65715">
        <ele>262.58</ele>
        <time>2017-10-21T15:35:56Z</time>
      </trkpt>
      <trkpt lat="46.43557" lon="4.65712">
        <ele>263.06</ele>
        <time>2017-10-21T15:36:04Z</time>
      </trkpt>
      <trkpt lat="46.43557" lon="4.65711">
        <ele>262.1</ele>
        <time>2017-10-21T15:36:10Z</time>
      </trkpt>
      <trkpt lat="46.43557" lon="4.6571">
        <ele>262.58</ele>
        <time>2017-10-21T15:36:20Z</time>
      </trkpt>
      <trkpt lat="46.43556" lon="4.65704">
        <ele>262.1</ele>
        <time>2017-10-21T15:36:29Z</time>
      </trkpt>
      <trkpt lat="46.43556" lon="4.65701">
        <ele>261.62</ele>
        <time>2017-10-21T15:36:34Z</time>
      </trkpt>
      <trkpt lat="46.43554" lon="4.65698">
        <ele>261.14</ele>
        <time>2017-10-21T15:36:39Z</time>
      </trkpt>
      <trkpt lat="46.43554" lon="4.65693">
        <ele>260.65</ele>
        <time>2017-10-21T15:36:44Z</time>
      </trkpt>
      <trkpt lat="46.43549" lon="4.65687">
        <ele>259.69</ele>
        <time>2017-10-21T15:36:50Z</time>
      </trkpt>
      <trkpt lat="46.43544" lon="4.65682">
        <ele>258.73</ele>
        <time>2017-10-21T15:36:56Z</time>
      </trkpt>
      <trkpt lat="46.43538" lon="4.65683">
        <ele>258.73</ele>
        <time>2017-10-21T15:37:02Z</time>
      </trkpt>
      <trkpt lat="46.43526" lon="4.65683">
        <ele>258.25</ele>
        <time>2017-10-21T15:37:06Z</time>
      </trkpt>
      <trkpt lat="46.43516" lon="4.65681">
        <ele>257.77</ele>
        <time>2017-10-21T15:37:12Z</time>
      </trkpt>
      <trkpt lat="46.4351" lon="4.65684">
        <ele>257.29</ele>
        <time>2017-10-21T15:37:15Z</time>
      </trkpt>
      <trkpt lat="46.43497" lon="4.65688">
        <ele>256.81</ele>
        <time>2017-10-21T15:37:20Z</time>
      </trkpt>
      <trkpt lat="46.43494" lon="4.65684">
        <ele>256.33</ele>
        <time>2017-10-21T15:37:26Z</time>
      </trkpt>
      <trkpt lat="46.43491" lon="4.65682">
        <ele>255.85</ele>
        <time>2017-10-21T15:37:31Z</time>
      </trkpt>
      <trkpt lat="46.4349" lon="4.65673">
        <ele>255.37</ele>
        <time>2017-10-21T15:37:35Z</time>
      </trkpt>
      <trkpt lat="46.43488" lon="4.65656">
        <ele>255.37</ele>
        <time>2017-10-21T15:37:42Z</time>
      </trkpt>
      <trkpt lat="46.43486" lon="4.65653">
        <ele>255.37</ele>
        <time>2017-10-21T15:37:51Z</time>
      </trkpt>
      <trkpt lat="46.43484" lon="4.65652">
        <ele>255.37</ele>
        <time>2017-10-21T15:38:02Z</time>
      </trkpt>
      <trkpt lat="46.43483" lon="4.65651">
        <ele>255.37</ele>
        <time>2017-10-21T15:38:08Z</time>
      </trkpt>
      <trkpt lat="46.4348" lon="4.65651">
        <ele>255.37</ele>
        <time>2017-10-21T15:38:15Z</time>
      </trkpt>
      <trkpt lat="46.43481" lon="4.6565">
        <ele>255.37</ele>
        <time>2017-10-21T15:38:21Z</time>
      </trkpt>
      <trkpt lat="46.43481" lon="4.65652">
        <ele>255.37</ele>
        <time>2017-10-21T15:38:27Z</time>
      </trkpt>
      <trkpt lat="46.43478" lon="4.65653">
        <ele>255.37</ele>
        <time>2017-10-21T15:38:34Z</time>
      </trkpt>
      <trkpt lat="46.43479" lon="4.65655">
        <ele>255.37</ele>
        <time>2017-10-21T15:38:42Z</time>
      </trkpt>
      <trkpt lat="46.43479" lon="4.65654">
        <ele>255.85</ele>
        <time>2017-10-21T15:38:55Z</time>
      </trkpt>
      <trkpt lat="46.43467" lon="4.65658">
        <ele>255.85</ele>
        <time>2017-10-21T15:39:06Z</time>
      </trkpt>
      <trkpt lat="46.43467" lon="4.65647">
        <ele>255.85</ele>
        <time>2017-10-21T15:39:21Z</time>
      </trkpt>
      <trkpt lat="46.43473" lon="4.65651">
        <ele>256.33</ele>
        <time>2017-10-21T15:39:28Z</time>
      </trkpt>
      <trkpt lat="46.43478" lon="4.65655">
        <ele>255.85</ele>
        <time>2017-10-21T15:39:34Z</time>
      </trkpt>
      <trkpt lat="46.4348" lon="4.65658">
        <ele>255.85</ele>
        <time>2017-10-21T15:39:41Z</time>
      </trkpt>
      <trkpt lat="46.43485" lon="4.65657">
        <ele>256.33</ele>
        <time>2017-10-21T15:39:50Z</time>
      </trkpt>
      <trkpt lat="46.43489" lon="4.65666">
        <ele>256.81</ele>
        <time>2017-10-21T15:39:58Z</time>
      </trkpt>
      <trkpt lat="46.43488" lon="4.65675">
        <ele>256.81</ele>
        <time>2017-10-21T15:40:05Z</time>
      </trkpt>
      <trkpt lat="46.43486" lon="4.65682">
        <ele>256.81</ele>
        <time>2017-10-21T15:40:13Z</time>
      </trkpt>
      <trkpt lat="46.4348" lon="4.65682">
        <ele>256.81</ele>
        <time>2017-10-21T15:40:20Z</time>
      </trkpt>
      <trkpt lat="46.4348" lon="4.65684">
        <ele>256.81</ele>
        <time>2017-10-21T15:40:30Z</time>
      </trkpt>
      <trkpt lat="46.43478" lon="4.65696">
        <ele>256.81</ele>
        <time>2017-10-21T15:40:39Z</time>
      </trkpt>
      <trkpt lat="46.43477" lon="4.65699">
        <ele>257.29</ele>
        <time>2017-10-21T15:40:48Z</time>
      </trkpt>
      <trkpt lat="46.43468" lon="4.65701">
        <ele>257.77</ele>
        <time>2017-10-21T15:41:00Z</time>
      </trkpt>
      <trkpt lat="46.43443" lon="4.65708">
        <ele>257.77</ele>
        <time>2017-10-21T15:41:13Z</time>
      </trkpt>
      <trkpt lat="46.43443" lon="4.65715">
        <ele>257.29</ele>
        <time>2017-10-21T15:41:20Z</time>
      </trkpt>
      <trkpt lat="46.43438" lon="4.65724">
        <ele>257.29</ele>
        <time>2017-10-21T15:41:29Z</time>
      </trkpt>
      <trkpt lat="46.43434" lon="4.65726">
        <ele>257.77</ele>
        <time>2017-10-21T15:41:34Z</time>
      </trkpt>
      <trkpt lat="46.43432" lon="4.65733">
        <ele>257.29</ele>
        <time>2017-10-21T15:41:41Z</time>
      </trkpt>
      <trkpt lat="46.43432" lon="4.65736">
        <ele>257.29</ele>
        <time>2017-10-21T15:41:44Z</time>
      </trkpt>
      <trkpt lat="46.4343" lon="4.65748">
        <ele>257.29</ele>
        <time>2017-10-21T15:41:52Z</time>
      </trkpt>
      <trkpt lat="46.43428" lon="4.65751">
        <ele>257.29</ele>
        <time>2017-10-21T15:41:54Z</time>
      </trkpt>
      <trkpt lat="46.43422" lon="4.65758">
        <ele>257.77</ele>
        <time>2017-10-21T15:42:02Z</time>
      </trkpt>
      <trkpt lat="46.43413" lon="4.65762">
        <ele>257.29</ele>
        <time>2017-10-21T15:42:08Z</time>
      </trkpt>
      <trkpt lat="46.43409" lon="4.65763">
        <ele>257.29</ele>
        <time>2017-10-21T15:42:10Z</time>
      </trkpt>
      <trkpt lat="46.434" lon="4.65772">
        <ele>257.77</ele>
        <time>2017-10-21T15:42:18Z</time>
      </trkpt>
      <trkpt lat="46.43398" lon="4.65775">
        <ele>257.29</ele>
        <time>2017-10-21T15:42:22Z</time>
      </trkpt>
      <trkpt lat="46.43396" lon="4.65776">
        <ele>257.29</ele>
        <time>2017-10-21T15:42:24Z</time>
      </trkpt>
      <trkpt lat="46.43395" lon="4.65788">
        <ele>257.29</ele>
        <time>2017-10-21T15:42:31Z</time>
      </trkpt>
      <trkpt lat="46.43392" lon="4.65794">
        <ele>257.29</ele>
        <time>2017-10-21T15:42:36Z</time>
      </trkpt>
      <trkpt lat="46.43386" lon="4.658">
        <ele>256.81</ele>
        <time>2017-10-21T15:42:44Z</time>
      </trkpt>
      <trkpt lat="46.43377" lon="4.65805">
        <ele>256.81</ele>
        <time>2017-10-21T15:42:50Z</time>
      </trkpt>
      <trkpt lat="46.43378" lon="4.65808">
        <ele>256.81</ele>
        <time>2017-10-21T15:42:52Z</time>
      </trkpt>
      <trkpt lat="46.43378" lon="4.65818">
        <ele>256.81</ele>
        <time>2017-10-21T15:43:00Z</time>
      </trkpt>
      <trkpt lat="46.43379" lon="4.65829">
        <ele>256.81</ele>
        <time>2017-10-21T15:43:05Z</time>
      </trkpt>
      <trkpt lat="46.43373" lon="4.65844">
        <ele>256.33</ele>
        <time>2017-10-21T15:43:15Z</time>
      </trkpt>
      <trkpt lat="46.43373" lon="4.65847">
        <ele>256.33</ele>
        <time>2017-10-21T15:43:21Z</time>
      </trkpt>
      <trkpt lat="46.43375" lon="4.65855">
        <ele>255.85</ele>
        <time>2017-10-21T15:43:28Z</time>
      </trkpt>
      <trkpt lat="46.43375" lon="4.65859">
        <ele>255.85</ele>
        <time>2017-10-21T15:43:31Z</time>
      </trkpt>
      <trkpt lat="46.43371" lon="4.65865">
        <ele>256.33</ele>
        <time>2017-10-21T15:43:36Z</time>
      </trkpt>
      <trkpt lat="46.43367" lon="4.65865">
        <ele>256.33</ele>
        <time>2017-10-21T15:43:37Z</time>
      </trkpt>
      <trkpt lat="46.43359" lon="4.65868">
        <ele>256.33</ele>
        <time>2017-10-21T15:43:42Z</time>
      </trkpt>
      <trkpt lat="46.43353" lon="4.65876">
        <ele>255.85</ele>
        <time>2017-10-21T15:43:48Z</time>
      </trkpt>
      <trkpt lat="46.43351" lon="4.65879">
        <ele>255.85</ele>
        <time>2017-10-21T15:43:50Z</time>
      </trkpt>
      <trkpt lat="46.43348" lon="4.65879">
        <ele>255.85</ele>
        <time>2017-10-21T15:43:52Z</time>
      </trkpt>
      <trkpt lat="46.43343" lon="4.65885">
        <ele>255.85</ele>
        <time>2017-10-21T15:43:57Z</time>
      </trkpt>
      <trkpt lat="46.43339" lon="4.65897">
        <ele>256.33</ele>
        <time>2017-10-21T15:44:04Z</time>
      </trkpt>
      <trkpt lat="46.4333" lon="4.65908">
        <ele>255.85</ele>
        <time>2017-10-21T15:44:10Z</time>
      </trkpt>
      <trkpt lat="46.43327" lon="4.65918">
        <ele>255.37</ele>
        <time>2017-10-21T15:44:16Z</time>
      </trkpt>
      <trkpt lat="46.43323" lon="4.65928">
        <ele>255.37</ele>
        <time>2017-10-21T15:44:22Z</time>
      </trkpt>
      <trkpt lat="46.43316" lon="4.65938">
        <ele>255.37</ele>
        <time>2017-10-21T15:44:30Z</time>
      </trkpt>
      <trkpt lat="46.43312" lon="4.65944">
        <ele>255.37</ele>
        <time>2017-10-21T15:44:35Z</time>
      </trkpt>
      <trkpt lat="46.4331" lon="4.65947">
        <ele>255.37</ele>
        <time>2017-10-21T15:44:38Z</time>
      </trkpt>
      <trkpt lat="46.43299" lon="4.65952">
        <ele>255.37</ele>
        <time>2017-10-21T15:44:45Z</time>
      </trkpt>
      <trkpt lat="46.43288" lon="4.65963">
        <ele>255.85</ele>
        <time>2017-10-21T15:44:53Z</time>
      </trkpt>
      <trkpt lat="46.43282" lon="4.65969">
        <ele>255.85</ele>
        <time>2017-10-21T15:44:58Z</time>
      </trkpt>
      <trkpt lat="46.4328" lon="4.6598">
        <ele>255.37</ele>
        <time>2017-10-21T15:45:05Z</time>
      </trkpt>
      <trkpt lat="46.43276" lon="4.65988">
        <ele>255.37</ele>
        <time>2017-10-21T15:45:10Z</time>
      </trkpt>
      <trkpt lat="46.43272" lon="4.65996">
        <ele>255.37</ele>
        <time>2017-10-21T15:45:17Z</time>
      </trkpt>
      <trkpt lat="46.43272" lon="4.65999">
        <ele>255.37</ele>
        <time>2017-10-21T15:45:20Z</time>
      </trkpt>
      <trkpt lat="46.43267" lon="4.66009">
        <ele>254.89</ele>
        <time>2017-10-21T15:45:28Z</time>
      </trkpt>
      <trkpt lat="46.43264" lon="4.66017">
        <ele>254.41</ele>
        <time>2017-10-21T15:45:34Z</time>
      </trkpt>
      <trkpt lat="46.43265" lon="4.66019">
        <ele>254.41</ele>
        <time>2017-10-21T15:45:35Z</time>
      </trkpt>
      <trkpt lat="46.43264" lon="4.66032">
        <ele>254.41</ele>
        <time>2017-10-21T15:45:43Z</time>
      </trkpt>
      <trkpt lat="46.43264" lon="4.66034">
        <ele>254.41</ele>
        <time>2017-10-21T15:45:44Z</time>
      </trkpt>
      <trkpt lat="46.43267" lon="4.66044">
        <ele>254.41</ele>
        <time>2017-10-21T15:45:50Z</time>
      </trkpt>
      <trkpt lat="46.43265" lon="4.66046">
        <ele>254.41</ele>
        <time>2017-10-21T15:45:52Z</time>
      </trkpt>
      <trkpt lat="46.43264" lon="4.66057">
        <ele>254.41</ele>
        <time>2017-10-21T15:45:58Z</time>
      </trkpt>
      <trkpt lat="46.43261" lon="4.66065">
        <ele>254.41</ele>
        <time>2017-10-21T15:46:03Z</time>
      </trkpt>
      <trkpt lat="46.43261" lon="4.66067">
        <ele>254.41</ele>
        <time>2017-10-21T15:46:04Z</time>
      </trkpt>
      <trkpt lat="46.43256" lon="4.66073">
        <ele>254.41</ele>
        <time>2017-10-21T15:46:10Z</time>
      </trkpt>
      <trkpt lat="46.43247" lon="4.66083">
        <ele>254.41</ele>
        <time>2017-10-21T15:46:17Z</time>
      </trkpt>
      <trkpt lat="46.43241" lon="4.66087">
        <ele>254.41</ele>
        <time>2017-10-21T15:46:20Z</time>
      </trkpt>
      <trkpt lat="46.43239" lon="4.66094">
        <ele>254.89</ele>
        <time>2017-10-21T15:46:24Z</time>
      </trkpt>
      <trkpt lat="46.43242" lon="4.66108">
        <ele>254.89</ele>
        <time>2017-10-21T15:46:32Z</time>
      </trkpt>
      <trkpt lat="46.43244" lon="4.66112">
        <ele>255.37</ele>
        <time>2017-10-21T15:46:35Z</time>
      </trkpt>
      <trkpt lat="46.4325" lon="4.66112">
        <ele>255.37</ele>
        <time>2017-10-21T15:46:44Z</time>
      </trkpt>
      <trkpt lat="46.43244" lon="4.66117">
        <ele>255.37</ele>
        <time>2017-10-21T15:46:57Z</time>
      </trkpt>
      <trkpt lat="46.43238" lon="4.66122">
        <ele>255.37</ele>
        <time>2017-10-21T15:47:11Z</time>
      </trkpt>
      <trkpt lat="46.43235" lon="4.66121">
        <ele>255.85</ele>
        <time>2017-10-21T15:47:23Z</time>
      </trkpt>
      <trkpt lat="46.43233" lon="4.66119">
        <ele>255.85</ele>
        <time>2017-10-21T15:47:32Z</time>
      </trkpt>
      <trkpt lat="46.43234" lon="4.66119">
        <ele>255.85</ele>
        <time>2017-10-21T15:47:43Z</time>
      </trkpt>
      <trkpt lat="46.43239" lon="4.66114">
        <ele>256.33</ele>
        <time>2017-10-21T15:47:58Z</time>
      </trkpt>
      <trkpt lat="46.43238" lon="4.66115">
        <ele>256.33</ele>
        <time>2017-10-21T15:48:07Z</time>
      </trkpt>
      <trkpt lat="46.43231" lon="4.66117">
        <ele>256.33</ele>
        <time>2017-10-21T15:48:18Z</time>
      </trkpt>
      <trkpt lat="46.4323" lon="4.66122">
        <ele>256.81</ele>
        <time>2017-10-21T15:48:27Z</time>
      </trkpt>
      <trkpt lat="46.4323" lon="4.66123">
        <ele>256.81</ele>
        <time>2017-10-21T15:48:28Z</time>
      </trkpt>
      <trkpt lat="46.43222" lon="4.66126">
        <ele>256.81</ele>
        <time>2017-10-21T15:48:32Z</time>
      </trkpt>
      <trkpt lat="46.43216" lon="4.66134">
        <ele>256.33</ele>
        <time>2017-10-21T15:48:38Z</time>
      </trkpt>
      <trkpt lat="46.4322" lon="4.66141">
        <ele>256.33</ele>
        <time>2017-10-21T15:48:44Z</time>
      </trkpt>
      <trkpt lat="46.43221" lon="4.66143">
        <ele>256.33</ele>
        <time>2017-10-21T15:48:45Z</time>
      </trkpt>
      <trkpt lat="46.43219" lon="4.66149">
        <ele>255.85</ele>
        <time>2017-10-21T15:48:50Z</time>
      </trkpt>
      <trkpt lat="46.43215" lon="4.66156">
        <ele>255.85</ele>
        <time>2017-10-21T15:48:57Z</time>
      </trkpt>
      <trkpt lat="46.43213" lon="4.6616">
        <ele>255.85</ele>
        <time>2017-10-21T15:49:02Z</time>
      </trkpt>
      <trkpt lat="46.43211" lon="4.66165">
        <ele>255.85</ele>
        <time>2017-10-21T15:49:08Z</time>
      </trkpt>
      <trkpt lat="46.43211" lon="4.66172">
        <ele>255.37</ele>
        <time>2017-10-21T15:49:13Z</time>
      </trkpt>
      <trkpt lat="46.43213" lon="4.66179">
        <ele>255.85</ele>
        <time>2017-10-21T15:49:19Z</time>
      </trkpt>
      <trkpt lat="46.43215" lon="4.66183">
        <ele>255.85</ele>
        <time>2017-10-21T15:49:22Z</time>
      </trkpt>
      <trkpt lat="46.43216" lon="4.66195">
        <ele>255.85</ele>
        <time>2017-10-21T15:49:29Z</time>
      </trkpt>
      <trkpt lat="46.43216" lon="4.662">
        <ele>255.85</ele>
        <time>2017-10-21T15:49:32Z</time>
      </trkpt>
      <trkpt lat="46.43215" lon="4.6621">
        <ele>255.85</ele>
        <time>2017-10-21T15:49:38Z</time>
      </trkpt>
      <trkpt lat="46.43214" lon="4.66215">
        <ele>255.85</ele>
        <time>2017-10-21T15:49:42Z</time>
      </trkpt>
      <trkpt lat="46.43214" lon="4.66219">
        <ele>256.33</ele>
        <time>2017-10-21T15:49:44Z</time>
      </trkpt>
      <trkpt lat="46.4321" lon="4.66227">
        <ele>255.85</ele>
        <time>2017-10-21T15:49:46Z</time>
      </trkpt>
      <trkpt lat="46.43208" lon="4.66238">
        <ele>256.33</ele>
        <time>2017-10-21T15:49:52Z</time>
      </trkpt>
      <trkpt lat="46.43208" lon="4.66243">
        <ele>256.33</ele>
        <time>2017-10-21T15:49:56Z</time>
      </trkpt>
      <trkpt lat="46.4321" lon="4.66246">
        <ele>256.33</ele>
        <time>2017-10-21T15:49:58Z</time>
      </trkpt>
      <trkpt lat="46.4321" lon="4.66254">
        <ele>256.33</ele>
        <time>2017-10-21T15:50:04Z</time>
      </trkpt>
      <trkpt lat="46.4321" lon="4.66255">
        <ele>257.29</ele>
        <time>2017-10-21T15:50:05Z</time>
      </trkpt>
      <trkpt lat="46.43212" lon="4.66267">
        <ele>256.81</ele>
        <time>2017-10-21T15:50:13Z</time>
      </trkpt>
      <trkpt lat="46.43212" lon="4.66272">
        <ele>256.81</ele>
        <time>2017-10-21T15:50:16Z</time>
      </trkpt>
      <trkpt lat="46.43211" lon="4.6628">
        <ele>257.29</ele>
        <time>2017-10-21T15:50:19Z</time>
      </trkpt>
      <trkpt lat="46.4321" lon="4.66286">
        <ele>256.81</ele>
        <time>2017-10-21T15:50:22Z</time>
      </trkpt>
      <trkpt lat="46.4321" lon="4.6629">
        <ele>256.81</ele>
        <time>2017-10-21T15:50:24Z</time>
      </trkpt>
      <trkpt lat="46.43209" lon="4.66297">
        <ele>256.81</ele>
        <time>2017-10-21T15:50:27Z</time>
      </trkpt>
      <trkpt lat="46.4321" lon="4.6631">
        <ele>257.29</ele>
        <time>2017-10-21T15:50:33Z</time>
      </trkpt>
      <trkpt lat="46.43211" lon="4.66314">
        <ele>256.81</ele>
        <time>2017-10-21T15:50:35Z</time>
      </trkpt>
      <trkpt lat="46.43211" lon="4.66319">
        <ele>257.29</ele>
        <time>2017-10-21T15:50:39Z</time>
      </trkpt>
      <trkpt lat="46.43215" lon="4.66336">
        <ele>257.29</ele>
        <time>2017-10-21T15:50:47Z</time>
      </trkpt>
      <trkpt lat="46.43211" lon="4.66343">
        <ele>257.29</ele>
        <time>2017-10-21T15:50:52Z</time>
      </trkpt>
      <trkpt lat="46.43209" lon="4.66357">
        <ele>257.29</ele>
        <time>2017-10-21T15:50:59Z</time>
      </trkpt>
      <trkpt lat="46.43211" lon="4.66369">
        <ele>257.77</ele>
        <time>2017-10-21T15:51:05Z</time>
      </trkpt>
      <trkpt lat="46.43222" lon="4.66379">
        <ele>257.77</ele>
        <time>2017-10-21T15:51:12Z</time>
      </trkpt>
      <trkpt lat="46.4323" lon="4.66382">
        <ele>257.77</ele>
        <time>2017-10-21T15:51:18Z</time>
      </trkpt>
      <trkpt lat="46.43231" lon="4.66388">
        <ele>258.25</ele>
        <time>2017-10-21T15:51:22Z</time>
      </trkpt>
      <trkpt lat="46.43228" lon="4.66395">
        <ele>258.73</ele>
        <time>2017-10-21T15:51:29Z</time>
      </trkpt>
      <trkpt lat="46.43226" lon="4.66397">
        <ele>258.25</ele>
        <time>2017-10-21T15:51:32Z</time>
      </trkpt>
      <trkpt lat="46.43223" lon="4.66409">
        <ele>258.73</ele>
        <time>2017-10-21T15:51:39Z</time>
      </trkpt>
      <trkpt lat="46.43222" lon="4.66421">
        <ele>258.73</ele>
        <time>2017-10-21T15:51:45Z</time>
      </trkpt>
      <trkpt lat="46.43223" lon="4.66438">
        <ele>258.25</ele>
        <time>2017-10-21T15:51:54Z</time>
      </trkpt>
      <trkpt lat="46.43225" lon="4.66449">
        <ele>257.77</ele>
        <time>2017-10-21T15:52:00Z</time>
      </trkpt>
      <trkpt lat="46.43226" lon="4.6646">
        <ele>257.29</ele>
        <time>2017-10-21T15:52:07Z</time>
      </trkpt>
      <trkpt lat="46.43226" lon="4.6647">
        <ele>257.29</ele>
        <time>2017-10-21T15:52:12Z</time>
      </trkpt>
      <trkpt lat="46.43227" lon="4.66475">
        <ele>257.29</ele>
        <time>2017-10-21T15:52:15Z</time>
      </trkpt>
      <trkpt lat="46.43229" lon="4.66481">
        <ele>257.77</ele>
        <time>2017-10-21T15:52:18Z</time>
      </trkpt>
      <trkpt lat="46.43229" lon="4.66492">
        <ele>257.77</ele>
        <time>2017-10-21T15:52:24Z</time>
      </trkpt>
      <trkpt lat="46.43229" lon="4.66496">
        <ele>257.77</ele>
        <time>2017-10-21T15:52:26Z</time>
      </trkpt>
      <trkpt lat="46.43229" lon="4.66505">
        <ele>257.77</ele>
        <time>2017-10-21T15:52:32Z</time>
      </trkpt>
      <trkpt lat="46.43229" lon="4.66507">
        <ele>257.29</ele>
        <time>2017-10-21T15:52:33Z</time>
      </trkpt>
      <trkpt lat="46.43232" lon="4.66515">
        <ele>257.29</ele>
        <time>2017-10-21T15:52:37Z</time>
      </trkpt>
      <trkpt lat="46.43232" lon="4.66524">
        <ele>257.29</ele>
        <time>2017-10-21T15:52:43Z</time>
      </trkpt>
      <trkpt lat="46.43233" lon="4.66532">
        <ele>257.29</ele>
        <time>2017-10-21T15:52:47Z</time>
      </trkpt>
      <trkpt lat="46.43236" lon="4.66546">
        <ele>257.29</ele>
        <time>2017-10-21T15:52:55Z</time>
      </trkpt>
      <trkpt lat="46.43242" lon="4.66554">
        <ele>257.29</ele>
        <time>2017-10-21T15:53:01Z</time>
      </trkpt>
      <trkpt lat="46.43248" lon="4.66563">
        <ele>257.29</ele>
        <time>2017-10-21T15:53:08Z</time>
      </trkpt>
      <trkpt lat="46.43255" lon="4.66572">
        <ele>256.81</ele>
        <time>2017-10-21T15:53:16Z</time>
      </trkpt>
      <trkpt lat="46.43259" lon="4.66578">
        <ele>256.33</ele>
        <time>2017-10-21T15:53:20Z</time>
      </trkpt>
      <trkpt lat="46.43259" lon="4.66584">
        <ele>256.33</ele>
        <time>2017-10-21T15:53:24Z</time>
      </trkpt>
      <trkpt lat="46.43255" lon="4.66595">
        <ele>256.33</ele>
        <time>2017-10-21T15:53:31Z</time>
      </trkpt>
      <trkpt lat="46.43251" lon="4.66601">
        <ele>256.33</ele>
        <time>2017-10-21T15:53:36Z</time>
      </trkpt>
      <trkpt lat="46.4325" lon="4.66604">
        <ele>255.85</ele>
        <time>2017-10-21T15:53:38Z</time>
      </trkpt>
      <trkpt lat="46.43252" lon="4.66608">
        <ele>255.85</ele>
        <time>2017-10-21T15:53:41Z</time>
      </trkpt>
      <trkpt lat="46.43254" lon="4.66611">
        <ele>255.37</ele>
        <time>2017-10-21T15:53:49Z</time>
      </trkpt>
      <trkpt lat="46.43254" lon="4.66612">
        <ele>255.37</ele>
        <time>2017-10-21T15:54:07Z</time>
      </trkpt>
      <trkpt lat="46.43253" lon="4.66611">
        <ele>255.37</ele>
        <time>2017-10-21T15:54:24Z</time>
      </trkpt>
      <trkpt lat="46.43253" lon="4.66611">
        <ele>255.37</ele>
        <time>2017-10-21T15:54:34Z</time>
      </trkpt>
      <trkpt lat="46.43254" lon="4.66611">
        <ele>254.89</ele>
        <time>2017-10-21T15:54:53Z</time>
      </trkpt>
      <trkpt lat="46.43253" lon="4.66611">
        <ele>254.89</ele>
        <time>2017-10-21T15:55:10Z</time>
      </trkpt>
      <trkpt lat="46.43253" lon="4.66611">
        <ele>254.89</ele>
        <time>2017-10-21T15:55:26Z</time>
      </trkpt>
      <trkpt lat="46.43254" lon="4.66612">
        <ele>254.89</ele>
        <time>2017-10-21T15:55:45Z</time>
      </trkpt>
      <trkpt lat="46.43254" lon="4.66612">
        <ele>254.89</ele>
        <time>2017-10-21T15:56:02Z</time>
      </trkpt>
      <trkpt lat="46.43256" lon="4.66613">
        <ele>255.37</ele>
        <time>2017-10-21T15:56:04Z</time>
      </trkpt>
      <trkpt lat="46.43263" lon="4.66618">
        <ele>255.37</ele>
        <time>2017-10-21T15:56:13Z</time>
      </trkpt>
      <trkpt lat="46.43271" lon="4.66617">
        <ele>255.37</ele>
        <time>2017-10-21T15:56:21Z</time>
      </trkpt>
      <trkpt lat="46.43277" lon="4.66616">
        <ele>255.37</ele>
        <time>2017-10-21T15:56:28Z</time>
      </trkpt>
      <trkpt lat="46.43279" lon="4.66616">
        <ele>255.37</ele>
        <time>2017-10-21T15:56:36Z</time>
      </trkpt>
      <trkpt lat="46.43282" lon="4.66616">
        <ele>254.89</ele>
        <time>2017-10-21T15:56:48Z</time>
      </trkpt>
      <trkpt lat="46.43283" lon="4.66617">
        <ele>254.89</ele>
        <time>2017-10-21T15:57:01Z</time>
      </trkpt>
      <trkpt lat="46.43285" lon="4.66622">
        <ele>254.89</ele>
        <time>2017-10-21T15:57:14Z</time>
      </trkpt>
      <trkpt lat="46.43285" lon="4.66622">
        <ele>254.41</ele>
        <time>2017-10-21T15:57:27Z</time>
      </trkpt>
      <trkpt lat="46.43286" lon="4.66623">
        <ele>254.41</ele>
        <time>2017-10-21T15:57:39Z</time>
      </trkpt>
      <trkpt lat="46.43287" lon="4.66625">
        <ele>253.93</ele>
        <time>2017-10-21T15:57:58Z</time>
      </trkpt>
      <trkpt lat="46.43288" lon="4.66625">
        <ele>254.41</ele>
        <time>2017-10-21T15:58:13Z</time>
      </trkpt>
      <trkpt lat="46.43288" lon="4.66626">
        <ele>253.93</ele>
        <time>2017-10-21T15:58:26Z</time>
      </trkpt>
      <trkpt lat="46.43288" lon="4.66626">
        <ele>253.44</ele>
        <time>2017-10-21T15:58:40Z</time>
      </trkpt>
      <trkpt lat="46.43289" lon="4.66626">
        <ele>253.93</ele>
        <time>2017-10-21T15:58:57Z</time>
      </trkpt>
      <trkpt lat="46.43289" lon="4.66626">
        <ele>253.93</ele>
        <time>2017-10-21T15:59:11Z</time>
      </trkpt>
      <trkpt lat="46.43289" lon="4.66626">
        <ele>253.44</ele>
        <time>2017-10-21T15:59:25Z</time>
      </trkpt>
      <trkpt lat="46.43289" lon="4.66626">
        <ele>253.44</ele>
        <time>2017-10-21T15:59:40Z</time>
      </trkpt>
      <trkpt lat="46.43288" lon="4.66624">
        <ele>252.96</ele>
        <time>2017-10-21T15:59:51Z</time>
      </trkpt>
      <trkpt lat="46.4329" lon="4.66622">
        <ele>252.96</ele>
        <time>2017-10-21T16:00:02Z</time>
      </trkpt>
      <trkpt lat="46.43292" lon="4.66621">
        <ele>253.93</ele>
        <time>2017-10-21T16:00:10Z</time>
      </trkpt>
      <trkpt lat="46.43296" lon="4.66621">
        <ele>253.44</ele>
        <time>2017-10-21T16:00:17Z</time>
      </trkpt>
      <trkpt lat="46.43299" lon="4.66621">
        <ele>253.93</ele>
        <time>2017-10-21T16:00:27Z</time>
      </trkpt>
      <trkpt lat="46.43303" lon="4.66622">
        <ele>253.93</ele>
        <time>2017-10-21T16:00:34Z</time>
      </trkpt>
      <trkpt lat="46.43309" lon="4.66622">
        <ele>253.44</ele>
        <time>2017-10-21T16:00:43Z</time>
      </trkpt>
      <trkpt lat="46.4331" lon="4.66622">
        <ele>252.96</ele>
        <time>2017-10-21T16:00:59Z</time>
      </trkpt>
      <trkpt lat="46.43311" lon="4.66622">
        <ele>252.96</ele>
        <time>2017-10-21T16:01:11Z</time>
      </trkpt>
      <trkpt lat="46.43311" lon="4.66621">
        <ele>252.48</ele>
        <time>2017-10-21T16:01:26Z</time>
      </trkpt>
      <trkpt lat="46.43312" lon="4.66621">
        <ele>252.96</ele>
        <time>2017-10-21T16:01:44Z</time>
      </trkpt>
      <trkpt lat="46.43312" lon="4.6662">
        <ele>252.48</ele>
        <time>2017-10-21T16:02:02Z</time>
      </trkpt>
      <trkpt lat="46.43312" lon="4.6662">
        <ele>252.48</ele>
        <time>2017-10-21T16:02:18Z</time>
      </trkpt>
      <trkpt lat="46.43312" lon="4.6662">
        <ele>252</ele>
        <time>2017-10-21T16:02:37Z</time>
      </trkpt>
      <trkpt lat="46.43312" lon="4.66619">
        <ele>252</ele>
        <time>2017-10-21T16:02:53Z</time>
      </trkpt>
      <trkpt lat="46.43312" lon="4.66619">
        <ele>252</ele>
        <time>2017-10-21T16:03:11Z</time>
      </trkpt>
      <trkpt lat="46.43312" lon="4.66618">
        <ele>252</ele>
        <time>2017-10-21T16:03:29Z</time>
      </trkpt>
      <trkpt lat="46.43312" lon="4.66618">
        <ele>251.52</ele>
        <time>2017-10-21T16:03:47Z</time>
      </trkpt>
      <trkpt lat="46.43312" lon="4.66618">
        <ele>251.52</ele>
        <time>2017-10-21T16:04:02Z</time>
      </trkpt>
      <trkpt lat="46.43311" lon="4.66617">
        <ele>251.52</ele>
        <time>2017-10-21T16:04:18Z</time>
      </trkpt>
      <trkpt lat="46.43311" lon="4.66617">
        <ele>251.52</ele>
        <time>2017-10-21T16:04:35Z</time>
      </trkpt>
      <trkpt lat="46.4331" lon="4.66616">
        <ele>251.52</ele>
        <time>2017-10-21T16:04:54Z</time>
      </trkpt>
      <trkpt lat="46.43311" lon="4.66616">
        <ele>251.52</ele>
        <time>2017-10-21T16:05:11Z</time>
      </trkpt>
      <trkpt lat="46.43311" lon="4.66615">
        <ele>251.52</ele>
        <time>2017-10-21T16:05:27Z</time>
      </trkpt>
      <trkpt lat="46.43313" lon="4.66614">
        <ele>251.52</ele>
        <time>2017-10-21T16:05:45Z</time>
      </trkpt>
      <trkpt lat="46.43313" lon="4.66613">
        <ele>251.04</ele>
        <time>2017-10-21T16:06:00Z</time>
      </trkpt>
      <trkpt lat="46.43314" lon="4.66612">
        <ele>251.04</ele>
        <time>2017-10-21T16:06:14Z</time>
      </trkpt>
      <trkpt lat="46.43314" lon="4.66612">
        <ele>251.04</ele>
        <time>2017-10-21T16:06:31Z</time>
      </trkpt>
      <trkpt lat="46.43314" lon="4.66613">
        <ele>251.04</ele>
        <time>2017-10-21T16:06:48Z</time>
      </trkpt>
      <trkpt lat="46.43314" lon="4.66613">
        <ele>250.56</ele>
        <time>2017-10-21T16:07:04Z</time>
      </trkpt>
      <trkpt lat="46.43314" lon="4.66613">
        <ele>250.56</ele>
        <time>2017-10-21T16:07:14Z</time>
      </trkpt>
    </trkseg>
  </trk>
</gpx>